[[{"header":{"parameterUnit":"m.s-1","parameterCategory":1,"la1":31.0,"la2":29.5877,"lo1":-88.7671,"lo2":-86.6584,"dy":0.0162,"dx":0.0185,"nx":115,"ny":88,"refTime":"2023-10-05T06:00:00:Z","depth":0,"parameterNumber":2,"parameterNumberName":"U-component_of_WINDS"},"data":[0.0,0.0,0.0,0.0,0.0,0.0,0.0,0.0,0.0,0.0,0.0,0.0,0.0,0.0,0.0,0.0,0.0,0.0,0.0,0.0,0.0,0.0,0.0,0.0,0.0,0.0,0.0,0.0,0.0,0.0,0.0,0.0,0.0,0.0,0.0,0.0,0.0,0.0,0.0,0.0,0.0,0.0,0.0,0.0,0.0,0.0,0.0,0.0,0.0,0.0,0.0,0.0,0.0,0.0,0.0,0.0,0.0,0.0,0.0,0.0,0.0,0.0,0.0,0.0,0.0,0.0,0.0,0.0,0.0,0.0,0.0,0.0,0.0,0.0,0.0,0.0,0.0,0.0,0.0,0.0,0.0,0.0,0.0,0.0,0.0,0.0,0.0,0.0,0.0,0.0,0.0,0.0,0.0,0.0,0.0,0.0,0.0,0.0,0.0,0.0,0.0,0.0,0.0,0.0,0.0,0.0,0.0,0.0,0.0,0.0,0.0,0.0,0.0,0.0,0.0,0.0,0.0,0.0,0.0,0.0,0.0,0.0,0.0,0.0,0.0,0.0,0.0,0.0,0.0,0.0,0.0,0.0,0.0,0.0,0.0,0.0,0.0,0.0,0.0,0.0,0.0,0.0,0.0,0.0,0.0,0.0,0.0,0.0,0.0,0.0,0.0,0.0,0.0,0.0,0.0,0.0,0.0,0.0,0.0,0.0,0.0,0.0,0.0,0.0,0.0,0.0,0.0,0.0,0.0,0.0,0.0,0.0,0.0,0.0,0.0,0.0,0.0,0.0,0.0,0.0,0.0,0.0,0.0,0.0,0.0,0.0,0.0,0.0,0.0,0.0,0.0,0.0,0.0,0.0,0.0,0.0,0.0,0.0,0.0,0.0,0.0,0.0,0.0,0.0,0.0,0.0,0.0,0.0,0.0,0.0,0.0,0.0,0.0,0.0,0.0,0.0,0.0,0.0,0.0,0.0,0.0,0.0,0.0,0.0,0.0,0.0,0.0,0.0,0.0,0.0,0.0,0.0,0.0,0.0,0.0,0.0,0.0,0.0,0.0,0.0,0.0,0.0,0.0,0.0,0.0,0.0,0.0,0.0,0.0,0.0,0.0,0.0,0.0,0.0,0.0,0.0,0.0,0.0,0.0,0.0,0.0,0.0,0.0,0.0,0.0,0.0,0.0,0.0,0.0,0.0,0.0,0.0,0.0,0.0,0.0,0.0,0.0,0.0,0.0,0.0,0.0,0.0,0.0,0.0,0.0,0.0,0.0,0.0,0.0,0.0,0.0,0.0,0.0,0.0,0.0,0.0,0.0,0.0,0.0,0.0,0.0,0.0,0.0,0.0,0.0,0.0,0.0,0.0,0.0,0.0,0.0,0.0,0.0,0.0,0.0,0.0,0.0,0.0,0.0,0.0,0.0,0.0,0.0,0.0,0.0,0.0,0.0,0.0,0.0,0.0,0.0,0.0,0.0,0.0,0.0,0.0,0.0,0.0,0.0,0.0,0.0,0.0,0.0,0.0,0.0,0.0,0.0,0.0,0.0,0.0,0.0,0.0,0.0,0.0,0.0,0.0,0.0,0.0,0.0,0.0,0.0,0.0,0.0,0.0,0.0,0.0,0.0,0.0,0.0,0.0,0.0,0.0,0.0,0.0,0.0,0.0,0.0,0.0,0.0,0.0,0.0,0.0,0.0,0.0,0.0,0.0,0.0,0.0,0.0,0.0,0.0,0.0,0.0,0.0,0.0,0.0,0.0,0.0,0.0,0.0,0.0,0.0,0.0,0.0,0.0,0.0,0.0,0.0,0.0,0.0,0.0,0.0,0.0,0.0,0.0,0.0,0.0,0.0,0.0,0.0,0.0,0.0,0.0,0.0,0.0,0.0,0.0,0.0,0.0,0.0,0.0,0.0,0.0,0.0,0.0,0.0,0.0,0.0,0.0,0.0,0.0,0.0,0.0,0.0,0.0,0.0,0.0,0.0,0.0,0.0,0.0,0.0,0.0,0.0,0.0,0.0,0.0,0.0,0.0,0.0,0.0,0.0,0.0,0.0,0.0,0.0,0.0,0.0,0.0,0.0,0.0,0.0,0.0,0.0,0.0,0.0,0.0,0.0,0.0,0.0,0.0,0.0,0.0,0.0,0.0,0.0,0.0,0.0,0.0,0.0,0.0,0.0,0.0,0.0,0.0,0.0,0.0,0.0,0.0,0.0,0.0,0.0,0.0,0.0,0.0,0.0,0.0,0.0,0.0,0.0,0.0,0.0,0.0,0.0,0.0,0.0,0.0,0.0,0.0,0.0,0.0,0.0,0.0,0.0,0.0,0.0,0.0,0.0,0.0,0.0,0.0,0.0,0.0,0.0,0.0,0.0,0.0,0.0,0.0,0.0,0.0,0.0,0.0,0.0,0.0,0.0,0.0,0.0,0.0,0.0,0.0,0.0,0.0,0.0,0.0,0.0,0.0,0.0,0.0,0.0,0.0,0.0,0.0,0.0,0.0,0.0,0.0,0.0,0.0,0.0,0.0,0.0,0.0,0.0,0.0,0.0,0.0,0.0,0.0,0.0,0.0,0.0,0.0,0.0,0.0,0.0,0.0,0.0,0.0,0.0,0.0,0.0,0.0,0.0,0.0,0.0,0.0,0.0,0.0,0.0,0.0,0.0,0.0,0.0,0.0,0.0,0.0,0.0,0.0,0.0,0.0,0.0,0.0,0.0,0.0,0.0,0.0,0.0,0.0,0.0,0.0,0.0,0.0,0.0,0.0,0.0,0.0,0.0,0.0,0.0,0.0,0.0,0.0,0.0,0.0,0.0,0.0,0.0,0.0,0.0,0.0,0.0,0.0,0.0,0.0,0.0,0.0,0.0,0.0,0.0,0.0,0.0,0.0,0.0,0.0,0.0,0.0,0.0,0.0,0.0,0.0,0.0,0.0,0.0,0.0,0.0,0.0,0.0,0.0,0.0,0.0,0.0,0.0,0.0,0.0,0.0,0.0,0.0,0.0,0.0,0.0,0.0,0.0,0.0,0.0,0.0,0.0,0.0,0.0,0.0,0.0,0.0,0.0,0.0,0.0,0.0,0.0,0.0,0.0,0.0,0.0,0.0,0.0,0.0,0.0,0.0,0.0,0.0,0.0,0.0,0.0,0.0,0.0,0.0,0.0,0.0,0.0,0.0,0.0,0.0,0.0,0.0,0.0,0.0,0.0,0.0,0.0,0.0,0.0,0.0,0.0,0.0,0.0,0.0,0.0,0.0,0.0,0.0,0.0,0.0,0.0,0.0,0.0,0.0,0.0,0.0,0.0,0.0,0.0,0.0,0.0,0.0,0.0,0.0,0.0,0.0,0.0,0.0,0.0,0.0,0.0,0.0,0.0,0.0,0.0,0.0,0.0,0.0,0.0,0.0,0.0,0.0,0.0,0.0,0.0,0.0,0.0,0.0,0.0,0.0,0.0,0.0,0.0,0.0,0.0,0.0,0.0,0.0,0.0,0.0,0.0,0.0,0.0,0.0,0.0,0.0,0.0,0.0,0.0,0.0,0.0,0.0,0.0,0.0,0.0,0.0,0.0,0.0,0.0,0.0,0.0,0.0,0.0,0.0,0.0,0.0,0.0,0.0,0.0,0.0,0.0,0.0,0.0,0.0,0.0,0.0,0.0,0.0,0.0,0.0,0.0,0.0,0.0,0.0,0.0,0.0,0.0,0.0,0.0,0.0,0.0,0.0,0.0,0.0,0.0,0.0,0.0,0.0,0.0,0.0,0.0,0.0,0.0,0.0,0.0,0.0,0.0,0.0,0.0,0.0,0.0,0.0,0.0,0.0,0.0,0.0,0.0,0.0,0.0,0.0,0.0,0.0,0.0,0.0,0.0,0.0,0.0,0.0,0.0,0.0,0.0,0.0,0.0,0.0,0.0,0.0,0.0,0.0,0.0,0.0,0.0,0.0,0.0,0.0,0.0,0.0,0.0,0.0,0.0,0.0,0.0,0.0,0.0,0.0,0.0,0.0,0.0,0.0,0.0,0.0,0.0,0.0,0.0,0.0,0.0,0.0,0.0,0.0,0.0,0.0,0.0,0.0,0.0,0.0,0.0,0.0,0.0,0.0,0.0,0.0,0.0,0.0,0.0,0.0,0.0,0.0,0.0,0.0,0.0,0.0,0.0,0.0,0.0,0.0,0.0,0.0,0.0,0.0,0.0,0.0,0.0,0.0,0.0,0.0,0.0,0.0,0.0,0.0,0.0,0.0,0.0,0.0,0.0,0.0,0.0,0.0,0.7408,0.0,0.0,0.0,0.0,0.0,0.0,0.0,0.0,0.0,0.0,0.0,0.0,0.0,0.0,0.0,0.0,0.0,0.0,0.0,0.0,0.0,0.0,0.0,0.0,0.0,0.0,0.0,0.0,0.0,0.0,0.0,0.0,0.0,0.0,0.0,0.0,0.0,0.0,0.0,0.0,0.0,0.0,0.0,0.0,0.0,0.0,0.0,0.0,0.0,0.0,0.0,0.0,0.0,0.0,0.0,0.0,0.0,0.0,0.0,0.0,0.0,0.0,0.0,0.0,0.0,0.0,0.0,0.0,0.0,0.0,0.0,0.0,0.0,0.0,0.0,0.0,0.0,0.0,0.0,0.0,0.0,0.0,0.0,0.0,0.0,0.0,0.0,0.0,0.0,0.0,0.0,0.0,0.0,0.0,0.0,0.0,0.0,0.0,0.0,0.0,0.0,0.0,0.0,0.0,0.0,0.0,0.0,0.0,0.0,0.0,0.8894,0.8149,0.8658,0.8771,0.8336,0.0,0.0,0.0,0.0,0.0,0.0,0.0,0.0,0.0,0.0,0.0,0.0,0.0,0.0,0.0,0.0,0.0,0.0,0.0,0.0,0.0,0.0,0.0,0.0,0.0,0.0,0.0,0.0,0.0,0.0,0.0,0.0,0.0,0.0,0.0,0.0,0.0,0.0,0.0,0.0,0.0,0.0,0.0,0.0,0.0,0.0,0.0,0.0,0.0,0.0,0.0,0.0,0.0,0.0,0.0,0.0,0.0,0.0,0.0,0.0,0.0,0.0,0.0,0.0,0.0,0.0,0.0,0.0,0.0,0.0,0.0,0.0,0.0,0.0,0.0,0.0,0.0,0.0,0.0,0.0,0.0,0.0,0.0,0.0,0.0,0.0,0.0,0.0,0.0,0.0,0.0,0.0,0.0,0.0,0.0,0.0,0.0,0.0,0.0,0.0,0.0,0.0,0.0,0.0,0.0,0.0,0.0,0.0,0.0,0.0,0.0,0.0,0.9798,0.9886,0.9231,0.0,0.0,0.0,0.0,0.0,0.0,0.0,0.0,0.0,0.0,0.0,0.0,0.0,0.0,0.0,0.0,0.0,0.0,0.0,0.0,0.0,0.0,0.0,0.0,0.0,0.0,0.0,0.0,0.0,0.0,0.0,0.0,0.0,0.0,0.0,0.0,0.0,0.0,0.0,0.0,0.0,0.0,0.0,0.0,0.0,0.0,0.0,0.0,0.0,0.0,0.0,0.0,0.0,0.0,0.0,0.0,0.0,0.0,0.0,0.0,0.0,0.0,0.0,0.0,0.0,0.0,0.0,0.0,0.0,0.0,0.0,0.0,0.0,0.0,0.0,0.0,0.0,0.0,0.0,0.0,0.0,0.0,0.0,0.0,0.0,0.0,0.0,0.0,0.0,0.0,0.0,0.0,0.0,0.0,0.0,0.0,0.0,0.0,0.0,0.0,0.0,0.0,0.0,0.0,0.0,0.0,0.0,0.0,0.0,0.0,0.9982,0.9967,1.0124,0.0,1.0086,0.0,0.0,0.0,0.0,0.0,0.0,0.0,0.0,0.0,0.0,0.0,0.0,0.0,0.0,0.0,0.0,0.0,0.0,0.0,0.0,0.0,0.0,0.0,0.0,0.0,0.0,0.0,0.0,0.0,0.0,0.0,0.0,0.0,0.0,0.0,0.0,0.0,0.0,0.0,0.0,0.0,0.0,0.0,0.0,0.0,0.0,0.0,0.0,0.0,0.0,0.0,0.0,0.0,0.0,0.0,0.0,0.0,0.0,0.0,0.0,0.0,0.0,0.0,0.0,0.0,0.0,0.0,0.0,0.0,0.0,0.0,0.0,0.0,0.0,0.0,0.0,0.0,0.0,0.0,0.0,0.0,0.0,0.0,0.0,0.0,0.0,0.0,0.0,0.0,0.0,0.0,0.0,0.0,0.0,0.0,0.0,0.0,0.0,0.0,0.0,0.0,0.0,0.0,0.0,0.0,0.0,0.0,0.0,0.0,0.0,1.0094,1.016,1.0198,1.0229,0.0,0.0,0.0,0.0,0.0,0.0,0.0,0.0,0.0,0.0,0.0,0.0,0.0,0.0,0.0,0.0,0.0,0.0,0.0,0.0,0.0,0.0,0.0,0.0,0.0,0.0,0.0,0.0,0.0,0.0,0.0,0.0,0.0,0.0,0.0,0.0,0.0,0.0,0.0,0.0,0.0,0.0,0.0,0.0,0.0,0.0,0.0,0.0,0.0,0.0,0.0,0.0,0.0,0.0,0.0,0.0,0.0,0.0,0.0,0.0,0.0,0.0,0.0,0.0,0.0,0.0,0.0,0.0,0.0,0.0,0.0,0.0,0.0,0.0,0.0,0.0,0.0,0.0,0.0,0.0,0.0,0.0,0.0,0.0,0.0,0.0,0.0,0.0,0.0,0.0,0.0,0.0,0.0,0.0,0.0,0.0,0.0,0.0,0.0,0.0,0.0,0.0,0.0,0.0,0.0,0.0,0.0,0.0,0.0,0.0,0.9771,1.0135,1.0186,1.0196,1.0232,1.0269,0.0,0.0,0.0,0.0,0.0,0.0,0.0,0.0,0.0,0.0,0.0,0.0,0.0,0.0,0.0,0.0,0.0,0.0,0.0,0.0,0.0,0.0,0.0,0.0,0.0,0.0,0.0,0.0,0.0,0.0,0.0,0.0,0.0,0.0,0.0,0.0,0.0,0.0,0.0,0.0,0.0,0.0,0.0,0.0,0.0,0.0,0.0,0.0,0.0,0.0,0.0,0.0,0.0,0.0,0.0,0.0,0.0,0.0,0.0,0.0,0.0,0.0,0.0,0.0,0.0,0.0,0.0,0.0,0.0,0.0,0.0,0.0,0.0,0.0,0.0,0.0,0.0,0.0,0.0,0.0,0.0,0.0,0.0,0.0,0.0,0.0,0.0,0.0,0.0,0.0,0.0,0.0,0.0,0.0,0.0,0.0,0.0,0.0,0.0,0.0,0.0,0.0,0.0,0.0,0.0,0.0,0.0,0.0,1.002,1.0079,1.0122,1.0188,1.0185,1.0195,0.0,0.0,0.0,0.0,0.0,0.0,0.0,0.0,0.0,0.0,0.0,0.0,0.0,0.0,0.0,0.0,0.0,0.0,0.0,0.0,0.0,0.0,0.0,0.0,0.0,0.0,0.0,0.0,0.0,0.0,0.0,0.0,0.0,0.0,0.0,0.0,0.0,0.0,0.0,0.0,0.0,0.0,0.0,0.0,0.0,0.0,0.0,0.0,0.0,0.0,0.0,0.0,0.0,0.0,0.0,0.0,0.0,0.0,0.0,0.0,0.0,0.0,0.0,0.0,0.0,0.0,0.0,0.0,0.0,0.0,0.0,0.0,0.0,0.0,0.0,0.0,0.0,0.0,0.0,0.0,0.0,0.0,0.0,0.0,0.0,0.0,0.0,0.0,0.0,0.0,0.0,0.0,0.0,0.0,0.0,0.0,0.0,0.0,0.0,0.0,0.0,0.0,0.0,0.0,0.0,0.0,0.0,0.0,0.0,1.0044,1.0117,1.0173,1.0198,1.025,1.0253,0.0,0.0,0.0,0.0,0.0,0.0,0.0,0.0,0.0,0.0,0.0,0.0,0.0,0.0,0.0,0.0,0.0,0.0,0.0,0.0,0.0,0.0,0.0,0.0,0.0,0.0,0.0,0.0,0.0,0.0,0.0,0.0,0.0,0.0,0.0,0.0,0.0,0.0,0.0,0.0,0.0,0.0,0.0,0.0,0.0,0.0,0.0,0.0,0.0,0.0,0.0,0.0,0.0,0.0,0.0,0.0,0.0,0.0,0.0,0.0,0.0,0.0,0.0,0.0,0.0,0.0,0.0,0.0,0.0,0.0,0.0,0.0,0.0,0.0,0.0,0.0,0.0,0.0,0.0,0.0,0.0,0.0,0.0,0.0,0.0,0.0,0.0,0.0,0.0,0.0,0.0,0.0,0.0,0.0,0.0,0.0,0.0,0.0,0.0,0.0,0.0,0.0,0.0,0.0,0.0,0.0,0.0,0.0,0.0,1.0484,0.0,1.0883,1.0654,1.0948,1.1107,0.0,0.0,0.0,0.0,0.0,0.0,0.0,0.0,0.0,0.0,0.0,0.0,0.0,0.0,0.0,0.0,0.0,0.0,0.0,0.0,0.0,0.0,0.0,0.0,0.0,0.0,0.0,0.0,0.0,0.0,0.0,0.0,0.0,0.0,0.0,0.0,0.0,0.0,0.0,0.0,0.0,0.0,0.0,0.0,0.0,0.0,0.0,0.0,0.0,0.0,0.0,0.0,0.0,0.0,0.0,0.0,0.0,0.0,0.0,0.0,0.0,0.0,0.0,0.0,0.0,0.0,0.0,0.0,0.0,0.0,0.0,0.0,0.0,0.0,0.0,0.0,0.0,0.0,0.0,0.0,0.0,0.0,0.0,0.0,0.0,0.0,0.0,0.0,0.0,0.0,0.0,0.0,0.0,0.0,0.0,0.0,0.0,0.0,0.0,0.0,0.0,0.0,0.0,0.0,0.0,0.0,0.0,0.0,1.2183,1.1483,1.2219,1.2242,1.1557,1.229,1.2752,0.0,0.0,0.0,0.0,0.0,0.0,0.0,0.0,0.0,0.0,0.0,0.0,0.0,0.0,0.0,0.0,0.0,0.0,0.0,0.0,0.0,0.0,0.0,0.0,0.0,0.0,0.0,0.0,0.0,0.0,0.0,0.0,0.0,0.0,0.0,0.0,0.0,0.0,0.0,0.0,0.0,0.0,0.0,0.0,0.0,0.0,0.0,0.0,0.0,0.0,0.0,0.0,0.0,0.0,0.0,0.0,0.0,0.0,0.0,0.0,0.0,0.0,0.0,0.0,0.0,0.0,0.0,0.0,0.0,0.0,0.0,0.0,0.0,0.0,0.0,0.0,0.0,0.0,0.0,0.0,0.0,0.0,0.0,0.0,0.0,0.0,0.0,0.0,0.0,0.0,0.0,0.0,0.0,0.0,0.0,0.0,0.0,0.0,0.0,0.0,0.0,0.0,0.0,0.0,0.0,0.0,0.0,0.0,0.0,1.2367,1.2568,1.2594,1.2426,1.2656,1.2783,0.0,0.0,0.0,0.0,0.0,0.0,0.0,0.0,0.0,0.0,0.0,0.0,0.0,0.0,0.0,0.0,0.0,0.0,0.0,0.0,0.0,0.0,0.0,0.0,0.0,0.0,0.0,0.0,0.0,0.0,0.0,0.0,0.0,0.0,0.0,0.0,0.0,0.0,0.0,0.0,0.0,0.0,0.0,0.0,0.0,0.0,0.0,0.0,0.0,0.0,0.0,0.0,0.0,0.0,0.0,0.0,0.0,0.0,0.0,0.0,0.0,0.0,0.0,0.0,0.0,0.0,0.0,0.0,0.0,0.0,0.0,0.0,0.0,0.0,0.0,0.0,0.0,0.0,0.0,0.0,0.0,0.0,0.0,0.0,0.0,0.0,0.0,0.0,0.0,0.0,0.0,0.0,0.0,0.0,0.0,0.0,0.0,0.0,0.0,0.0,0.0,0.0,0.0,0.0,0.0,0.0,0.0,0.0,0.0,1.4672,1.4582,1.4299,1.3738,1.4042,1.4075,1.3787,0.0,0.0,0.0,0.0,0.0,0.0,0.0,0.0,0.0,0.0,0.0,0.0,0.0,0.0,0.0,0.0,0.0,0.0,0.0,0.0,0.0,0.0,0.0,0.0,0.0,0.0,0.0,0.0,0.0,0.0,0.0,0.0,0.0,0.0,0.0,0.0,0.0,0.0,0.0,0.0,0.0,0.0,0.0,0.0,0.0,0.0,0.0,0.0,0.0,0.0,0.0,0.0,0.0,0.0,0.0,0.0,0.0,0.0,0.0,0.0,0.0,0.0,0.0,0.0,0.0,0.0,0.0,0.0,0.0,0.0,0.0,0.0,0.0,0.0,0.0,0.0,0.0,0.0,0.0,0.0,0.0,0.0,0.0,0.0,0.0,0.0,0.0,0.0,0.0,0.0,0.0,0.0,0.0,0.0,0.0,0.0,0.0,0.0,0.0,0.0,0.0,0.0,0.0,0.0,0.0,0.0,0.0,0.0,1.7942,1.7874,1.7068,1.5501,1.6152,1.6249,0.0,0.0,0.0,0.0,0.0,0.0,0.0,0.0,0.0,0.0,0.0,0.0,0.0,0.0,0.0,0.0,0.0,0.0,0.0,0.0,0.0,0.0,0.0,0.0,0.0,0.0,0.0,0.0,0.0,0.0,0.0,0.0,0.0,0.0,0.0,0.0,0.0,0.0,0.0,0.0,0.0,0.0,0.0,0.0,0.0,0.0,0.0,0.0,0.0,0.0,0.0,0.0,0.0,0.0,0.0,0.0,0.0,0.0,0.0,0.0,0.0,0.0,0.0,0.0,0.0,0.0,0.0,0.0,0.0,0.0,0.0,0.0,0.0,0.0,0.0,0.0,0.0,0.0,0.0,0.0,0.0,0.0,0.0,0.0,0.0,0.0,0.0,0.0,0.0,0.0,0.0,0.0,0.0,0.0,0.0,0.0,0.0,0.0,0.0,0.0,0.0,0.0,0.0,0.0,0.0,0.0,0.0,0.0,0.0,1.9675,1.9672,1.8826,1.722,1.6775,1.6502,0.0,0.0,0.0,0.0,0.0,0.0,0.0,0.0,0.0,0.0,0.0,0.0,0.0,0.0,0.0,0.0,0.0,0.0,0.0,0.0,0.0,0.0,0.0,0.0,0.0,0.0,0.0,0.0,0.0,0.0,0.0,0.0,0.0,0.0,0.0,0.0,0.0,0.0,0.0,0.0,0.0,0.0,0.0,0.0,0.0,0.0,0.0,0.0,0.0,0.0,0.0,0.0,0.0,0.0,0.0,0.0,0.0,0.0,0.0,0.0,0.0,0.0,0.0,0.0,0.0,0.0,0.0,0.0,0.0,0.0,0.0,0.0,0.0,0.0,0.0,0.0,0.0,0.0,0.0,0.0,0.0,0.0,0.0,0.0,0.0,0.0,0.0,0.0,0.0,0.0,0.0,0.0,0.0,0.0,0.0,0.0,0.0,0.0,0.0,0.0,0.0,0.0,0.0,0.0,0.0,0.0,0.0,0.0,1.9876,2.0341,2.0351,1.9853,1.8869,1.7715,1.6929,0.0,0.0,0.0,0.0,0.0,0.0,0.0,0.0,0.0,0.0,0.0,0.0,0.0,0.0,0.0,0.0,0.0,0.0,0.0,0.0,0.0,0.0,0.0,0.0,0.0,0.0,0.0,0.0,0.0,0.0,0.0,0.0,0.0,0.0,0.0,0.0,0.0,0.0,0.0,0.0,0.0,0.0,0.0,0.0,0.0,0.0,0.0,0.0,0.0,0.0,0.0,0.0,0.0,0.0,0.0,0.0,0.0,0.0,0.0,0.0,0.0,0.0,0.0,0.0,0.0,0.0,0.0,0.0,0.0,0.0,0.0,0.0,0.0,0.0,0.0,0.0,0.0,0.0,0.0,0.0,0.0,0.0,0.0,0.0,0.0,0.0,0.0,0.0,0.0,0.0,0.0,0.0,0.0,0.0,0.0,0.0,0.0,0.0,0.0,0.0,0.0,0.0,0.0,0.0,0.0,0.0,0.0,0.0,2.0377,2.0315,2.037,2.0383,2.0282,1.8686,1.7457,0.0,0.0,0.0,0.0,0.0,0.0,0.0,0.0,0.0,0.0,0.0,0.0,0.0,0.0,0.0,0.0,0.0,0.0,0.0,0.0,0.0,0.0,0.0,0.0,0.0,0.0,0.0,0.0,0.0,0.0,0.0,0.0,0.0,0.0,0.0,0.0,0.0,0.0,0.0,0.0,0.0,0.0,0.0,0.0,0.0,0.0,0.0,0.0,0.0,0.0,0.0,0.0,0.0,0.0,0.0,0.0,0.0,0.0,0.0,0.0,0.0,0.0,0.0,0.0,0.0,0.0,0.0,0.0,0.0,0.0,0.0,0.0,0.0,0.0,0.0,0.0,0.0,0.0,0.0,0.0,0.0,0.0,0.0,0.0,0.0,0.0,0.0,0.0,0.0,0.0,0.0,0.0,0.0,0.0,0.0,0.0,0.0,0.0,0.0,0.0,0.0,0.0,0.0,0.0,0.0,0.0,0.0,0.0,2.0423,2.0463,2.0486,2.045,2.0385,1.8695,1.7725,0.0,0.0,0.0,0.0,0.0,0.0,0.0,0.0,0.0,0.0,0.0,0.0,0.0,0.0,0.0,0.0,0.0,0.0,0.0,0.0,0.0,0.0,0.0,0.0,0.0,0.0,0.0,0.0,0.0,0.0,0.0,0.0,0.0,0.0,0.0,0.0,0.0,0.0,0.0,0.0,0.0,0.0,0.0,0.0,0.0,0.0,0.0,0.0,1.7272,0.0,0.0,0.0,0.0,0.0,0.0,0.0,0.0,0.0,0.0,0.0,0.0,0.0,0.0,0.0,0.0,0.0,0.0,0.0,0.0,0.0,0.0,0.0,0.0,0.0,0.0,0.0,0.0,0.0,0.0,0.0,0.0,0.0,0.0,0.0,0.0,0.0,0.0,0.0,0.0,0.0,0.0,0.0,0.0,0.0,0.0,0.0,0.0,0.0,0.0,0.0,0.0,0.0,0.0,0.0,0.0,0.0,0.0,0.0,2.0423,2.0504,2.0505,2.0472,2.0366,1.911,1.8218,0.0,0.0,0.0,0.0,0.0,0.0,0.0,0.0,0.0,0.0,0.0,0.0,0.0,0.0,0.0,0.0,0.0,0.0,0.0,0.0,0.0,0.0,0.0,0.0,0.0,0.0,0.0,0.0,0.0,0.0,0.0,0.0,0.0,0.0,0.0,0.0,0.0,0.0,0.0,0.0,0.0,0.0,0.0,0.0,0.0,0.0,0.0,0.0,0.0,0.0,0.0,0.0,0.0,0.0,0.0,0.0,0.0,0.0,0.0,0.0,0.0,0.0,0.0,0.0,0.0,0.0,0.0,0.0,0.0,0.0,0.0,0.0,0.0,0.0,0.0,0.0,0.0,0.0,0.0,0.0,0.0,0.0,0.0,0.0,0.0,0.0,0.0,0.0,0.0,0.0,0.0,0.0,0.0,0.0,0.0,0.0,0.0,0.0,0.0,0.0,0.0,0.0,0.0,0.0,0.0,0.0,0.0,2.0492,2.064,2.0702,2.0837,2.0865,2.0789,1.9957,1.9088,1.825,0.0,0.0,0.0,0.0,0.0,0.0,0.0,0.0,0.0,0.0,0.0,0.0,0.0,0.0,0.0,0.0,0.0,0.0,0.0,0.0,0.0,0.0,0.0,0.0,0.0,0.0,0.0,0.0,0.0,0.0,0.0,0.0,0.0,0.0,0.0,0.0,0.0,0.0,1.6868,1.7532,0.0,0.0,0.0,0.0,0.0,0.0,0.0,0.0,1.8878,0.0,0.0,0.0,0.0,0.0,0.0,0.0,0.0,0.0,0.0,0.0,0.0,0.0,0.0,0.0,0.0,0.0,0.0,0.0,0.0,0.0,0.0,0.0,0.0,0.0,0.0,0.0,0.0,0.0,0.0,0.0,0.0,0.0,0.0,0.0,0.0,0.0,0.0,0.0,0.0,0.0,0.0,0.0,0.0,0.0,0.0,0.0,0.0,0.0,0.0,0.0,0.0,0.0,0.0,0.0,0.0,2.0383,2.111,2.1552,2.1672,2.2333,2.2654,2.2636,2.1763,2.0888,2.0069,0.0,0.0,0.0,0.0,0.0,0.0,0.0,0.0,0.0,0.0,0.0,0.0,0.0,0.0,0.0,0.0,0.0,0.0,0.0,0.0,0.0,0.0,0.0,0.0,0.0,0.0,0.0,0.0,0.0,0.0,0.0,0.0,0.0,0.0,0.0,0.0,0.0,0.0,0.0,1.825,1.8149,0.0,0.0,0.0,0.0,0.0,0.0,0.0,0.0,2.0983,0.0,0.0,0.0,0.0,0.0,0.0,0.0,0.0,0.0,0.0,0.0,0.0,0.0,0.0,0.0,0.0,0.0,0.0,0.0,0.0,0.0,0.0,0.0,0.0,0.0,0.0,0.0,0.0,0.0,0.0,0.0,0.0,0.0,0.0,0.0,0.0,0.0,0.0,0.0,0.0,0.0,0.0,0.0,0.0,0.0,0.0,0.0,0.0,0.0,0.0,0.0,0.0,0.0,0.0,0.0,2.109,2.1973,2.246,2.2527,2.2898,2.3081,2.3019,2.2168,2.1507,0.0,0.0,0.0,0.0,0.0,0.0,0.0,0.0,0.0,0.0,0.0,0.0,0.0,0.0,0.0,0.0,0.0,0.0,0.0,0.0,0.0,0.0,0.0,0.0,0.0,0.0,0.0,0.0,0.0,0.0,0.0,0.0,0.0,0.0,0.0,0.0,0.0,0.0,0.0,0.0,1.9561,1.9992,2.034,0.0,0.0,0.0,0.0,0.0,0.0,2.2885,2.289,0.0,0.0,0.0,0.0,0.0,0.0,0.0,0.0,0.0,0.0,0.0,0.0,0.0,0.0,0.0,0.0,0.0,0.0,0.0,0.0,0.0,0.0,0.0,0.0,0.0,0.0,0.0,0.0,0.0,0.0,0.0,0.0,0.0,0.0,0.0,0.0,0.0,0.0,0.0,0.0,0.0,0.0,0.0,0.0,0.0,0.0,0.0,0.0,0.0,0.0,0.0,0.0,0.0,0.0,0.0,2.1706,2.2806,2.3359,2.3366,2.3521,2.3586,2.3529,2.2533,2.1978,0.0,0.0,0.0,0.0,0.0,0.0,0.0,0.0,0.0,0.0,0.0,0.0,0.0,0.0,0.0,0.0,0.0,0.0,0.0,0.0,0.0,0.0,0.0,0.0,0.0,0.0,0.0,0.0,0.0,0.0,0.0,0.0,0.0,0.0,0.0,0.0,0.0,0.0,0.0,0.0,0.0,2.2049,2.2332,2.2836,0.0,0.0,0.0,0.0,2.436,2.4505,0.0,0.0,0.0,0.0,0.0,0.0,0.0,0.0,0.0,0.0,0.0,0.0,0.0,0.0,0.0,0.0,0.0,0.0,0.0,0.0,0.0,0.0,0.0,0.0,0.0,0.0,0.0,0.0,0.0,0.0,0.0,0.0,0.0,0.0,0.0,0.0,0.0,0.0,0.0,0.0,0.0,0.0,0.0,0.0,0.0,0.0,0.0,0.0,0.0,0.0,0.0,0.0,0.0,0.0,0.0,0.0,2.1742,2.3374,2.4237,2.4282,2.4985,2.5412,2.5369,2.3785,2.295,0.0,0.0,0.0,0.0,0.0,0.0,0.0,0.0,0.0,0.0,0.0,0.0,0.0,0.0,0.0,0.0,0.0,0.0,0.0,0.0,0.0,0.0,0.0,0.0,0.0,0.0,0.0,0.0,0.0,0.0,0.0,0.0,0.0,0.0,0.0,0.0,0.0,0.0,0.0,0.0,0.0,2.3288,2.4741,2.4443,2.4045,0.0,0.0,2.5262,2.5244,2.5849,0.0,0.0,0.0,0.0,0.0,0.0,0.0,0.0,0.0,0.0,0.0,0.0,0.0,0.0,0.0,0.0,0.0,0.0,0.0,0.0,0.0,0.0,0.0,0.0,0.0,0.0,0.0,0.0,0.0,0.0,0.0,0.0,0.0,0.0,0.0,0.0,0.0,0.0,0.0,0.0,0.0,0.0,0.0,0.0,0.0,0.0,0.0,0.0,0.0,0.0,0.0,0.0,0.0,0.0,0.0,2.1922,2.2474,2.4238,2.5148,2.5141,2.5512,2.5687,2.5629,2.3985,2.3111,0.0,0.0,0.0,0.0,0.0,0.0,0.0,0.0,0.0,0.0,0.0,0.0,0.0,0.0,0.0,0.0,0.0,0.0,0.0,0.0,0.0,0.0,0.0,0.0,0.0,0.0,0.0,0.0,0.0,0.0,0.0,0.0,0.0,0.0,0.0,0.0,0.0,0.0,0.0,0.0,0.0,0.0,2.5302,2.5944,0.0,0.0,0.0,2.7962,2.7014,0.0,0.0,0.0,0.0,0.0,0.0,0.0,0.0,0.0,0.0,0.0,0.0,0.0,0.0,0.0,0.0,0.0,0.0,0.0,0.0,0.0,0.0,0.0,0.0,0.0,0.0,0.0,0.0,0.0,0.0,0.0,0.0,0.0,0.0,0.0,0.0,0.0,0.0,0.0,0.0,0.0,0.0,0.0,0.0,0.0,0.0,0.0,0.0,0.0,0.0,0.0,0.0,0.0,0.0,0.0,0.0,0.0,2.3023,2.4784,2.5805,2.6019,2.6039,2.6117,2.6236,2.4838,0.0,0.0,0.0,0.0,0.0,0.0,0.0,0.0,0.0,0.0,0.0,0.0,0.0,0.0,0.0,0.0,0.0,0.0,0.0,0.0,0.0,0.0,0.0,0.0,0.0,0.0,0.0,1.659,0.0,0.0,0.0,0.0,0.0,0.0,0.0,0.0,0.0,0.0,0.0,0.0,0.0,0.0,2.6133,2.6346,2.7669,2.8711,0.0,0.0,3.0133,2.9102,3.0105,3.0248,0.0,0.0,0.0,0.0,0.0,0.0,0.0,0.0,0.0,0.0,0.0,0.0,0.0,0.0,0.0,0.0,0.0,0.0,0.0,0.0,0.0,0.0,0.0,0.0,0.0,0.0,0.0,0.0,0.0,0.0,0.0,0.0,0.0,0.0,0.0,0.0,0.0,0.0,0.0,0.0,0.0,0.0,0.0,0.0,0.0,0.0,0.0,0.0,0.0,0.0,0.0,0.0,0.0,0.0,2.2951,2.3052,2.4785,2.6117,2.6861,2.6919,2.729,2.8071,2.7215,2.6334,0.0,0.0,0.0,0.0,0.0,0.0,0.0,0.0,0.0,0.0,0.0,0.0,0.0,0.0,0.0,0.0,0.0,0.0,0.0,0.0,0.0,0.0,0.0,0.0,0.0,0.0,0.0,0.0,0.0,0.0,0.0,0.0,0.0,0.0,0.0,0.0,0.0,0.0,0.0,0.0,0.0,2.8124,2.8925,2.9795,3.0588,0.0,3.0917,3.0702,3.136,3.2154,3.2172,3.0497,0.0,0.0,0.0,0.0,0.0,0.0,0.0,0.0,0.0,0.0,0.0,0.0,0.0,0.0,0.0,0.0,0.0,0.0,0.0,0.0,0.0,0.0,0.0,0.0,0.0,0.0,0.0,0.0,0.0,0.0,0.0,0.0,0.0,0.0,0.0,0.0,0.0,0.0,0.0,0.0,0.0,0.0,0.0,0.0,0.0,0.0,0.0,0.0,0.0,0.0,0.0,0.0,0.0,2.4049,2.46,2.6386,2.7464,2.7795,2.7795,2.7932,2.8225,2.742,2.6573,0.0,0.0,0.0,0.0,0.0,0.0,0.0,0.0,0.0,0.0,0.0,0.0,0.0,0.0,0.0,0.0,0.0,0.0,0.0,0.0,0.0,0.0,0.0,0.0,0.0,0.0,0.0,0.0,2.1648,2.1965,2.1774,0.0,0.0,0.0,0.0,0.0,0.0,0.0,0.0,0.0,0.0,2.9274,3.0597,3.1504,0.0,0.0,3.2654,3.254,3.1864,3.2391,3.2172,3.0051,2.9601,0.0,0.0,0.0,0.0,0.0,0.0,0.0,0.0,0.0,0.0,0.0,0.0,0.0,0.0,0.0,0.0,0.0,0.0,0.0,0.0,0.0,0.0,0.0,0.0,0.0,0.0,0.0,0.0,0.0,0.0,0.0,0.0,0.0,0.0,0.0,0.0,0.0,0.0,0.0,0.0,0.0,0.0,0.0,0.0,0.0,0.0,0.0,0.0,0.0,0.0,0.0,0.0,2.4971,2.5576,2.7362,2.842,2.8674,2.8928,2.9142,2.9338,2.9037,2.8437,0.0,0.0,0.0,0.0,0.0,0.0,0.0,0.0,0.0,0.0,0.0,0.0,0.0,0.0,0.0,0.0,0.0,0.0,0.0,0.0,0.0,0.0,0.0,0.0,0.0,0.0,0.0,0.0,2.3461,2.3445,2.2649,0.0,0.0,0.0,0.0,0.0,0.0,0.0,0.0,0.0,0.0,3.0742,3.1609,3.2477,3.3021,3.3015,3.3514,3.3458,3.2331,3.2793,3.2632,3.0659,0.0,0.0,0.0,0.0,0.0,0.0,0.0,0.0,0.0,0.0,0.0,0.0,0.0,0.0,0.0,0.0,0.0,0.0,0.0,0.0,0.0,0.0,0.0,0.0,0.0,0.0,0.0,2.0207,0.0,0.0,2.0186,0.0,0.0,0.0,0.0,0.0,0.0,0.0,0.0,0.0,0.0,0.0,0.0,0.0,0.0,0.0,0.0,0.0,0.0,0.0,0.0,0.0,0.0,2.5576,2.5564,2.746,2.8791,2.9611,3.0353,3.1153,3.1953,3.2678,3.2625,3.1689,0.0,0.0,0.0,0.0,0.0,0.0,0.0,0.0,0.0,0.0,0.0,0.0,0.0,0.0,0.0,0.0,0.0,0.0,0.0,0.0,0.0,0.0,0.0,0.0,0.0,0.0,2.3234,2.4554,2.5156,0.0,0.0,0.0,0.0,0.0,0.0,0.0,0.0,0.0,0.0,3.0887,3.264,3.196,3.256,3.3149,3.3164,3.3179,3.313,3.3026,3.3704,3.3956,0.0,0.0,0.0,0.0,0.0,0.0,0.0,0.0,0.0,0.0,0.0,0.0,0.0,0.0,0.0,0.0,0.0,0.0,0.0,0.0,0.0,0.0,0.0,0.0,0.0,0.0,0.0,2.0089,2.0417,0.0,0.0,0.0,0.0,0.0,0.0,0.0,0.0,0.0,0.0,0.0,2.3422,2.4231,0.0,0.0,0.0,0.0,0.0,0.0,0.0,0.0,0.0,0.0,0.0,0.0,2.7022,2.8181,2.992,3.125,3.209,3.2383,3.2675,3.2966,3.3171,3.2824,3.1861,0.0,0.0,0.0,0.0,0.0,0.0,0.0,0.0,0.0,0.0,0.0,0.0,0.0,0.0,0.0,0.0,0.0,0.0,0.0,0.0,0.0,0.0,0.0,0.0,0.0,2.5085,0.0,0.0,0.0,0.0,0.0,0.0,0.0,0.0,0.0,0.0,0.0,2.9375,3.0646,3.1168,3.2126,3.4047,3.4116,3.435,0.0,0.0,0.0,0.0,0.0,0.0,0.0,0.0,0.0,0.0,0.0,0.0,0.0,0.0,3.2122,2.9313,2.9226,2.9641,2.9679,0.0,0.0,0.0,0.0,0.0,0.0,0.0,0.0,0.0,0.0,0.0,0.0,0.0,0.0,2.1125,0.0,2.1784,0.0,0.0,0.0,0.0,0.0,0.0,0.0,0.0,2.4841,2.5472,2.5252,2.6043,2.6708,0.0,2.7207,2.6304,0.0,0.0,0.0,0.0,0.0,0.0,0.0,0.0,2.8335,2.9494,3.1501,3.2831,3.3378,3.369,3.3846,3.3844,3.4011,3.3625,3.2627,3.1758,3.0675,0.0,0.0,0.0,0.0,0.0,0.0,0.0,0.0,0.0,0.0,0.0,0.0,0.0,0.0,0.0,0.0,0.0,0.0,0.0,0.0,0.0,0.0,0.0,2.6636,0.0,0.0,0.0,0.0,0.0,0.0,0.0,0.0,0.0,2.8589,2.9768,3.1023,3.2053,3.252,3.3325,3.4842,0.0,0.0,0.0,0.0,0.0,0.0,0.0,3.4851,3.4021,3.3898,3.4005,3.426,3.6377,3.7617,3.6208,0.0,0.0,3.205,3.2293,3.286,3.2366,3.3473,3.3895,3.1864,3.2029,3.2493,0.0,0.0,0.0,0.0,0.0,0.0,0.0,0.0,2.3139,2.2691,0.0,2.2836,0.0,0.0,0.0,0.0,2.4335,2.5187,0.0,0.0,2.7479,2.7905,2.7139,2.7984,2.8294,2.815,2.8179,2.8161,2.807,2.7347,0.0,0.0,0.0,0.0,0.0,0.0,2.9467,2.9647,3.2126,3.3456,3.3532,3.4315,3.4725,3.4758,3.527,3.511,3.4164,3.3319,3.2474,3.1642,2.9505,0.0,0.0,0.0,0.0,0.0,0.0,0.0,0.0,0.0,0.0,0.0,0.0,0.0,0.0,0.0,0.0,0.0,0.0,0.0,0.0,2.7768,0.0,0.0,0.0,0.0,0.0,0.0,0.0,0.0,0.0,0.0,2.9741,3.1601,3.2899,3.242,0.0,0.0,0.0,0.0,3.5145,3.3824,3.4201,3.4475,3.3691,3.5485,3.669,3.5801,0.0,0.0,3.7036,4.038,4.1527,3.7704,3.8265,3.8568,3.6113,3.5637,3.57,3.5739,3.6605,3.6408,3.4069,3.3594,3.389,2.692,0.0,0.0,0.0,0.0,2.4463,2.4962,2.577,2.5776,2.5654,2.5419,2.5673,0.0,0.0,0.0,0.0,0.0,0.0,2.6551,2.6723,2.9007,2.9968,2.9822,3.123,3.1601,3.1011,3.0992,3.0989,3.0988,3.0746,2.9341,2.6804,0.0,0.0,0.0,0.0,3.093,3.2243,3.3626,3.4627,3.5249,3.5506,3.5564,3.5494,3.5562,3.5399,3.5032,3.4687,3.3887,3.2513,3.1807,0.0,0.0,0.0,0.0,0.0,0.0,0.0,0.0,0.0,0.0,0.0,0.0,0.0,0.0,0.0,0.0,0.0,0.0,0.0,2.7771,2.8574,2.8766,0.0,0.0,0.0,0.0,0.0,0.0,0.0,0.0,0.0,3.285,3.307,3.3537,0.0,0.0,3.4972,3.674,3.677,3.686,3.7549,3.838,0.0,3.8524,3.8556,3.8331,3.752,3.7398,3.7855,3.9277,4.0489,4.0854,3.9588,4.0346,4.0646,3.9422,3.9056,3.9052,3.9129,3.9374,3.9369,3.8568,3.7475,3.7068,3.1196,2.8926,2.7265,2.6787,2.7137,2.7161,2.7653,2.8471,2.8491,2.8288,2.7968,2.8333,2.7989,2.7172,2.7511,0.0,0.0,0.0,2.9156,2.9598,3.1133,3.1858,3.1953,3.291,3.3144,3.2676,3.2675,3.2688,3.266,3.2322,3.1057,2.8981,0.0,0.0,2.9135,3.0798,3.2221,3.3398,3.4601,3.5467,3.5991,3.601,3.5955,3.5839,3.5689,3.5572,3.5483,3.5296,3.4764,3.3786,3.3138,3.2153,0.0,0.0,0.0,0.0,0.0,0.0,0.0,0.0,0.0,0.0,0.0,2.617,2.5192,0.0,0.0,0.0,2.9206,2.9698,2.9686,2.9874,0.0,0.0,0.0,0.0,0.0,0.0,0.0,3.1952,3.3091,3.4333,3.5698,3.5786,3.5698,3.5649,3.626,3.7325,3.896,0.0,3.8663,3.9294,3.9591,3.9709,3.9656,3.9764,3.9793,3.976,3.935,3.9326,4.0137,4.0336,4.0436,4.0802,4.1539,4.197,4.1481,4.1415,4.1174,4.0639,4.0489,4.0696,4.1343,4.0519,3.9873,3.5477,3.4466,3.0511,2.9231,2.9795,2.9814,3.0302,3.1094,3.1094,3.0605,2.9883,3.0708,3.0618,2.9851,3.0645,0.0,3.2196,3.2217,3.2578,3.3398,3.3476,3.3496,3.3516,3.3574,3.3574,3.3496,3.3496,3.3496,3.3457,3.2715,3.2293,3.2288,3.224,3.1718,3.0839,3.2439,3.3356,3.3513,3.5073,3.5916,3.5994,3.601,3.5985,3.5884,3.5697,3.5612,3.5577,3.5355,3.5209,3.5152,3.3786,3.296,3.2852,0.0,0.0,0.0,0.0,0.0,0.0,0.0,0.0,0.0,0.0,0.0,0.0,0.0,0.0,0.0,3.1644,0.0,3.2209,3.1546,0.0,0.0,0.0,3.1772,3.3407,3.4315,3.5071,3.5806,0.0,0.0,3.8283,3.9143,3.8833,3.6589,3.9419,4.1509,4.0971,4.0693,4.0351,3.9631,3.9032,3.8646,3.8949,3.9841,4.092,4.1723,4.1239,4.046,4.0479,4.01,4.0363,4.1108,4.1953,4.2422,4.2527,4.2422,4.2213,4.0742,4.0662,4.1219,4.2566,4.2412,4.1643,3.752,3.7327,3.6342,3.4586,3.2489,3.2469,3.2613,3.2812,3.2812,3.2676,3.25,3.2695,3.2674,3.2498,3.2668,3.2901,3.31,3.3105,3.3203,3.3437,3.4082,3.4394,3.4414,3.5059,3.5019,3.4414,3.4394,3.4394,3.4375,3.4199,3.4051,3.4008,3.3983,3.3193,3.1764,3.2691,3.3595,3.4311,3.4726,3.5269,3.5974,3.601,3.5978,3.5899,3.5801,3.5685,3.5531,3.5397,3.5324,3.5209,3.484,3.4381,3.3866,3.2138,0.0,0.0,0.0,0.0,0.0,0.0,0.0,0.0,0.0,2.7579,2.6361,0.0,2.9277,0.0,3.24,3.3801,3.3069,3.3473,0.0,0.0,3.3492,3.4155,3.5123,3.6487,3.7162,3.6701,3.7873,3.9065,3.9928,4.077,4.1359,4.1296,4.059,4.0662,4.2163,4.1388,4.0549,4.0453,4.1176,4.1671,4.102,4.1097,4.1452,4.1895,4.1176,4.0946,4.2256,4.0915,4.0042,4.1043,4.1435,4.138,4.0863,4.117,4.1341,4.0668,4.1462,4.2585,4.3008,4.2585,4.1854,3.9503,3.889,3.8957,3.7707,3.5661,3.5717,3.5723,3.5723,3.5703,3.5723,3.5723,3.5703,3.5703,3.5703,3.5723,3.5723,3.5703,3.5723,3.5703,3.5742,3.623,3.6445,3.6445,3.6934,3.6699,3.5859,3.5859,3.5644,3.5293,3.5293,3.5267,3.5232,3.5223,3.454,3.3216,3.3196,3.3476,3.4,3.4431,3.5076,3.5974,3.601,3.5793,3.5376,3.5252,3.4993,3.4484,3.438,3.4306,3.423,3.423,3.4058,3.3662,3.2483,3.1639,0.0,0.0,0.0,0.0,0.0,0.0,0.0,0.0,0.0,0.0,0.0,3.0503,3.0619,3.34,3.4812,3.392,3.4633,3.5093,3.5015,3.5762,3.6717,3.788,3.9092,3.9813,3.9715,4.0771,4.1574,4.174,4.2437,4.3076,4.341,4.1759,4.0863,4.1674,4.1424,4.1281,4.1686,4.2175,4.2494,4.2232,4.2087,4.2066,4.2333,4.1858,4.1781,4.2867,4.2397,4.1776,4.1671,4.1598,4.1513,4.1111,4.1389,4.1604,4.1491,4.1801,4.2141,4.1992,4.1681,4.12,4.1287,3.9937,3.9988,3.9571,3.8849,3.8918,3.8809,3.8613,3.8613,3.8613,3.8613,3.8613,3.8613,3.8613,3.8613,3.8613,3.8613,3.8613,3.8613,3.8613,3.8613,3.8613,3.8613,3.8613,3.8203,3.748,3.7461,3.707,3.6348,3.623,3.6088,3.5986,3.5889,3.5359,3.4436,3.3628,3.3239,3.3301,3.4233,3.5075,3.5821,3.572,3.5298,3.4568,3.4392,3.3973,3.3243,3.3077,3.3009,3.2997,3.2987,3.3093,3.3286,3.2626,3.231,0.0,3.1832,0.0,0.0,0.0,0.0,0.0,0.0,0.0,0.0,3.2067,3.2286,3.2603,3.4644,3.5687,3.503,3.5696,3.6542,3.7401,3.8191,3.9348,4.0916,4.1784,4.2479,4.3109,4.3824,4.3991,4.3181,4.372,4.4047,4.3797,4.2758,4.1813,4.1219,4.1489,4.2008,4.297,4.245,4.2362,4.2814,4.2789,4.2854,4.3232,4.3054,4.2834,4.3113,4.3823,4.3933,4.2562,4.2065,4.2008,4.2208,4.2215,4.2297,4.2325,4.1939,4.1397,4.0792,4.0608,4.0492,4.246,4.1633,4.1696,4.1299,4.0625,4.0678,3.9902,3.8613,3.8613,3.8613,3.8613,3.8613,3.8613,3.8613,3.8613,3.8613,3.8613,3.8613,3.8613,3.8613,3.8613,3.8613,3.8613,3.8613,3.8516,3.8359,3.8359,3.8262,3.8086,3.7383,3.666,3.5915,3.5204,3.4431,3.3574,0.0,0.0,0.0,3.4218,3.4782,3.4916,3.4242,3.3795,3.3573,3.3539,0.0,3.3205,3.3179,3.3109,3.3006,3.2996,0.0,0.0,0.0,0.0,0.0,0.0,0.0,0.0,0.0,0.0,0.0,3.4933,3.4207,3.2987,3.3499,3.4525,3.593,3.6493,3.6997,3.7549,3.8297,3.9141,3.9985,4.0839,4.1737,4.2654,4.346,4.381,4.3208,4.3814,4.3989,4.3258,4.3239,4.347,4.3758,4.3297,4.2989,4.3181,4.2393,4.2162,4.2893,4.297,4.3131,4.3771,4.3685,4.3738,4.4264,4.4297,4.4116,4.4146,4.4279,4.4233,4.3182,4.2449,4.2044,4.2107,4.205,4.2227,4.2313,4.2233,4.1781,4.0735,4.0375,4.0304,4.4664,4.3963,4.3626,4.3288,0.0,4.2591,4.1933,4.1055,4.0234,3.9883,3.9883,3.9883,3.9883,3.9883,3.9883,3.9883,3.9883,3.9883,3.9883,3.9883,3.9883,3.9883,3.9902,3.9863,3.9648,3.9258,3.9238,3.9023,3.8594,3.8164,3.7695,3.7246,3.6791,3.6351,3.5942,3.5915,3.5488,3.4646,3.5097,3.5759,3.6554,3.6207,3.5759,3.5292,3.5286,0.0,0.0,0.0,0.0,0.0,0.0,0.0,0.0,3.5213,0.0,3.6187,3.591,3.6046,3.6803,3.688,3.7216,3.8009,3.8067,3.7192,3.509,3.5739,3.6582,3.7459,3.8307,3.9004,3.9456,4.0184,4.0823,4.1261,4.1693,4.211,4.2517,4.3273,4.3609,4.3236,4.3451,4.3547,4.3143,4.3085,4.3181,4.3451,4.3278,4.3355,4.3855,4.3143,4.2758,4.3566,4.3997,4.4269,4.4512,4.4433,4.4321,4.4591,4.457,4.4496,4.4496,4.4496,4.4364,4.3951,4.352,4.3257,4.323,4.324,4.3258,4.3307,4.3076,4.2831,4.2392,4.172,4.0826,4.6844,4.6085,4.5473,4.5187,4.5036,4.4258,4.3848,4.3594,4.207,0.0,0.0,4.1269,4.1191,4.1191,4.1191,4.1191,4.1191,4.1191,4.1191,4.1191,4.1191,4.1191,4.1191,4.1191,4.084,4.0156,4.0137,3.9766,3.9062,3.8906,3.8828,3.8809,3.8673,3.8606,3.8606,3.8609,3.7975,3.6755,3.6366,3.6929,3.8305,3.8222,3.7793,3.7088,3.709,3.6676,3.5884,3.5821,3.5768,3.5735,3.5708,3.5825,3.6115,3.6124,3.6239,3.6527,3.6566,3.7139,3.842,3.8529,3.9094,4.0427,4.0489,3.9634,3.7585,3.8106,3.8537,3.8517,3.9831,4.0662,4.0681,4.1339,4.1816,4.1816,4.195,4.2085,4.2277,4.2854,4.3374,4.3316,4.3374,4.3239,4.3124,4.3085,4.3181,4.3297,4.3393,4.3605,4.4239,4.4028,4.3835,4.4451,4.4919,4.5245,4.5135,4.4953,4.477,4.4613,4.4524,4.4496,4.4496,4.4496,4.4496,4.4458,4.4496,4.4439,4.4477,4.4355,4.4496,4.4496,4.3989,4.3688,4.4185,4.3359,4.2082,4.7646,4.6922,4.6888,4.6499,4.5874,4.5073,4.4336,4.3633,4.2656,4.2226,4.2187,4.1484,4.1191,4.1191,4.1191,4.1191,4.1191,4.1191,4.1191,4.1191,4.1191,4.1191,4.1191,4.1191,4.1152,4.1016,4.1016,4.0957,4.0742,4.0059,3.9726,3.9629,3.8964,3.8613,3.8613,3.8604,3.8846,3.9318,3.7883,3.7243,3.7476,3.6758,3.6327,3.6191,3.6244,3.614,3.5971,3.5922,3.5791,3.5795,3.5749,3.6319,3.7646,3.7769,3.8389,3.9682,3.9822,3.9923,4.0138,4.0154,4.0254,4.0466,4.0489,4.035,4.0038,4.0077,4.0173,4.0154,4.04,4.0519,4.0577,4.1312,4.1816,4.1893,4.247,4.3162,4.372,4.3912,4.4028,4.3989,4.4124,4.3816,4.3278,4.3143,4.3431,4.3951,4.4143,4.4432,4.5086,4.5336,4.5297,4.5393,4.5509,4.5476,4.5282,4.5151,4.4967,4.4796,4.4605,4.4496,4.4496,4.4496,4.4496,4.4496,4.4496,4.4496,4.4496,4.4496,4.4496,4.4496,4.4308,4.4346,4.4496,4.4146,4.3909,4.811,4.7753,4.7356,4.6997,4.6648,4.5916,4.543,4.5039,4.418,4.3535,4.3066,4.2695,4.2558,4.25,4.207,4.1855,4.1836,4.1387,4.1191,4.1191,4.1191,4.1191,4.1191,4.1191,4.1191,4.1191,4.1191,4.1191,4.1152,4.0801,4.0605,4.0586,4.0195,3.9785,3.9355,3.9744,3.9935,3.9889,3.9108,3.8912,3.9344,3.8957,3.8765,3.8745,3.8771,3.874,3.8709,3.859,3.85,3.8471,3.8357,3.8646,3.9345,3.9403,3.9721,4.0446,4.0489,4.0489,4.0489,4.0489,4.0489,4.0489,4.0489,4.0489,4.0489,4.0489,4.0489,4.0508,4.0893,4.12,4.1219,4.1585,4.1989,4.247,4.2489,4.2758,4.347,4.3643,4.3662,4.3643,4.3643,4.3662,4.3739,4.3739,4.4066,4.4816,4.5009,4.5163,4.5547,4.5586,4.5586,4.5586,4.5586,4.5513,4.5342,4.5194,4.5014,4.4821,4.4613,4.4496,4.4496,4.4496,4.4496,4.4496,4.4496,4.4496,4.4496,4.4496,4.4496,4.4496,4.4496,4.4496,4.4496,4.4496,4.4496,4.8346,4.8333,4.7758,4.7376,4.7187,4.6694,4.6424,4.623,4.5547,4.4922,4.4297,4.3906,4.3711,4.3633,4.2988,4.2695,4.2598,4.2051,4.168,4.1484,4.1484,4.1387,4.1191,4.1191,4.1191,4.1191,4.1191,4.1191,4.1191,4.1191,4.1191,4.1191,4.1191,4.0859,4.0234,4.0801,4.08,4.0209,4.0179,4.0464,4.1069,4.1108,4.1108,4.1108,4.1088,4.1074,4.1017,4.0918,4.0811,4.0723,4.0615,4.0534,4.0504,4.0489,4.0489,4.0489,4.0489,4.0489,4.0489,4.0489,4.0489,4.0489,4.0489,4.0489,4.0489,4.0489,4.0489,4.0566,4.1066,4.1527,4.172,4.1797,4.2162,4.2931,4.2508,4.2547,4.3239,4.3374,4.347,4.3585,4.3682,4.397,4.4412,4.4586,4.4836,4.5393,4.5586,4.5586,4.5586,4.5586,4.5586,4.5586,4.5586,4.5531,4.5362,4.522,4.5087,4.4924,4.4667,4.4578,4.4551,4.4551,4.4496,4.4496,4.4496,4.4496,4.4496,4.4496,4.4496,4.4496,4.4496,4.4496,4.4496,4.4496,4.4496,4.8311,4.8392,4.8217,4.7893,4.7265,4.7239,4.6878,4.6308,4.6152,4.6094,4.582,4.4414,4.375,4.3691,4.3652,4.3574,4.3574,4.3516,4.3008,4.2344,4.2285,4.1914,4.1328,4.123,4.1211,4.123,4.123,4.125,4.1191,4.1191,4.1191,4.1191,4.1191,4.1152,4.1074,4.1133,4.1112,4.099,4.098,4.101,4.1088,4.1108,4.1108,4.1108,4.1108,4.1108,4.1081,4.1019,4.0929,4.0801,4.0723,4.0615,4.0519,4.0489,4.0489,4.0489,4.0508,4.0489,4.0489,4.0489,4.0508,4.0489,4.0489,4.0508,4.0527,4.0508,4.0508,4.0623,4.0623,4.1066,4.1681,4.1854,4.2258,4.3085,4.3066,4.3297,4.4008,4.4182,4.4489,4.5278,4.5163,4.5393,4.5336,4.5355,4.5432,4.5547,4.5586,4.5586,4.5586,4.5586,4.5586,4.5586,4.5586,4.5586,4.555,4.54,4.5262,4.5199,4.4827,4.4685,4.4712,4.4632,4.4496,4.4496,4.4496,4.4496,4.4496,4.4496,4.4496,4.4496,4.4496,4.4496,4.4496,4.4496,4.4496,4.6808,4.6873,4.6864,4.6748,4.6543,4.6571,4.6441,4.6177,4.6167,4.6175,4.6172,4.5488,4.5195,4.5195,4.4707,4.4453,4.4433,4.3945,4.3516,4.3164,4.3164,4.2988,4.2715,4.2676,4.2441,4.1953,4.1914,4.166,4.1269,4.1191,4.1191,4.1191,4.1191,4.1191,4.1191,4.1191,4.1172,4.1112,4.1107,4.1116,4.1111,4.1108,4.1108,4.1108,4.1108,4.1108,4.1104,4.1037,4.0953,4.081,4.0746,4.0629,4.0504,4.0489,4.0489,4.0527,4.0985,4.1043,4.0527,4.0966,4.1043,4.0527,4.0489,4.0681,4.12,4.1277,4.145,4.1873,4.1585,4.1623,4.2412,4.2566,4.2893,4.3624,4.3816,4.4143,4.4951,4.5047,4.524,4.5547,4.5586,4.5586,4.5586,4.5586,4.5586,4.5586,4.5586,4.5586,4.5586,4.5586,4.5586,4.5586,4.5586,4.5586,4.5586,4.5438,4.5322,4.5262,4.5065,4.4895,4.4685,4.4605,4.4496,4.4496,4.4496,4.4496,4.4496,4.4496,4.4496,4.4496,4.4496,4.4496,4.4496,4.4496,4.4496,4.5731,4.5795,4.5805,4.5858,4.5988,4.596,4.6026,4.6112,4.6085,4.6137,4.6214,4.6198,4.6228,4.6191,4.5625,4.5351,4.5254,4.4707,4.4277,4.4082,4.4043,4.3926,4.373,4.3691,4.3379,4.2851,4.2754,4.2324,4.1582,4.1269,4.1191,4.1191,4.1191,4.1191,4.1191,4.1191,4.1172,4.1133,4.1111,4.1103,4.1111,4.1108,4.1108,4.1108,4.1108,4.1108,4.1108,4.1061,4.0961,4.0791,4.0759,4.0649,4.0504,4.0489,4.0604,4.0873,4.1428,4.1655,4.1219,4.1582,4.1636,4.1258,4.1027,4.1219,4.1931,4.2162,4.2547,4.322,4.2854,4.2797,4.3278,4.3431,4.3797,4.4509,4.4643,4.4932,4.549,4.5586,4.5566,4.5586,4.5586,4.5586,4.5586,4.5586,4.5586,4.5586,4.5586,4.5586,4.5586,4.5586,4.5586,4.5586,4.5586,4.5586,4.5586,4.5495,4.54,4.5381,4.526,4.5106,4.4738,4.4632,4.4496,4.4496,4.4496,4.4496,4.4496,4.4496,4.4496,4.4496,4.4496,4.4496,4.4496,4.4496,4.4496,4.5731,4.5795,4.5805,4.5858,4.5988,4.5886,4.5949,4.6162,4.6054,4.6106,4.6228,4.6158,4.6171,4.6289,4.6191,4.6211,4.6211,4.6094,4.5625,4.498,4.4941,4.4492,4.373,4.3711,4.3711,4.3652,4.3633,4.3203,4.2344,4.1621,4.1191,4.125,4.1289,4.123,4.125,4.123,4.1191,4.1191,4.113,4.1103,4.1111,4.1108,4.1108,4.1108,4.1108,4.1108,4.1108,4.1108,4.1008,4.082,4.0801,4.0715,4.0515,4.0508,4.0893,4.1643,4.1835,4.22,4.2701,4.2297,4.2162,4.2662,4.2143,4.2104,4.2912,4.3028,4.3412,4.4182,4.4162,4.4162,4.422,4.4259,4.4566,4.5297,4.547,4.5528,4.5566,4.5586,4.5586,4.5586,4.5586,4.5586,4.5586,4.5586,4.5586,4.5586,4.5586,4.5586,4.5586,4.5586,4.5586,4.5586,4.5586,4.5586,4.5586,4.5568,4.5568,4.555,4.5476,4.5438,4.5106,4.4815,4.4632,4.4496,4.4496,4.4496,4.4496,4.4496,4.4496,4.4496,4.4496,4.4496,4.4496,4.4496,4.4496,4.5754,4.5815,4.5805,4.5819,4.5858,4.58,4.5838,4.5916,4.5877,4.5969,4.6087,4.6104,4.6135,4.6182,4.6221,4.6234,4.623,4.6289,4.6094,4.5801,4.582,4.5664,4.541,4.5351,4.5039,4.459,4.4512,4.4082,4.3301,4.293,4.2793,4.2676,4.2246,4.1973,4.1894,4.1445,4.1191,4.1211,4.1132,4.1111,4.1101,4.1114,4.1108,4.1108,4.1108,4.1108,4.1108,4.1108,4.1008,4.082,4.081,4.0707,4.0573,4.1027,4.172,4.2547,4.3104,4.3316,4.3162,4.3297,4.3278,4.3066,4.2816,4.2989,4.3682,4.3893,4.422,4.4893,4.5124,4.5143,4.5124,4.5124,4.524,4.5509,4.5586,4.5586,4.5586,4.5586,4.5586,4.5586,4.5586,4.5586,4.5586,4.5586,4.5586,4.5586,4.5586,4.5586,4.5586,4.5586,4.5586,4.5586,4.5586,4.5586,4.5586,4.5586,4.5586,4.5586,4.555,4.54,4.5132,4.477,4.4524,4.4496,4.4496,4.4496,4.4496,4.4496,4.4496,4.4496,4.4496,4.4496,4.4496,4.4468,4.4468,4.6568,4.6592,4.6636,4.6631,4.6651,4.6631,4.6477,4.6278,4.6245,4.6187,4.6093,4.6025,4.6061,4.6118,4.6143,4.6141,4.6158,4.623,4.623,4.6171,4.6264,4.6289,4.6269,4.6289,4.5976,4.543,4.5117,4.4687,4.4141,4.3828,4.3711,4.3633,4.3086,4.2832,4.2734,4.2266,4.1914,4.166,4.1543,4.1425,4.1168,4.1099,4.1108,4.1108,4.1108,4.1108,4.1108,4.1108,4.1008,4.0837,4.081,4.0843,4.0977,4.1739,4.2604,4.3431,4.397,4.4237,4.397,4.4179,4.4198,4.3932,4.3662,4.3835,4.4586,4.472,4.5028,4.5432,4.5586,4.5586,4.5586,4.5566,4.5586,4.5586,4.5586,4.5586,4.5586,4.5586,4.5586,4.5586,4.5586,4.5586,4.5586,4.5586,4.5586,4.5586,4.5586,4.5586,4.5586,4.5586,4.5586,4.5586,4.5586,4.5586,4.5586,4.5586,4.5586,4.5586,4.5586,4.5438,4.5218,4.4802,4.4524,4.4496,4.4496,4.4496,4.4496,4.4496,4.4496,4.4496,4.4496,4.4496,4.4468,4.444,4.4411,4.824,4.8176,4.8357,4.8198,4.8159,4.814,4.7865,4.7245,4.7105,4.6796,4.6322,4.6013,4.6073,4.6129,4.6065,4.6002,4.6016,4.6138,4.6162,4.6133,4.6225,4.6269,4.6211,4.6269,4.6289,4.6133,4.543,4.5058,4.498,4.4336,4.3965,4.3848,4.3808,4.3711,4.3691,4.3535,4.3164,4.2598,4.2402,4.2031,4.1269,4.132,4.1364,4.1286,4.1306,4.1345,4.1264,4.1205,4.1125,4.0935,4.0966,4.118,4.1902,4.2662,4.3451,4.4143,4.4355,4.4739,4.5297,4.4778,4.4778,4.5066,4.4739,4.4643,4.5259,4.5451,4.549,4.5566,4.5586,4.5586,4.5586,4.5586,4.5586,4.5586,4.5586,4.5586,4.5586,4.5586,4.5586,4.5586,4.5586,4.5586,4.5586,4.5586,4.5586,4.5586,4.5586,4.5586,4.5586,4.5586,4.5586,4.5586,4.5586,4.5586,4.5586,4.5586,4.5586,4.5586,4.5586,4.5513,4.5321,4.5,4.4587,4.4496,4.4496,4.4496,4.4496,4.4496,4.4496,4.4496,4.4496,4.4515,4.4487,4.443,4.4325,4.8265,4.8311,4.8327,4.8327,4.8327,4.8327,4.8172,4.7967,4.7944,4.7538,4.695,4.6809,4.6531,4.6118,4.6007,4.5955,4.5877,4.5988,4.6074,4.6111,4.6185,4.6248,4.6269,4.6289,4.6289,4.625,4.6035,4.5879,4.582,4.5566,4.5488,4.541,4.4883,4.4609,4.457,4.4023,4.3516,4.334,4.3301,4.3144,4.291,4.2871,4.2884,4.289,4.2895,4.2878,4.2868,4.2318,4.1919,4.1704,4.2257,4.2877,4.3435,4.3778,4.4316,4.5047,4.5182,4.5259,4.549,4.5355,4.5259,4.549,4.5297,4.5316,4.5528,4.5586,4.5586,4.5586,4.5586,4.5586,4.5586,4.5586,4.5586,4.5586,4.5586,4.5586,4.5586,4.5586,4.5586,4.5586,4.5586,4.5586,4.5586,4.5586,4.5586,4.5586,4.5586,4.5586,4.5586,4.5586,4.5586,4.5586,4.5586,4.5586,4.5586,4.5586,4.5586,4.5586,4.5586,4.5586,4.54,4.5045,4.4667,4.4496,4.4496,4.4496,4.4496,4.4496,4.4496,4.4496,4.4496,4.4487,4.4487,4.4401,4.4314,4.9157,4.9222,4.9241,4.9241,4.9258,4.9241,4.9032,4.8767,4.8762,4.8318,4.7747,4.7624,4.7172,4.6573,4.6419,4.6148,4.5838,4.5877,4.6005,4.6099,4.6171,4.6221,4.6275,4.6285,4.6289,4.6289,4.6289,4.6289,4.6289,4.6289,4.6289,4.6172,4.5742,4.5488,4.5449,4.4961,4.4551,4.4238,4.4199,4.4043,4.3769,4.3711,4.371,4.3704,4.3704,4.3702,4.3674,4.3396,4.3078,4.2801,4.3327,4.3921,4.4295,4.4586,4.5028,4.5432,4.5586,4.5586,4.5586,4.5566,4.5586,4.5586,4.5586,4.5586,4.5586,4.5586,4.5586,4.5586,4.5586,4.5586,4.5586,4.5586,4.5586,4.5586,4.5586,4.5586,4.5586,4.5586,4.5586,4.5586,4.5586,4.5586,4.5586,4.5586,4.5586,4.5586,4.5586,4.5586,4.5586,4.5586,4.5586,4.5586,4.5586,4.5586,4.5586,4.5586,4.5586,4.5586,4.5586,4.5586,4.5513,4.4953,4.4496,4.4496,4.4496,4.4496,4.4496,4.4496,4.4496,4.4496,4.4496,4.4515,4.4487,4.4344,4.4195,5.072,5.0793,5.0773,5.0694,5.0728,5.0675,5.0216,4.9637,4.9577,4.9153,4.8569,4.8423,4.7979,4.7384,4.71,4.6612,4.5974,4.58,4.5944,4.6074,4.6164,4.6193,4.625,4.627,4.6289,4.6289,4.6289,4.6289,4.6289,4.6289,4.6289,4.6269,4.623,4.6269,4.6133,4.625,4.5742,4.5137,4.5058,4.4707,4.4062,4.3984,4.3984,4.4004,4.404,4.4056,4.4164,4.4501,4.4383,4.3751,4.4139,4.4427,4.4547,4.5163,4.5547,4.5586,4.5586,4.5586,4.5586,4.5586,4.5586,4.5586,4.5586,4.5586,4.5586,4.5586,4.5586,4.5586,4.5586,4.5586,4.5586,4.5586,4.5586,4.5586,4.5586,4.5586,4.5586,4.5586,4.5586,4.5586,4.5586,4.5586,4.5586,4.5586,4.5586,4.5586,4.5586,4.5586,4.5586,4.5586,4.5586,4.5586,4.5586,4.5586,4.5586,4.5586,4.5586,4.5586,4.5568,4.555,4.5438,4.49,4.4496,4.4496,4.4496,4.4496,4.4496,4.4496,4.4496,4.4496,4.4496,4.4496,4.4411,4.4296,4.4055,5.074,5.0773,5.0757,5.072,5.0738,5.0739,5.0624,5.0394,5.0354,4.9926,4.9401,4.9261,4.8848,4.8149,4.7429,4.6955,4.6665,4.6123,4.5916,4.6073,4.6114,4.6183,4.6269,4.6289,4.6289,4.6289,4.6289,4.6289,4.6289,4.6289,4.6289,4.6289,4.6289,4.6289,4.6289,4.6289,4.6211,4.5996,4.5957,4.584,4.5605,4.5527,4.5625,4.5605,4.5544,4.5536,4.5578,4.5607,4.551,4.5235,4.5198,4.5259,4.522,4.5451,4.5586,4.5586,4.5586,4.5586,4.5586,4.5586,4.5586,4.5586,4.5586,4.5586,4.5586,4.5586,4.5586,4.5586,4.5586,4.5603,4.5586,4.5603,4.5603,4.5586,4.5586,4.5586,4.5586,4.5586,4.5586,4.5586,4.5586,4.5586,4.5586,4.5586,4.5586,4.5586,4.5586,4.5586,4.5586,4.5586,4.5586,4.5586,4.5586,4.5586,4.5586,4.5586,4.5586,4.5586,4.555,4.5458,4.5237,4.4796,4.4578,4.4496,4.4496,4.4496,4.4496,4.4496,4.4496,4.4496,4.4496,4.4496,4.4411,4.4296,4.3974,5.0721,5.0757,5.072,5.072,5.0739,5.072,5.0682,5.0721,5.0739,5.0508,5.0121,5.0077,4.9666,4.8877,4.8369,4.7913,4.7511,4.6728,4.6482,4.6552,4.6332,4.6231,4.6289,4.6289,4.6289,4.6289,4.6289,4.6289,4.6289,4.6289,4.6289,4.6289,4.6289,4.6289,4.6289,4.6289,4.6289,4.6289,4.6289,4.6289,4.6289,4.6289,4.6289,4.6289,4.6287,4.628,4.6186,4.6013,4.5886,4.5802,4.568,4.5586,4.5586,4.5586,4.5586,4.5586,4.5586,4.5586,4.5586,4.5586,4.5586,4.5586,4.5586,4.5586,4.5586,4.5586,4.5586,4.5586,4.5586,4.562,4.5637,4.5635,4.5637,4.5603,4.5586,4.5586,4.5586,4.5586,4.5586,4.5586,4.5586,4.5586,4.5586,4.5586,4.5586,4.5586,4.5586,4.5586,4.5586,4.5586,4.5586,4.5586,4.5586,4.5586,4.5586,4.5586,4.5586,4.5586,4.5568,4.5477,4.5084,4.4738,4.4624,4.4515,4.4515,4.4496,4.4496,4.4496,4.4496,4.4496,4.4496,4.4468,4.4411,4.4325,4.3974,5.0702,5.0682,5.0683,5.0721,5.0757,5.072,5.0682,5.0701,5.0738,5.072,5.0663,5.0773,5.0364,4.9679,4.9396,4.908,4.8435,4.7622,4.726,4.7065,4.6758,4.6484,4.6289,4.6289,4.6289,4.6289,4.6289,4.6289,4.6289,4.6289,4.6289,4.6289,4.6289,4.6289,4.6289,4.6289,4.6289,4.6289,4.6289,4.6289,4.6289,4.6289,4.6289,4.6289,4.6289,4.623,4.6128,4.5986,4.593,4.5893,4.5703,4.5603,4.5586,4.5586,4.5586,4.5586,4.5586,4.5586,4.5586,4.5586,4.5586,4.5586,4.5586,4.5586,4.5586,4.5586,4.5603,4.5601,4.5603,4.5635,4.568,4.5696,4.57,4.5651,4.5618,4.5603,4.5603,4.5603,4.5586,4.5586,4.5586,4.5586,4.5586,4.5586,4.5586,4.5586,4.5586,4.5586,4.5586,4.5586,4.5586,4.5586,4.5586,4.5586,4.5586,4.5586,4.5586,4.5586,4.5586,4.5457,4.5038,4.4757,4.4643,4.4589,4.4616,4.457,4.4496,4.4496,4.4496,4.4496,4.4496,4.4496,4.4468,4.4354,4.4116,5.0702,5.0683,5.0683,5.0721,5.0721,5.0702,5.0683,5.0702,5.072,5.0739,5.0793,5.0893,5.0851,5.0684,5.0055,4.9616,4.9359,4.8546,4.7863,4.7323,4.7383,4.6875,4.6465,4.6328,4.6289,4.6289,4.6289,4.6289,4.6289,4.6289,4.6289,4.6289,4.6289,4.6289,4.6289,4.6289,4.6289,4.6289,4.6289,4.6289,4.6289,4.6289,4.6289,4.6289,4.6289,4.6269,4.6177,4.6095,4.6011,4.5882,4.5726,4.5603,4.5603,4.5586,4.5586,4.5586,4.5586,4.5586,4.5603,4.5603,4.5603,4.5603,4.562,4.5586,4.5586,4.5603,4.5618,4.5651,4.5684,4.5696,4.5757,4.5786,4.5757,4.5742,4.5696,4.5684,4.5668,4.5618,4.5603,4.5586,4.5586,4.5586,4.5586,4.5586,4.5586,4.5586,4.5586,4.5586,4.5586,4.5586,4.5586,4.5586,4.5586,4.5586,4.5586,4.5586,4.5586,4.5586,4.5586,4.5568,4.5132,4.484,4.4782,4.4749,4.4734,4.4643,4.4515,4.4496,4.4496,4.4496,4.4496,4.4496,4.4468,4.4383,4.4325,5.0683,5.0683,5.0683,5.0683,5.0683,5.0683,5.0683,5.0683,5.0682,5.072,5.0776,5.0827,5.088,5.0902,5.0507,5.0317,5.0143,4.9482,4.8728,4.8088,4.7773,4.7344,4.6894,4.6504,4.6289,4.6289,4.6289,4.6289,4.6289,4.6289,4.6289,4.6289,4.6289,4.6289,4.6289,4.6289,4.6289,4.6289,4.6289,4.6289,4.6289,4.6289,4.6289,4.6289,4.6289,4.6278,4.6197,4.6143,4.6053,4.5932,4.575,4.5618,4.5603,4.5586,4.5586,4.5586,4.5586,4.5586,4.5603,4.5637,4.5654,4.5654,4.5668,4.57,4.57,4.57,4.5715,4.5727,4.5742,4.5752,4.58,4.5841,4.5841,4.58,4.5771,4.5742,4.5727,4.5651,4.5586,4.5586,4.5586,4.5586,4.5586,4.5586,4.5586,4.5586,4.5586,4.5586,4.5586,4.5586,4.5586,4.5586,4.5586,4.5586,4.5586,4.5586,4.5586,4.5586,4.5586,4.5568,4.54,4.5151,4.4981,4.4884,4.4757,4.4643,4.4515,4.4515,4.4496,4.4515,4.4515,4.4515,4.4468,4.444,4.4411,5.0683,5.0683,5.0683,5.0683,5.0682,5.0682,5.0701,5.072,5.0718,5.0757,5.074,5.0757,5.0825,5.081,5.0883,5.0941,5.0778,5.0403,4.9709,4.8955,4.8228,4.7793,4.7383,4.6738,4.6289,4.6289,4.6289,4.6289,4.6289,4.6289,4.6289,4.6289,4.6289,4.6289,4.6289,4.6289,4.6289,4.6289,4.6289,4.6289,4.6289,4.6289,4.6289,4.6289,4.6289,4.6261,4.6195,4.613,4.6064,4.5975,4.5827,4.5715,4.5637,4.5603,4.5586,4.5586,4.5586,4.5586,4.5603,4.5651,4.568,4.5715,4.5757,4.58,4.58,4.5786,4.58,4.5827,4.5822,4.5854,4.5841,4.5893,4.5893,4.5854,4.5841,4.5827,4.58,4.5715,4.5651,4.5601,4.5618,4.5618,4.5603,4.5586,4.5586,4.5586,4.5586,4.5586,4.5586,4.5586,4.5586,4.5586,4.5586,4.5586,4.5586,4.5586,4.5586,4.5586,4.5586,4.5531,4.5513,4.54,4.5173,4.4876,4.4726,4.4648,4.4613,4.4613,4.4613,4.4551,4.4605,4.4685,4.4632,4.4524,4.4496,5.0683,5.0683,5.0683,5.0702,5.0702,5.0683,5.072,5.0789,5.0764,5.0839,5.0835,5.0947,5.0923,5.1015,5.1042,5.1081,5.1093,5.0903,5.0541,4.9784,4.9043,4.8437,4.7656,4.6914,4.6406,4.6289,4.6289,4.6289,4.6289,4.6289,4.6289,4.6289,4.6289,4.6289,4.6289,4.6289,4.6289,4.6289,4.6289,4.6289,4.6289,4.6289,4.6289,4.6285,4.6265,4.6222,4.6181,4.6119,4.6033,4.5929,4.5873,4.58,4.5715,4.5635,4.562,4.5603,4.562,4.562,4.5637,4.5668,4.568,4.5696,4.5771,4.5814,4.5814,4.5814,4.5835,4.5873,4.5922,4.5944,4.5956,4.5975,4.5975,4.5953,4.5929,4.5873,4.5861,4.5808,4.5742,4.5696,4.57,4.5668,4.5635,4.562,4.5603,4.5603,4.5586,4.5586,4.5586,4.5586,4.5586,4.5586,4.5586,4.5586,4.5586,4.5586,4.5586,4.5586,4.5586,4.5495,4.5495,4.5513,4.5361,4.5115,4.4938,4.4868,4.4838,4.4783,4.4751,4.4745,4.4796,4.487,4.4789,4.4659,4.4551,5.0683,5.0683,5.0683,5.0683,5.0683,5.0683,5.0469,5.0132,5.0135,5.0152,5.0182,5.0271,5.0569,5.0898,5.1062,5.118,5.1284,5.1268,5.1073,5.0561,4.9922,4.9121,4.8203,4.7363,4.6738,4.6426,4.6289,4.6289,4.6289,4.6289,4.6289,4.6289,4.6289,4.6289,4.6289,4.6289,4.6289,4.6289,4.6289,4.6289,4.6289,4.6289,4.6289,4.6254,4.6216,4.6211,4.6191,4.6134,4.6094,4.6022,4.5929,4.5861,4.5794,4.5742,4.5684,4.5668,4.5684,4.57,4.5715,4.5757,4.5794,4.5827,4.5867,4.5886,4.5898,4.5917,4.5917,4.5933,4.5956,4.5977,4.5977,4.5977,4.5977,4.5997,4.5956,4.5964,4.5953,4.591,4.5848,4.58,4.5771,4.5727,4.5668,4.5671,4.5637,4.562,4.5603,4.5586,4.5586,4.5586,4.5586,4.5586,4.5586,4.5586,4.5586,4.5586,4.5586,4.5586,4.5586,4.5495,4.5495,4.5531,4.5531,4.5419,4.5283,4.5118,4.5026,4.4948,4.4948,4.4948,4.4991,4.5033,4.4914,4.4815,4.4719,5.0433,5.0433,5.0433,5.0337,5.0183,5.0183,4.9796,4.9324,4.923,4.9247,4.9293,4.9351,4.9749,5.0356,5.0759,5.1039,5.1342,5.1335,5.1299,5.1146,5.0469,4.9687,4.8848,4.8008,4.7129,4.6367,4.6289,4.6289,4.6289,4.6289,4.6289,4.6289,4.6289,4.6289,4.6289,4.6289,4.6289,4.6289,4.6289,4.6289,4.6289,4.6289,4.6264,4.6192,4.6201,4.6182,4.6153,4.6104,4.6085,4.6044,4.6003,4.5917,4.5905,4.5867,4.5794,4.5757,4.5786,4.58,4.5814,4.5867,4.5873,4.5873,4.5944,4.5986,4.5997,4.5966,4.5977,4.5977,4.5977,4.5977,4.5977,4.5977,4.5977,4.5997,4.5997,4.5997,4.5997,4.5956,4.5944,4.5898,4.5848,4.5814,4.5761,4.5684,4.5651,4.562,4.5586,4.5586,4.5586,4.5586,4.5586,4.5586,4.5586,4.5586,4.5586,4.5586,4.5586,4.5586,4.5586,4.5568,4.5568,4.5586,4.5568,4.5531,4.5457,4.5262,4.5197,4.5132,4.5118,4.5118,4.5194,4.5213,4.5194,4.5109,4.5023,4.9548,4.9548,4.9548,4.9125,4.8529,4.8509,4.8467,4.8446,4.8484,4.8515,4.8502,4.865,4.8771,4.9185,4.9955,5.065,5.1147,5.1382,5.1372,5.1265,5.0605,4.9766,4.8808,4.8008,4.7187,4.6465,4.6289,4.6289,4.6289,4.6289,4.6289,4.6289,4.6289,4.6289,4.6289,4.6289,4.6289,4.6289,4.6289,4.6289,4.6289,4.623,4.6211,4.618,4.6143,4.6124,4.6124,4.6055,4.6016,4.5997,4.5997,4.5964,4.5929,4.5964,4.5922,4.5873,4.5822,4.58,4.5808,4.5861,4.5898,4.591,4.5956,4.5977,4.5977,4.5977,4.5977,4.5977,4.5977,4.5977,4.5977,4.5977,4.5977,4.5977,4.5977,4.5977,4.5977,4.5997,4.5966,4.5966,4.5922,4.5893,4.5827,4.5761,4.5684,4.5637,4.5586,4.5603,4.5586,4.5586,4.5586,4.5586,4.5586,4.5586,4.5586,4.5586,4.5586,4.5586,4.5586,4.5586,4.5586,4.5586,4.5586,4.5568,4.5476,4.5438,4.5341,4.5283,4.5285,4.5304,4.5341,4.5438,4.5532,4.5438,4.5282,4.8259,4.8663,4.8644,4.8452,4.8125,4.8105,4.7869,4.7603,4.7561,4.7573,4.7594,4.7655,4.7998,4.8642,4.9612,5.024,5.0677,5.1125,5.1394,5.1401,5.0894,5.0074,4.9004,4.8379,4.7695,4.6543,4.6289,4.6289,4.6289,4.6289,4.6289,4.6289,4.6289,4.6289,4.6289,4.6289,4.6289,4.6289,4.6289,4.6289,4.6269,4.623,4.6206,4.6202,4.6124,4.6085,4.6035,4.6016,4.5977,4.5977,4.5977,4.5986,4.5975,4.5986,4.5966,4.5944,4.5922,4.591,4.5929,4.5933,4.5933,4.5944,4.5986,4.5997,4.5977,4.5977,4.5977,4.5977,4.5977,4.5977,4.5977,4.5977,4.5977,4.5977,4.5977,4.5977,4.5977,4.5977,4.5977,4.5977,4.5997,4.5953,4.5893,4.5814,4.5727,4.5651,4.562,4.562,4.5603,4.5586,4.5586,4.5586,4.5586,4.5586,4.5586,4.5586,4.5586,4.5586,4.5586,4.5586,4.5586,4.5586,4.5586,4.5586,4.555,4.5513,4.5457,4.5438,4.5437,4.5475,4.5531,4.5568,4.5586,4.5586,4.5476,4.6932,4.749,4.7702,4.7702,4.7471,4.7471,4.7139,4.6684,4.6664,4.6696,4.6718,4.6842,4.7381,4.8254,4.8997,4.9508,5.0092,5.0735,5.1164,5.13,5.1191,5.0342,4.925,4.8633,4.7871,4.6289,4.6289,4.6289,4.6289,4.6289,4.6289,4.6289,4.6289,4.6289,4.6289,4.6289,4.6289,4.6289,4.6269,4.6269,4.625,4.6211,4.6186,4.6158,4.6104,4.6035,4.5997,4.5977,4.5977,4.5977,4.5977,4.5997,4.5997,4.5997,4.5997,4.5977,4.5966,4.5966,4.5966,4.5977,4.5997,4.5977,4.5977,4.5977,4.5977,4.5977,4.5977,4.5977,4.5977,4.5977,4.5977,4.5977,4.5977,4.5977,4.5977,4.5977,4.5977,4.5977,4.5977,4.5977,4.5977,4.5977,4.5933,4.5861,4.5766,4.5684,4.5635,4.5618,4.562,4.5603,4.5586,4.5586,4.5586,4.5586,4.5586,4.5586,4.5586,4.5586,4.5586,4.5586,4.5586,4.5586,4.5586,4.5586,4.5586,4.5586,4.5531,4.5568,4.5586,4.5586,4.5568,4.5586,4.5586,4.5586,4.5586,4.5701,4.5836,4.6663,4.6567,4.5855,4.5759,4.5776,4.5863,4.5955,4.6035,4.6131,4.6222,4.6792,4.7474,4.7903,4.867,4.9898,5.0053,5.0463,5.0969,5.1183,5.0139,4.9107,4.8391,4.7893,4.654,4.6289,4.6289,4.6289,4.6289,4.6289,4.6289,4.6289,4.6289,4.6289,4.6289,4.6289,4.6278,4.6254,4.6227,4.6196,4.6158,4.6128,4.6113,4.6035,4.5997,4.5977,4.5977,4.5977,4.5977,4.5977,4.5977,4.5977,4.5977,4.5977,4.5977,4.5977,4.5977,4.5977,4.5977,4.5977,4.5977,4.5977,4.5977,4.5977,4.5977,4.5977,4.5977,4.5977,4.5977,4.5977,4.5977,4.5977,4.5977,4.5977,4.5977,4.5977,4.5977,4.5977,4.5977,4.5977,4.5977,4.5997,4.591,4.5886,4.578,4.5696,4.5665,4.5635,4.5601,4.5603,4.5586,4.5586,4.5586,4.5586,4.5586,4.5586,4.5586,4.5586,4.5586,4.5586,4.5586,4.5586,4.5586,4.5586,4.5586,4.5586,4.5586,4.5586,4.5586,4.5586,4.5586,4.5586,4.5586,4.5586,4.5586,4.5624,4.5951,4.5913,4.5603,4.5648,4.568,4.5677,4.5822,4.5922,4.5977,4.6075,4.6302,4.6753,4.7326,4.7793,4.8514,4.9079,4.9469,4.9625,4.9605,4.904,4.83,4.7878,4.7365,4.6472,4.6269,4.6289,4.6289,4.6289,4.6289,4.6289,4.6289,4.6289,4.6289,4.6289,4.6289,4.6248,4.6219,4.6201,4.6183,4.6141,4.6115,4.6105,4.6035,4.5997,4.5977,4.5977,4.5977,4.5977,4.5977,4.5977,4.5977,4.5977,4.5977,4.5977,4.5977,4.5977,4.5977,4.5977,4.5977,4.5977,4.5977,4.5977,4.5977,4.5977,4.5977,4.5977,4.5977,4.5977,4.5977,4.5977,4.5977,4.5977,4.5977,4.5977,4.5977,4.5977,4.5977,4.5977,4.5977,4.5977,4.5997,4.5975,4.5944,4.591,4.5808,4.5708,4.5665,4.5618,4.5603,4.5586,4.5586,4.5586,4.5586,4.5586,4.5586,4.5586,4.5586,4.5586,4.5586,4.5586,4.5586,4.5586,4.5586,4.5586,4.5586,4.5586,4.5586,4.5586,4.5586,4.5586,4.5586,4.5586,4.5586,4.562,4.5635,4.5635,4.5635,4.5632,4.5673,4.5733,4.5756,4.5898,4.5977,4.6074,4.6074,4.6099,4.6383,4.6761,4.7326,4.7676,4.8164,4.8553,4.8806,4.8865,4.8261,4.7754,4.7391,4.7145,4.6398,4.623,4.6269,4.6289,4.6289,4.6289,4.6289,4.6289,4.6289,4.6289,4.6289,4.6261,4.621,4.6201,4.6201,4.6162,4.6104,4.6075,4.6074,4.6016,4.5997,4.5977,4.5977,4.5977,4.5977,4.5977,4.5977,4.5977,4.5977,4.5977,4.5977,4.5977,4.5977,4.5977,4.5977,4.5977,4.5977,4.5977,4.5977,4.5977,4.5977,4.5977,4.5977,4.5977,4.5977,4.5977,4.5977,4.5977,4.5977,4.5977,4.5977,4.5977,4.5977,4.5977,4.5977,4.5977,4.5977,4.5997,4.5986,4.5964,4.591,4.5794,4.5727,4.5665,4.5635,4.5603,4.5586,4.5586,4.5586,4.5586,4.5586,4.5586,4.5586,4.5586,4.5586,4.5586,4.5586,4.5586,4.5586,4.5586,4.5586,4.5586,4.5586,4.5586,4.5586,4.5586,4.5586,4.5586,4.5586,4.5586,4.5651,4.5684,4.5703,4.5703,4.5718,4.5718,4.5775,4.5898,4.5968,4.6074,4.6162,4.6169,4.6169,4.6215,4.641,4.6741,4.7209,4.7462,4.7813,4.828,4.8261,4.8047,4.7657,4.7209,4.6858,4.6371,4.6215,4.6241,4.6289,4.6289,4.6289,4.6289,4.6289,4.6289,4.6289,4.6289,4.6257,4.6211,4.6201,4.6162,4.6104,4.6035,4.6016,4.6016,4.6016,4.5977,4.5977,4.5977,4.5977,4.5977,4.5977,4.5977,4.5977,4.5977,4.5977,4.5977,4.5977,4.5977,4.5977,4.5977,4.5977,4.5977,4.5977,4.5977,4.5977,4.5977,4.5977,4.5977,4.5977,4.5977,4.5977,4.5977,4.5977,4.5977,4.5977,4.5977,4.5977,4.5977,4.5977,4.5977,4.5977,4.5977,4.5977,4.5997,4.5944,4.5886,4.578,4.5727,4.5665,4.5635,4.5603,4.5586,4.5586,4.5586,4.5586,4.5586,4.5586,4.5586,4.5586,4.5586,4.5586,4.5586,4.5586,4.5586,4.5586,4.5586,4.5586,4.5586,4.5586,4.5586,4.5586,4.5586,4.5586,4.5586,4.5586,4.5692,4.5699,4.5789,4.5854,4.5894,4.5894,4.5917,4.5988,4.6074,4.6162,4.6196,4.6196,4.6196,4.6196,4.6215,4.6391,4.6605,4.6644,4.6975,4.7072,4.7209,4.6936,4.6702,4.6702,4.6507,4.6293,4.6209,4.6201,4.6217,4.6268,4.6289,4.6289,4.6269,4.625,4.623,4.6215,4.6191,4.6134,4.6124,4.6104,4.6035,4.5997,4.5977,4.5977,4.5977,4.5977,4.5977,4.5977,4.5977,4.5977,4.5977,4.5977,4.5977,4.5977,4.5977,4.5977,4.5977,4.5977,4.5977,4.5977,4.5977,4.5977,4.5977,4.5977,4.5977,4.5977,4.5977,4.5977,4.5977,4.5977,4.5977,4.5977,4.5977,4.5977,4.5977,4.5977,4.5977,4.5977,4.5977,4.5977,4.5977,4.5977,4.5977,4.5997,4.5956,4.591,4.5822,4.5757,4.5715,4.5635,4.5586,4.5586,4.5586,4.5586,4.5586,4.5586,4.5586,4.5586,4.5586,4.5586,4.5586,4.5586,4.5586,4.5586,4.5586,4.5586,4.5586,4.5586,4.5586,4.5586,4.5586,4.5586,4.5586,4.5586,4.5586,4.5713,4.5794,4.5879,4.5988,4.6046,4.6017,4.6017,4.6083,4.6162,4.6196,4.6196,4.6196,4.6196,4.6196,4.6196,4.6196,4.6196,4.6215,4.6215,4.6196,4.6235,4.6293,4.6274,4.6196,4.6274,4.6196,4.6203,4.6195,4.6206,4.6267,4.6289,4.625,4.6244,4.6192,4.6183,4.6163,4.6173,4.6143,4.6124,4.6055,4.6016,4.5977,4.5977,4.5977,4.5977,4.5977,4.5977,4.5977,4.5977,4.5977,4.5977,4.5977,4.5977,4.5977,4.5977,4.5977,4.5977,4.5977,4.5977,4.5977,4.5977,4.5977,4.5977,4.5977,4.5977,4.5977,4.5977,4.5977,4.5997,4.5997,4.5997,4.5997,4.5977,4.5977,4.5977,4.5977,4.5977,4.5977,4.5977,4.5977,4.5977,4.5977,4.5997,4.5997,4.5986,4.5922,4.5861,4.5814,4.5761,4.5684,4.562,4.562,4.5603,4.5586,4.5586,4.5586,4.5586,4.5586,4.5586,4.5586,4.5586,4.5586,4.5586,4.5586,4.5586,4.5586,4.5586,4.5586,4.5586,4.5586,4.5586,4.5586,4.5586,4.5586,4.5586,4.5789,4.5898,4.5988,4.6083,4.6162,4.6074,4.6083,4.6196,4.6196,4.6196,4.6196,4.6196,4.6196,4.6196,4.6196,4.6196,4.6196,4.6196,4.6196,4.6196,4.6196,4.6196,4.6196,4.6196,4.6196,4.6196,4.6209,4.6215,4.6206,4.6248,4.625,4.6216,4.6192,4.6162,4.6143,4.6143,4.6143,4.6104,4.6085,4.6035,4.6016,4.5977,4.5977,4.5977,4.5977,4.5977,4.5977,4.5977,4.5977,4.5977,4.5977,4.5977,4.5977,4.5977,4.5977,4.5977,4.5977,4.5977,4.5977,4.5977,4.5977,4.5977,4.5977,4.5977,4.6055,4.6113,4.621,4.6171,4.6152,4.6074,4.6016,4.5997,4.5977,4.5977,4.5977,4.5977,4.5977,4.5977,4.5977,4.5977,4.5977,4.5977,4.5977,4.5997,4.5997,4.5975,4.5922,4.5886,4.5827,4.5731,4.5684,4.5668,4.5635,4.5603,4.5586,4.5603,4.5586,4.5586,4.5586,4.5586,4.5586,4.5586,4.5586,4.5586,4.5586,4.5586,4.5586,4.5586,4.5586,4.5586,4.5586,4.5586,4.5586,4.5586,4.5586,4.5928,4.5978,4.6091,4.6162,4.6196,4.6162,4.6162,4.6196,4.6196,4.6196,4.6196,4.6196,4.6196,4.6196,4.6196,4.6196,4.6196,4.6196,4.6196,4.6196,4.6196,4.6196,4.6196,4.6196,4.6196,4.6196,4.6209,4.6201,4.6202,4.6234,4.6235,4.6192,4.6162,4.6124,4.6104,4.6085,4.6055,4.6035,4.6035,4.6016,4.6016,4.5997,4.5977,4.5977,4.5977,4.5977,4.5977,4.5977,4.5977,4.5977,4.5977,4.5977,4.5977,4.5977,4.5977,4.5977,4.5977,4.5977,4.5977,4.5977,4.5977,4.6016,4.6035,4.5997,4.6133,4.6346,4.6482,4.6424,4.6366,4.6307,4.6094,4.5997,4.5977,4.5977,4.5977,4.5977,4.5977,4.5977,4.5977,4.5977,4.5977,4.5977,4.5977,4.5997,4.5997,4.5997,4.5986,4.5964,4.5917,4.58,4.5742,4.5727,4.5684,4.5654,4.5622,4.5622,4.5603,4.5586,4.5586,4.5586,4.5586,4.5586,4.5586,4.5586,4.5586,4.5586,4.5586,4.5586,4.5586,4.5586,4.5586,4.5586,4.5586,4.5586,4.5586,4.5979,4.6008,4.6154,4.6196,4.6196,4.6196,4.6196,4.6196,4.6196,4.6196,4.6196,4.6196,4.6196,4.6196,4.6196,4.6196,4.6196,4.6196,4.6196,4.6196,4.6196,4.6196,4.6196,4.6196,4.6196,4.6196,4.6196,4.6211,4.621,4.6214,4.6199,4.6162,4.6124,4.6104,4.6055,4.6035,4.5997,4.5997,4.5997,4.5977,4.5977,4.5977,4.5977,4.5977,4.5977,4.5977,4.5977,4.5977,4.5977,4.5977,4.5977,4.5977,4.5977,4.5977,4.5977,4.5977,4.5977,4.5977,4.5977,4.5977,4.5977,4.6094,4.6268,4.6288,4.6191,4.6268,4.6502,4.6618,4.6618,4.654,4.6249,4.5977,4.5977,4.5977,4.5977,4.5977,4.5977,4.5977,4.5977,4.5977,4.5977,4.5977,4.5977,4.5977,4.5977,4.5997,4.5997,4.5986,4.5933,4.5873,4.5827,4.5819,4.5761,4.5703,4.5671,4.564,4.564,4.5603,4.5586,4.5586,4.5586,4.5586,4.5586,4.5586,4.5586,4.5586,4.5586,4.5586,4.5586,4.5586,4.5586,4.5586,4.5586,4.5586,4.5586,4.6008,4.6017,4.6154,4.6196,4.6196,4.6196,4.6196,4.6196,4.6196,4.6196,4.6196,4.6196,4.6196,4.6196,4.6196,4.6196,4.6196,4.6196,4.6196,4.6196,4.6196,4.6196,4.6196,4.6196,4.6196,4.6196,4.6209,4.6199,4.6207,4.6195,4.6171,4.6124,4.6104,4.6055,4.6016,4.5997,4.5977,4.5977,4.5977,4.5977,4.5977,4.5977,4.5977,4.5977,4.5977,4.5977,4.5977,4.5977,4.5977,4.5977,4.5977,4.5977,4.5977,4.5977,4.5977,4.5977,4.5977,4.5977,4.5977,4.5977,4.6133,4.6366,4.6754,4.6793,4.6735,4.6851,4.7162,4.6715,4.6599,4.6463,4.6191,4.6035,4.5977,4.5977,4.5977,4.5977,4.5977,4.5977,4.5977,4.5977,4.5977,4.5977,4.5977,4.5977,4.5977,4.5977,4.5977,4.5977,4.5966,4.5922,4.5898,4.588,4.58,4.5746,4.57,4.5668,4.5654,4.5637,4.5603,4.5586,4.5586,4.5586,4.5586,4.5586,4.5586,4.5586,4.5586,4.5586,4.5586,4.5586,4.5586,4.5586,4.5586,4.5586,4.5586,4.6154,4.6162,4.6196,4.6196,4.6196,4.6196,4.6196,4.6196,4.6196,4.6196,4.6196,4.6196,4.6196,4.6196,4.6196,4.6196,4.6196,4.6196,4.6196,4.6196,4.6196,4.6196,4.6196,4.6196,4.6203,4.6196,4.6201,4.6187,4.6181,4.616,4.6134,4.6104,4.6055,4.5997,4.5977,4.5977,4.5977,4.5977,4.5977,4.5977,4.5977,4.5977,4.5977,4.5977,4.5977,4.5977,4.5977,4.5977,4.5977,4.5977,4.5977,4.5977,4.5977,4.5977,4.5977,4.5977,4.5977,4.5977,4.5977,4.6035,4.621,4.6482,4.6832,4.722,4.7512,4.7803,4.7628,4.6968,4.6482,4.6327,4.6191,4.6074,4.5977,4.5977,4.5977,4.5977,4.5977,4.5977,4.5977,4.5977,4.5977,4.5977,4.5977,4.5977,4.5977,4.5977,4.5977,4.5977,4.5977,4.5956,4.5936,4.591,4.5835,4.5766,4.5723,4.5696,4.5684,4.5637,4.5603,4.5586,4.5586,4.5586,4.5586,4.5586,4.5586,4.5586,4.5586,4.5586,4.5586,4.5586,4.5586,4.5586,4.5586,4.5586,4.5586,4.5845,4.6176,4.6196,4.6196,4.6196,4.6196,4.6196,4.6196,4.6196,4.6196,4.6196,4.6196,4.6196,4.6196,4.6196,4.6196,4.6196,4.6196,4.6196,4.6196,4.6196,4.6196,4.6196,4.6203,4.6195,4.6206,4.6165,4.6163,4.6163,4.6104,4.6046,4.6035,4.5997,4.5977,4.5977,4.5977,4.5977,4.5977,4.5977,4.5977,4.5977,4.5977,4.5977,4.5977,4.5977,4.5977,4.5977,4.5977,4.5977,4.5977,4.5977,4.5977,4.5977,4.5977,4.5977,4.5977,4.5977,4.5977,4.5977,4.6074,4.6268,4.6482,4.6909,4.7298,4.6871,4.7104,4.755,4.6948,4.6385,4.6152,4.6094,4.5997,4.5977,4.5977,4.5977,4.5977,4.5977,4.5977,4.5977,4.5977,4.5977,4.5977,4.5977,4.5977,4.5977,4.5977,4.5977,4.5977,4.5977,4.5977,4.5977,4.5947,4.5879,4.5822,4.5766,4.5723,4.5696,4.5651,4.5603,4.5586,4.5586,4.5586,4.5586,4.5586,4.5586,4.5586,4.5586,4.5586,4.5586,4.5586,4.5586,4.5586,4.5586,4.5586,4.5586,4.5222,4.5981,4.602,4.6098,4.6196,4.6196,4.6196,4.6196,4.6196,4.6196,4.6196,4.6196,4.6196,4.6196,4.6196,4.6196,4.6196,4.6196,4.6196,4.6196,4.6196,4.6216,4.6203,4.6209,4.6195,4.6171,4.6128,4.6118,4.6124,4.6055,4.5997,4.5997,4.5977,4.5977,4.5977,4.5977,4.5977,4.5977,4.5977,4.5977,4.5977,4.5977,4.5977,4.5977,4.5977,4.5977,4.5977,4.5977,4.5977,4.5977,4.5977,4.5977,4.5977,4.5977,4.5977,4.5977,4.5977,4.5977,4.5977,4.5997,4.6133,4.6366,4.6909,4.6909,4.6482,4.6579,4.7026,4.6871,4.6288,4.6074,4.6016,4.5977,4.5977,4.5977,4.5977,4.5977,4.5977,4.5977,4.5977,4.5977,4.5977,4.5977,4.5977,4.5977,4.5977,4.5977,4.5977,4.5977,4.5977,4.5977,4.5977,4.5977,4.5956,4.5886,4.5815,4.5766,4.5742,4.5668,4.562,4.5603,4.5586,4.5586,4.5586,4.5586,4.5586,4.5586,4.5586,4.5586,4.5586,4.5586,4.5586,4.5586,4.5586,4.5586,4.5586,4.4364,4.5144,4.5144,4.5533,4.6118,4.6176,4.6196,4.6196,4.6196,4.6196,4.6196,4.6196,4.6196,4.6196,4.6196,4.6196,4.6196,4.6203,4.6203,4.6196,4.6203,4.6206,4.621,4.6189,4.6151,4.6131,4.6092,4.6085,4.6085,4.6016,4.5977,4.5977,4.5977,4.5977,4.5977,4.5977,4.5977,4.5977,4.5977,4.5977,4.5977,4.5977,4.5977,4.5977,4.5977,4.5977,4.5977,4.5977,4.5977,4.5977,4.5977,4.5977,4.5977,4.5977,4.5977,4.5977,4.5977,4.5977,4.5977,4.5977,4.6094,4.6579,4.689,4.6657,4.6366,4.6288,4.6521,4.6385,4.6016,4.6016,4.5977,4.5977,4.5977,4.5977,4.5977,4.5977,4.5977,4.5977,4.5977,4.5977,4.5977,4.5977,4.5977,4.5977,4.5977,4.5977,4.5977,4.5977,4.5977,4.5977,4.5977,4.5977,4.5977,4.5958,4.5906,4.5822,4.5757,4.57,4.5654,4.562,4.5586,4.5586,4.5586,4.5586,4.5586,4.5586,4.5586,4.5586,4.5586,4.5586,4.5586,4.5586,4.5586,4.5586,4.5586]},{"header":{"parameterUnit":"m.s-1","parameterCategory":1,"la1":31.0,"la2":29.5877,"lo1":-88.7671,"lo2":-86.6584,"dy":0.0162,"dx":0.0185,"nx":115,"ny":88,"refTime":"2023-10-05T06:00:00:Z","depth":0,"parameterNumber":3,"parameterNumberName":"V-component_of_WINDS"},"data":[0.0,0.0,0.0,0.0,0.0,0.0,0.0,0.0,0.0,0.0,0.0,0.0,0.0,0.0,0.0,0.0,0.0,0.0,0.0,0.0,0.0,0.0,0.0,0.0,0.0,0.0,0.0,0.0,0.0,0.0,0.0,0.0,0.0,0.0,0.0,0.0,0.0,0.0,0.0,0.0,0.0,0.0,0.0,0.0,0.0,0.0,0.0,0.0,0.0,0.0,0.0,0.0,0.0,0.0,0.0,0.0,0.0,0.0,0.0,0.0,0.0,0.0,0.0,0.0,0.0,0.0,0.0,0.0,0.0,0.0,0.0,0.0,0.0,0.0,0.0,0.0,0.0,0.0,0.0,0.0,0.0,0.0,0.0,0.0,0.0,0.0,0.0,0.0,0.0,0.0,0.0,0.0,0.0,0.0,0.0,0.0,0.0,0.0,0.0,0.0,0.0,0.0,0.0,0.0,0.0,0.0,0.0,0.0,0.0,0.0,0.0,0.0,0.0,0.0,0.0,0.0,0.0,0.0,0.0,0.0,0.0,0.0,0.0,0.0,0.0,0.0,0.0,0.0,0.0,0.0,0.0,0.0,0.0,0.0,0.0,0.0,0.0,0.0,0.0,0.0,0.0,0.0,0.0,0.0,0.0,0.0,0.0,0.0,0.0,0.0,0.0,0.0,0.0,0.0,0.0,0.0,0.0,0.0,0.0,0.0,0.0,0.0,0.0,0.0,0.0,0.0,0.0,0.0,0.0,0.0,0.0,0.0,0.0,0.0,0.0,0.0,0.0,0.0,0.0,0.0,0.0,0.0,0.0,0.0,0.0,0.0,0.0,0.0,0.0,0.0,0.0,0.0,0.0,0.0,0.0,0.0,0.0,0.0,0.0,0.0,0.0,0.0,0.0,0.0,0.0,0.0,0.0,0.0,0.0,0.0,0.0,0.0,0.0,0.0,0.0,0.0,0.0,0.0,0.0,0.0,0.0,0.0,0.0,0.0,0.0,0.0,0.0,0.0,0.0,0.0,0.0,0.0,0.0,0.0,0.0,0.0,0.0,0.0,0.0,0.0,0.0,0.0,0.0,0.0,0.0,0.0,0.0,0.0,0.0,0.0,0.0,0.0,0.0,0.0,0.0,0.0,0.0,0.0,0.0,0.0,0.0,0.0,0.0,0.0,0.0,0.0,0.0,0.0,0.0,0.0,0.0,0.0,0.0,0.0,0.0,0.0,0.0,0.0,0.0,0.0,0.0,0.0,0.0,0.0,0.0,0.0,0.0,0.0,0.0,0.0,0.0,0.0,0.0,0.0,0.0,0.0,0.0,0.0,0.0,0.0,0.0,0.0,0.0,0.0,0.0,0.0,0.0,0.0,0.0,0.0,0.0,0.0,0.0,0.0,0.0,0.0,0.0,0.0,0.0,0.0,0.0,0.0,0.0,0.0,0.0,0.0,0.0,0.0,0.0,0.0,0.0,0.0,0.0,0.0,0.0,0.0,0.0,0.0,0.0,0.0,0.0,0.0,0.0,0.0,0.0,0.0,0.0,0.0,0.0,0.0,0.0,0.0,0.0,0.0,0.0,0.0,0.0,0.0,0.0,0.0,0.0,0.0,0.0,0.0,0.0,0.0,0.0,0.0,0.0,0.0,0.0,0.0,0.0,0.0,0.0,0.0,0.0,0.0,0.0,0.0,0.0,0.0,0.0,0.0,0.0,0.0,0.0,0.0,0.0,0.0,0.0,0.0,0.0,0.0,0.0,0.0,0.0,0.0,0.0,0.0,0.0,0.0,0.0,0.0,0.0,0.0,0.0,0.0,0.0,0.0,0.0,0.0,0.0,0.0,0.0,0.0,0.0,0.0,0.0,0.0,0.0,0.0,0.0,0.0,0.0,0.0,0.0,0.0,0.0,0.0,0.0,0.0,0.0,0.0,0.0,0.0,0.0,0.0,0.0,0.0,0.0,0.0,0.0,0.0,0.0,0.0,0.0,0.0,0.0,0.0,0.0,0.0,0.0,0.0,0.0,0.0,0.0,0.0,0.0,0.0,0.0,0.0,0.0,0.0,0.0,0.0,0.0,0.0,0.0,0.0,0.0,0.0,0.0,0.0,0.0,0.0,0.0,0.0,0.0,0.0,0.0,0.0,0.0,0.0,0.0,0.0,0.0,0.0,0.0,0.0,0.0,0.0,0.0,0.0,0.0,0.0,0.0,0.0,0.0,0.0,0.0,0.0,0.0,0.0,0.0,0.0,0.0,0.0,0.0,0.0,0.0,0.0,0.0,0.0,0.0,0.0,0.0,0.0,0.0,0.0,0.0,0.0,0.0,0.0,0.0,0.0,0.0,0.0,0.0,0.0,0.0,0.0,0.0,0.0,0.0,0.0,0.0,0.0,0.0,0.0,0.0,0.0,0.0,0.0,0.0,0.0,0.0,0.0,0.0,0.0,0.0,0.0,0.0,0.0,0.0,0.0,0.0,0.0,0.0,0.0,0.0,0.0,0.0,0.0,0.0,0.0,0.0,0.0,0.0,0.0,0.0,0.0,0.0,0.0,0.0,0.0,0.0,0.0,0.0,0.0,0.0,0.0,0.0,0.0,0.0,0.0,0.0,0.0,0.0,0.0,0.0,0.0,0.0,0.0,0.0,0.0,0.0,0.0,0.0,0.0,0.0,0.0,0.0,0.0,0.0,0.0,0.0,0.0,0.0,0.0,0.0,0.0,0.0,0.0,0.0,0.0,0.0,0.0,0.0,0.0,0.0,0.0,0.0,0.0,0.0,0.0,0.0,0.0,0.0,0.0,0.0,0.0,0.0,0.0,0.0,0.0,0.0,0.0,0.0,0.0,0.0,0.0,0.0,0.0,0.0,0.0,0.0,0.0,0.0,0.0,0.0,0.0,0.0,0.0,0.0,0.0,0.0,0.0,0.0,0.0,0.0,0.0,0.0,0.0,0.0,0.0,0.0,0.0,0.0,0.0,0.0,0.0,0.0,0.0,0.0,0.0,0.0,0.0,0.0,0.0,0.0,0.0,0.0,0.0,0.0,0.0,0.0,0.0,0.0,0.0,0.0,0.0,0.0,0.0,0.0,0.0,0.0,0.0,0.0,0.0,0.0,0.0,0.0,0.0,0.0,0.0,0.0,0.0,0.0,0.0,0.0,0.0,0.0,0.0,0.0,0.0,0.0,0.0,0.0,0.0,0.0,0.0,0.0,0.0,0.0,0.0,0.0,0.0,0.0,0.0,0.0,0.0,0.0,0.0,0.0,0.0,0.0,0.0,0.0,0.0,0.0,0.0,0.0,0.0,0.0,0.0,0.0,0.0,0.0,0.0,0.0,0.0,0.0,0.0,0.0,0.0,0.0,0.0,0.0,0.0,0.0,0.0,0.0,0.0,0.0,0.0,0.0,0.0,0.0,0.0,0.0,0.0,0.0,0.0,0.0,0.0,0.0,0.0,0.0,0.0,0.0,0.0,0.0,0.0,0.0,0.0,0.0,0.0,0.0,0.0,0.0,0.0,0.0,0.0,0.0,0.0,0.0,0.0,0.0,0.0,0.0,0.0,0.0,0.0,0.0,0.0,0.0,0.0,0.0,0.0,0.0,0.0,0.0,0.0,0.0,0.0,0.0,0.0,0.0,0.0,0.0,0.0,0.0,0.0,0.0,0.0,0.0,0.0,0.0,0.0,0.0,0.0,0.0,0.0,0.0,0.0,0.0,0.0,0.0,0.0,0.0,0.0,0.0,0.0,0.0,0.0,0.0,0.0,0.0,0.0,0.0,0.0,0.0,0.0,0.0,0.0,0.0,0.0,0.0,0.0,0.0,0.0,0.0,0.0,0.0,0.0,0.0,0.0,0.0,0.0,0.0,0.0,0.0,0.0,0.0,0.0,0.0,0.0,0.0,0.0,0.0,0.0,0.0,0.0,0.0,0.0,0.0,0.0,0.0,0.0,0.0,0.0,0.0,0.0,0.0,0.0,0.0,0.0,0.0,0.0,0.0,0.0,0.0,0.0,0.0,0.0,0.0,0.0,0.0,0.0,0.0,0.0,0.0,0.0,0.0,0.0,0.0,0.0,0.0,0.0,0.0,0.0,0.0,0.0,0.0,0.0,0.0,0.0,0.0,0.0,0.0,0.0,0.0,0.0,0.0,0.0,0.0,0.0,0.0,0.0,0.0,0.0,0.0,0.0,0.0,0.0,0.0,0.0,0.0,0.0,0.0,0.0,0.0,0.0,0.0,0.0,0.0,0.0,0.0,0.0,0.0,0.0,0.0,0.0,0.0,0.0,-0.129,0.0,0.0,0.0,0.0,0.0,0.0,0.0,0.0,0.0,0.0,0.0,0.0,0.0,0.0,0.0,0.0,0.0,0.0,0.0,0.0,0.0,0.0,0.0,0.0,0.0,0.0,0.0,0.0,0.0,0.0,0.0,0.0,0.0,0.0,0.0,0.0,0.0,0.0,0.0,0.0,0.0,0.0,0.0,0.0,0.0,0.0,0.0,0.0,0.0,0.0,0.0,0.0,0.0,0.0,0.0,0.0,0.0,0.0,0.0,0.0,0.0,0.0,0.0,0.0,0.0,0.0,0.0,0.0,0.0,0.0,0.0,0.0,0.0,0.0,0.0,0.0,0.0,0.0,0.0,0.0,0.0,0.0,0.0,0.0,0.0,0.0,0.0,0.0,0.0,0.0,0.0,0.0,0.0,0.0,0.0,0.0,0.0,0.0,0.0,0.0,0.0,0.0,0.0,0.0,0.0,0.0,0.0,0.0,0.0,0.0,-0.2571,-0.2472,-0.1821,-0.1428,-0.1302,0.0,0.0,0.0,0.0,0.0,0.0,0.0,0.0,0.0,0.0,0.0,0.0,0.0,0.0,0.0,0.0,0.0,0.0,0.0,0.0,0.0,0.0,0.0,0.0,0.0,0.0,0.0,0.0,0.0,0.0,0.0,0.0,0.0,0.0,0.0,0.0,0.0,0.0,0.0,0.0,0.0,0.0,0.0,0.0,0.0,0.0,0.0,0.0,0.0,0.0,0.0,0.0,0.0,0.0,0.0,0.0,0.0,0.0,0.0,0.0,0.0,0.0,0.0,0.0,0.0,0.0,0.0,0.0,0.0,0.0,0.0,0.0,0.0,0.0,0.0,0.0,0.0,0.0,0.0,0.0,0.0,0.0,0.0,0.0,0.0,0.0,0.0,0.0,0.0,0.0,0.0,0.0,0.0,0.0,0.0,0.0,0.0,0.0,0.0,0.0,0.0,0.0,0.0,0.0,0.0,0.0,0.0,0.0,0.0,0.0,0.0,0.0,-0.1794,-0.1367,-0.1256,0.0,0.0,0.0,0.0,0.0,0.0,0.0,0.0,0.0,0.0,0.0,0.0,0.0,0.0,0.0,0.0,0.0,0.0,0.0,0.0,0.0,0.0,0.0,0.0,0.0,0.0,0.0,0.0,0.0,0.0,0.0,0.0,0.0,0.0,0.0,0.0,0.0,0.0,0.0,0.0,0.0,0.0,0.0,0.0,0.0,0.0,0.0,0.0,0.0,0.0,0.0,0.0,0.0,0.0,0.0,0.0,0.0,0.0,0.0,0.0,0.0,0.0,0.0,0.0,0.0,0.0,0.0,0.0,0.0,0.0,0.0,0.0,0.0,0.0,0.0,0.0,0.0,0.0,0.0,0.0,0.0,0.0,0.0,0.0,0.0,0.0,0.0,0.0,0.0,0.0,0.0,0.0,0.0,0.0,0.0,0.0,0.0,0.0,0.0,0.0,0.0,0.0,0.0,0.0,0.0,0.0,0.0,0.0,0.0,0.0,-0.2167,-0.205,-0.1626,0.0,-0.1194,0.0,0.0,0.0,0.0,0.0,0.0,0.0,0.0,0.0,0.0,0.0,0.0,0.0,0.0,0.0,0.0,0.0,0.0,0.0,0.0,0.0,0.0,0.0,0.0,0.0,0.0,0.0,0.0,0.0,0.0,0.0,0.0,0.0,0.0,0.0,0.0,0.0,0.0,0.0,0.0,0.0,0.0,0.0,0.0,0.0,0.0,0.0,0.0,0.0,0.0,0.0,0.0,0.0,0.0,0.0,0.0,0.0,0.0,0.0,0.0,0.0,0.0,0.0,0.0,0.0,0.0,0.0,0.0,0.0,0.0,0.0,0.0,0.0,0.0,0.0,0.0,0.0,0.0,0.0,0.0,0.0,0.0,0.0,0.0,0.0,0.0,0.0,0.0,0.0,0.0,0.0,0.0,0.0,0.0,0.0,0.0,0.0,0.0,0.0,0.0,0.0,0.0,0.0,0.0,0.0,0.0,0.0,0.0,0.0,0.0,-0.1803,-0.1769,-0.1072,-0.0715,0.0,0.0,0.0,0.0,0.0,0.0,0.0,0.0,0.0,0.0,0.0,0.0,0.0,0.0,0.0,0.0,0.0,0.0,0.0,0.0,0.0,0.0,0.0,0.0,0.0,0.0,0.0,0.0,0.0,0.0,0.0,0.0,0.0,0.0,0.0,0.0,0.0,0.0,0.0,0.0,0.0,0.0,0.0,0.0,0.0,0.0,0.0,0.0,0.0,0.0,0.0,0.0,0.0,0.0,0.0,0.0,0.0,0.0,0.0,0.0,0.0,0.0,0.0,0.0,0.0,0.0,0.0,0.0,0.0,0.0,0.0,0.0,0.0,0.0,0.0,0.0,0.0,0.0,0.0,0.0,0.0,0.0,0.0,0.0,0.0,0.0,0.0,0.0,0.0,0.0,0.0,0.0,0.0,0.0,0.0,0.0,0.0,0.0,0.0,0.0,0.0,0.0,0.0,0.0,0.0,0.0,0.0,0.0,0.0,0.0,-0.1723,-0.156,-0.1477,-0.0624,-0.0201,-0.0314,0.0,0.0,0.0,0.0,0.0,0.0,0.0,0.0,0.0,0.0,0.0,0.0,0.0,0.0,0.0,0.0,0.0,0.0,0.0,0.0,0.0,0.0,0.0,0.0,0.0,0.0,0.0,0.0,0.0,0.0,0.0,0.0,0.0,0.0,0.0,0.0,0.0,0.0,0.0,0.0,0.0,0.0,0.0,0.0,0.0,0.0,0.0,0.0,0.0,0.0,0.0,0.0,0.0,0.0,0.0,0.0,0.0,0.0,0.0,0.0,0.0,0.0,0.0,0.0,0.0,0.0,0.0,0.0,0.0,0.0,0.0,0.0,0.0,0.0,0.0,0.0,0.0,0.0,0.0,0.0,0.0,0.0,0.0,0.0,0.0,0.0,0.0,0.0,0.0,0.0,0.0,0.0,0.0,0.0,0.0,0.0,0.0,0.0,0.0,0.0,0.0,0.0,0.0,0.0,0.0,0.0,0.0,0.0,-0.2084,-0.1777,-0.1513,-0.1319,-0.0467,0.0022,0.0,0.0,0.0,0.0,0.0,0.0,0.0,0.0,0.0,0.0,0.0,0.0,0.0,0.0,0.0,0.0,0.0,0.0,0.0,0.0,0.0,0.0,0.0,0.0,0.0,0.0,0.0,0.0,0.0,0.0,0.0,0.0,0.0,0.0,0.0,0.0,0.0,0.0,0.0,0.0,0.0,0.0,0.0,0.0,0.0,0.0,0.0,0.0,0.0,0.0,0.0,0.0,0.0,0.0,0.0,0.0,0.0,0.0,0.0,0.0,0.0,0.0,0.0,0.0,0.0,0.0,0.0,0.0,0.0,0.0,0.0,0.0,0.0,0.0,0.0,0.0,0.0,0.0,0.0,0.0,0.0,0.0,0.0,0.0,0.0,0.0,0.0,0.0,0.0,0.0,0.0,0.0,0.0,0.0,0.0,0.0,0.0,0.0,0.0,0.0,0.0,0.0,0.0,0.0,0.0,0.0,0.0,0.0,0.0,-0.2158,-0.1784,-0.143,-0.1072,-0.0942,-0.065,0.0,0.0,0.0,0.0,0.0,0.0,0.0,0.0,0.0,0.0,0.0,0.0,0.0,0.0,0.0,0.0,0.0,0.0,0.0,0.0,0.0,0.0,0.0,0.0,0.0,0.0,0.0,0.0,0.0,0.0,0.0,0.0,0.0,0.0,0.0,0.0,0.0,0.0,0.0,0.0,0.0,0.0,0.0,0.0,0.0,0.0,0.0,0.0,0.0,0.0,0.0,0.0,0.0,0.0,0.0,0.0,0.0,0.0,0.0,0.0,0.0,0.0,0.0,0.0,0.0,0.0,0.0,0.0,0.0,0.0,0.0,0.0,0.0,0.0,0.0,0.0,0.0,0.0,0.0,0.0,0.0,0.0,0.0,0.0,0.0,0.0,0.0,0.0,0.0,0.0,0.0,0.0,0.0,0.0,0.0,0.0,0.0,0.0,0.0,0.0,0.0,0.0,0.0,0.0,0.0,0.0,0.0,0.0,0.0,-0.2157,0.0,-0.1433,-0.1026,-0.103,-0.0752,0.0,0.0,0.0,0.0,0.0,0.0,0.0,0.0,0.0,0.0,0.0,0.0,0.0,0.0,0.0,0.0,0.0,0.0,0.0,0.0,0.0,0.0,0.0,0.0,0.0,0.0,0.0,0.0,0.0,0.0,0.0,0.0,0.0,0.0,0.0,0.0,0.0,0.0,0.0,0.0,0.0,0.0,0.0,0.0,0.0,0.0,0.0,0.0,0.0,0.0,0.0,0.0,0.0,0.0,0.0,0.0,0.0,0.0,0.0,0.0,0.0,0.0,0.0,0.0,0.0,0.0,0.0,0.0,0.0,0.0,0.0,0.0,0.0,0.0,0.0,0.0,0.0,0.0,0.0,0.0,0.0,0.0,0.0,0.0,0.0,0.0,0.0,0.0,0.0,0.0,0.0,0.0,0.0,0.0,0.0,0.0,0.0,0.0,0.0,0.0,0.0,0.0,0.0,0.0,0.0,0.0,0.0,0.0,-0.2617,-0.2025,-0.1881,-0.1584,-0.1215,-0.059,-0.0195,0.0,0.0,0.0,0.0,0.0,0.0,0.0,0.0,0.0,0.0,0.0,0.0,0.0,0.0,0.0,0.0,0.0,0.0,0.0,0.0,0.0,0.0,0.0,0.0,0.0,0.0,0.0,0.0,0.0,0.0,0.0,0.0,0.0,0.0,0.0,0.0,0.0,0.0,0.0,0.0,0.0,0.0,0.0,0.0,0.0,0.0,0.0,0.0,0.0,0.0,0.0,0.0,0.0,0.0,0.0,0.0,0.0,0.0,0.0,0.0,0.0,0.0,0.0,0.0,0.0,0.0,0.0,0.0,0.0,0.0,0.0,0.0,0.0,0.0,0.0,0.0,0.0,0.0,0.0,0.0,0.0,0.0,0.0,0.0,0.0,0.0,0.0,0.0,0.0,0.0,0.0,0.0,0.0,0.0,0.0,0.0,0.0,0.0,0.0,0.0,0.0,0.0,0.0,0.0,0.0,0.0,0.0,0.0,0.0,-0.1821,-0.1794,-0.1602,-0.1169,0.0,0.0502,0.0,0.0,0.0,0.0,0.0,0.0,0.0,0.0,0.0,0.0,0.0,0.0,0.0,0.0,0.0,0.0,0.0,0.0,0.0,0.0,0.0,0.0,0.0,0.0,0.0,0.0,0.0,0.0,0.0,0.0,0.0,0.0,0.0,0.0,0.0,0.0,0.0,0.0,0.0,0.0,0.0,0.0,0.0,0.0,0.0,0.0,0.0,0.0,0.0,0.0,0.0,0.0,0.0,0.0,0.0,0.0,0.0,0.0,0.0,0.0,0.0,0.0,0.0,0.0,0.0,0.0,0.0,0.0,0.0,0.0,0.0,0.0,0.0,0.0,0.0,0.0,0.0,0.0,0.0,0.0,0.0,0.0,0.0,0.0,0.0,0.0,0.0,0.0,0.0,0.0,0.0,0.0,0.0,0.0,0.0,0.0,0.0,0.0,0.0,0.0,0.0,0.0,0.0,0.0,0.0,0.0,0.0,0.0,0.0,-0.1477,-0.1758,-0.1471,-0.057,0.0123,0.043,0.0241,0.0,0.0,0.0,0.0,0.0,0.0,0.0,0.0,0.0,0.0,0.0,0.0,0.0,0.0,0.0,0.0,0.0,0.0,0.0,0.0,0.0,0.0,0.0,0.0,0.0,0.0,0.0,0.0,0.0,0.0,0.0,0.0,0.0,0.0,0.0,0.0,0.0,0.0,0.0,0.0,0.0,0.0,0.0,0.0,0.0,0.0,0.0,0.0,0.0,0.0,0.0,0.0,0.0,0.0,0.0,0.0,0.0,0.0,0.0,0.0,0.0,0.0,0.0,0.0,0.0,0.0,0.0,0.0,0.0,0.0,0.0,0.0,0.0,0.0,0.0,0.0,0.0,0.0,0.0,0.0,0.0,0.0,0.0,0.0,0.0,0.0,0.0,0.0,0.0,0.0,0.0,0.0,0.0,0.0,0.0,0.0,0.0,0.0,0.0,0.0,0.0,0.0,0.0,0.0,0.0,0.0,0.0,0.0,-0.098,-0.1642,-0.1193,0.0474,-0.0106,-0.0213,0.0,0.0,0.0,0.0,0.0,0.0,0.0,0.0,0.0,0.0,0.0,0.0,0.0,0.0,0.0,0.0,0.0,0.0,0.0,0.0,0.0,0.0,0.0,0.0,0.0,0.0,0.0,0.0,0.0,0.0,0.0,0.0,0.0,0.0,0.0,0.0,0.0,0.0,0.0,0.0,0.0,0.0,0.0,0.0,0.0,0.0,0.0,0.0,0.0,0.0,0.0,0.0,0.0,0.0,0.0,0.0,0.0,0.0,0.0,0.0,0.0,0.0,0.0,0.0,0.0,0.0,0.0,0.0,0.0,0.0,0.0,0.0,0.0,0.0,0.0,0.0,0.0,0.0,0.0,0.0,0.0,0.0,0.0,0.0,0.0,0.0,0.0,0.0,0.0,0.0,0.0,0.0,0.0,0.0,0.0,0.0,0.0,0.0,0.0,0.0,0.0,0.0,0.0,0.0,0.0,0.0,0.0,0.0,0.0,-0.0687,-0.0773,-0.0246,0.094,0.0256,0.0216,0.0,0.0,0.0,0.0,0.0,0.0,0.0,0.0,0.0,0.0,0.0,0.0,0.0,0.0,0.0,0.0,0.0,0.0,0.0,0.0,0.0,0.0,0.0,0.0,0.0,0.0,0.0,0.0,0.0,0.0,0.0,0.0,0.0,0.0,0.0,0.0,0.0,0.0,0.0,0.0,0.0,0.0,0.0,0.0,0.0,0.0,0.0,0.0,0.0,0.0,0.0,0.0,0.0,0.0,0.0,0.0,0.0,0.0,0.0,0.0,0.0,0.0,0.0,0.0,0.0,0.0,0.0,0.0,0.0,0.0,0.0,0.0,0.0,0.0,0.0,0.0,0.0,0.0,0.0,0.0,0.0,0.0,0.0,0.0,0.0,0.0,0.0,0.0,0.0,0.0,0.0,0.0,0.0,0.0,0.0,0.0,0.0,0.0,0.0,0.0,0.0,0.0,0.0,0.0,0.0,0.0,0.0,0.0,-0.1346,-0.0666,-0.0178,0.065,0.19,0.1667,0.1221,0.0,0.0,0.0,0.0,0.0,0.0,0.0,0.0,0.0,0.0,0.0,0.0,0.0,0.0,0.0,0.0,0.0,0.0,0.0,0.0,0.0,0.0,0.0,0.0,0.0,0.0,0.0,0.0,0.0,0.0,0.0,0.0,0.0,0.0,0.0,0.0,0.0,0.0,0.0,0.0,0.0,0.0,0.0,0.0,0.0,0.0,0.0,0.0,0.0,0.0,0.0,0.0,0.0,0.0,0.0,0.0,0.0,0.0,0.0,0.0,0.0,0.0,0.0,0.0,0.0,0.0,0.0,0.0,0.0,0.0,0.0,0.0,0.0,0.0,0.0,0.0,0.0,0.0,0.0,0.0,0.0,0.0,0.0,0.0,0.0,0.0,0.0,0.0,0.0,0.0,0.0,0.0,0.0,0.0,0.0,0.0,0.0,0.0,0.0,0.0,0.0,0.0,0.0,0.0,0.0,0.0,0.0,0.0,-0.1157,-0.0843,0.0178,0.1381,0.276,0.3001,0.2221,0.0,0.0,0.0,0.0,0.0,0.0,0.0,0.0,0.0,0.0,0.0,0.0,0.0,0.0,0.0,0.0,0.0,0.0,0.0,0.0,0.0,0.0,0.0,0.0,0.0,0.0,0.0,0.0,0.0,0.0,0.0,0.0,0.0,0.0,0.0,0.0,0.0,0.0,0.0,0.0,0.0,0.0,0.0,0.0,0.0,0.0,0.0,0.0,0.0,0.0,0.0,0.0,0.0,0.0,0.0,0.0,0.0,0.0,0.0,0.0,0.0,0.0,0.0,0.0,0.0,0.0,0.0,0.0,0.0,0.0,0.0,0.0,0.0,0.0,0.0,0.0,0.0,0.0,0.0,0.0,0.0,0.0,0.0,0.0,0.0,0.0,0.0,0.0,0.0,0.0,0.0,0.0,0.0,0.0,0.0,0.0,0.0,0.0,0.0,0.0,0.0,0.0,0.0,0.0,0.0,0.0,0.0,0.0,-0.1026,-0.0491,0.0268,0.1251,0.2413,0.0775,0.058,0.0,0.0,0.0,0.0,0.0,0.0,0.0,0.0,0.0,0.0,0.0,0.0,0.0,0.0,0.0,0.0,0.0,0.0,0.0,0.0,0.0,0.0,0.0,0.0,0.0,0.0,0.0,0.0,0.0,0.0,0.0,0.0,0.0,0.0,0.0,0.0,0.0,0.0,0.0,0.0,0.0,0.0,0.0,0.0,0.0,0.0,0.0,0.0,0.2427,0.0,0.0,0.0,0.0,0.0,0.0,0.0,0.0,0.0,0.0,0.0,0.0,0.0,0.0,0.0,0.0,0.0,0.0,0.0,0.0,0.0,0.0,0.0,0.0,0.0,0.0,0.0,0.0,0.0,0.0,0.0,0.0,0.0,0.0,0.0,0.0,0.0,0.0,0.0,0.0,0.0,0.0,0.0,0.0,0.0,0.0,0.0,0.0,0.0,0.0,0.0,0.0,0.0,0.0,0.0,0.0,0.0,0.0,0.0,-0.1026,-0.0403,0.0313,0.1207,0.223,0.163,0.1514,0.0,0.0,0.0,0.0,0.0,0.0,0.0,0.0,0.0,0.0,0.0,0.0,0.0,0.0,0.0,0.0,0.0,0.0,0.0,0.0,0.0,0.0,0.0,0.0,0.0,0.0,0.0,0.0,0.0,0.0,0.0,0.0,0.0,0.0,0.0,0.0,0.0,0.0,0.0,0.0,0.0,0.0,0.0,0.0,0.0,0.0,0.0,0.0,0.0,0.0,0.0,0.0,0.0,0.0,0.0,0.0,0.0,0.0,0.0,0.0,0.0,0.0,0.0,0.0,0.0,0.0,0.0,0.0,0.0,0.0,0.0,0.0,0.0,0.0,0.0,0.0,0.0,0.0,0.0,0.0,0.0,0.0,0.0,0.0,0.0,0.0,0.0,0.0,0.0,0.0,0.0,0.0,0.0,0.0,0.0,0.0,0.0,0.0,0.0,0.0,0.0,0.0,0.0,0.0,0.0,0.0,0.0,-0.1748,-0.0991,-0.0226,0.0364,0.1185,0.2139,0.334,0.3323,0.1999,0.0,0.0,0.0,0.0,0.0,0.0,0.0,0.0,0.0,0.0,0.0,0.0,0.0,0.0,0.0,0.0,0.0,0.0,0.0,0.0,0.0,0.0,0.0,0.0,0.0,0.0,0.0,0.0,0.0,0.0,0.0,0.0,0.0,0.0,0.0,0.0,0.0,0.0,0.1698,0.1727,0.0,0.0,0.0,0.0,0.0,0.0,0.0,0.0,0.2779,0.0,0.0,0.0,0.0,0.0,0.0,0.0,0.0,0.0,0.0,0.0,0.0,0.0,0.0,0.0,0.0,0.0,0.0,0.0,0.0,0.0,0.0,0.0,0.0,0.0,0.0,0.0,0.0,0.0,0.0,0.0,0.0,0.0,0.0,0.0,0.0,0.0,0.0,0.0,0.0,0.0,0.0,0.0,0.0,0.0,0.0,0.0,0.0,0.0,0.0,0.0,0.0,0.0,0.0,0.0,0.0,-0.1649,-0.1337,-0.0658,0.0568,0.0682,0.0989,0.1633,0.3301,0.4013,0.3494,0.0,0.0,0.0,0.0,0.0,0.0,0.0,0.0,0.0,0.0,0.0,0.0,0.0,0.0,0.0,0.0,0.0,0.0,0.0,0.0,0.0,0.0,0.0,0.0,0.0,0.0,0.0,0.0,0.0,0.0,0.0,0.0,0.0,0.0,0.0,0.0,0.0,0.0,0.0,0.1999,0.2028,0.0,0.0,0.0,0.0,0.0,0.0,0.0,0.0,0.323,0.0,0.0,0.0,0.0,0.0,0.0,0.0,0.0,0.0,0.0,0.0,0.0,0.0,0.0,0.0,0.0,0.0,0.0,0.0,0.0,0.0,0.0,0.0,0.0,0.0,0.0,0.0,0.0,0.0,0.0,0.0,0.0,0.0,0.0,0.0,0.0,0.0,0.0,0.0,0.0,0.0,0.0,0.0,0.0,0.0,0.0,0.0,0.0,0.0,0.0,0.0,0.0,0.0,0.0,0.0,-0.1336,-0.0911,-0.0245,0.0737,0.075,0.1058,0.1761,0.2281,0.3023,0.0,0.0,0.0,0.0,0.0,0.0,0.0,0.0,0.0,0.0,0.0,0.0,0.0,0.0,0.0,0.0,0.0,0.0,0.0,0.0,0.0,0.0,0.0,0.0,0.0,0.0,0.0,0.0,0.0,0.0,0.0,0.0,0.0,0.0,0.0,0.0,0.0,0.0,0.0,0.0,0.2229,0.241,0.2768,0.0,0.0,0.0,0.0,0.0,0.0,0.383,0.3677,0.0,0.0,0.0,0.0,0.0,0.0,0.0,0.0,0.0,0.0,0.0,0.0,0.0,0.0,0.0,0.0,0.0,0.0,0.0,0.0,0.0,0.0,0.0,0.0,0.0,0.0,0.0,0.0,0.0,0.0,0.0,0.0,0.0,0.0,0.0,0.0,0.0,0.0,0.0,0.0,0.0,0.0,0.0,0.0,0.0,0.0,0.0,0.0,0.0,0.0,0.0,0.0,0.0,0.0,0.0,-0.1185,-0.0547,0.0102,0.0765,0.0821,0.1133,0.1748,0.1428,0.2019,0.0,0.0,0.0,0.0,0.0,0.0,0.0,0.0,0.0,0.0,0.0,0.0,0.0,0.0,0.0,0.0,0.0,0.0,0.0,0.0,0.0,0.0,0.0,0.0,0.0,0.0,0.0,0.0,0.0,0.0,0.0,0.0,0.0,0.0,0.0,0.0,0.0,0.0,0.0,0.0,0.0,0.2805,0.3188,0.3108,0.0,0.0,0.0,0.0,0.457,0.4321,0.0,0.0,0.0,0.0,0.0,0.0,0.0,0.0,0.0,0.0,0.0,0.0,0.0,0.0,0.0,0.0,0.0,0.0,0.0,0.0,0.0,0.0,0.0,0.0,0.0,0.0,0.0,0.0,0.0,0.0,0.0,0.0,0.0,0.0,0.0,0.0,0.0,0.0,0.0,0.0,0.0,0.0,0.0,0.0,0.0,0.0,0.0,0.0,0.0,0.0,0.0,0.0,0.0,0.0,0.0,0.0,-0.1235,-0.0459,0.0264,0.0848,0.0872,0.0943,0.1052,0.1976,0.2109,0.0,0.0,0.0,0.0,0.0,0.0,0.0,0.0,0.0,0.0,0.0,0.0,0.0,0.0,0.0,0.0,0.0,0.0,0.0,0.0,0.0,0.0,0.0,0.0,0.0,0.0,0.0,0.0,0.0,0.0,0.0,0.0,0.0,0.0,0.0,0.0,0.0,0.0,0.0,0.0,0.0,0.3118,0.3587,0.3326,0.2899,0.0,0.0,0.4058,0.5136,0.4791,0.0,0.0,0.0,0.0,0.0,0.0,0.0,0.0,0.0,0.0,0.0,0.0,0.0,0.0,0.0,0.0,0.0,0.0,0.0,0.0,0.0,0.0,0.0,0.0,0.0,0.0,0.0,0.0,0.0,0.0,0.0,0.0,0.0,0.0,0.0,0.0,0.0,0.0,0.0,0.0,0.0,0.0,0.0,0.0,0.0,0.0,0.0,0.0,0.0,0.0,0.0,0.0,0.0,0.0,0.0,-0.1485,-0.108,-0.0053,0.0659,0.0878,0.0891,0.0897,0.0895,0.0942,0.0807,0.0,0.0,0.0,0.0,0.0,0.0,0.0,0.0,0.0,0.0,0.0,0.0,0.0,0.0,0.0,0.0,0.0,0.0,0.0,0.0,0.0,0.0,0.0,0.0,0.0,0.0,0.0,0.0,0.0,0.0,0.0,0.0,0.0,0.0,0.0,0.0,0.0,0.0,0.0,0.0,0.0,0.0,0.3669,0.3589,0.0,0.0,0.0,0.4366,0.5251,0.0,0.0,0.0,0.0,0.0,0.0,0.0,0.0,0.0,0.0,0.0,0.0,0.0,0.0,0.0,0.0,0.0,0.0,0.0,0.0,0.0,0.0,0.0,0.0,0.0,0.0,0.0,0.0,0.0,0.0,0.0,0.0,0.0,0.0,0.0,0.0,0.0,0.0,0.0,0.0,0.0,0.0,0.0,0.0,0.0,0.0,0.0,0.0,0.0,0.0,0.0,0.0,0.0,0.0,0.0,0.0,0.0,-0.1056,0.0216,0.0901,0.0909,0.0909,0.0912,0.0859,0.0542,0.0,0.0,0.0,0.0,0.0,0.0,0.0,0.0,0.0,0.0,0.0,0.0,0.0,0.0,0.0,0.0,0.0,0.0,0.0,0.0,0.0,0.0,0.0,0.0,0.0,0.0,0.0,0.1015,0.0,0.0,0.0,0.0,0.0,0.0,0.0,0.0,0.0,0.0,0.0,0.0,0.0,0.0,0.3789,0.382,0.395,0.3971,0.0,0.0,0.4638,0.5459,0.5512,0.5266,0.0,0.0,0.0,0.0,0.0,0.0,0.0,0.0,0.0,0.0,0.0,0.0,0.0,0.0,0.0,0.0,0.0,0.0,0.0,0.0,0.0,0.0,0.0,0.0,0.0,0.0,0.0,0.0,0.0,0.0,0.0,0.0,0.0,0.0,0.0,0.0,0.0,0.0,0.0,0.0,0.0,0.0,0.0,0.0,0.0,0.0,0.0,0.0,0.0,0.0,0.0,0.0,0.0,0.0,-0.1303,-0.1259,0.0162,0.0912,0.0879,0.0881,0.0893,0.0919,0.1665,0.1668,0.0,0.0,0.0,0.0,0.0,0.0,0.0,0.0,0.0,0.0,0.0,0.0,0.0,0.0,0.0,0.0,0.0,0.0,0.0,0.0,0.0,0.0,0.0,0.0,0.0,0.0,0.0,0.0,0.0,0.0,0.0,0.0,0.0,0.0,0.0,0.0,0.0,0.0,0.0,0.0,0.0,0.4078,0.413,0.4254,0.4503,0.0,0.4552,0.4794,0.5812,0.5814,0.5601,0.4967,0.0,0.0,0.0,0.0,0.0,0.0,0.0,0.0,0.0,0.0,0.0,0.0,0.0,0.0,0.0,0.0,0.0,0.0,0.0,0.0,0.0,0.0,0.0,0.0,0.0,0.0,0.0,0.0,0.0,0.0,0.0,0.0,0.0,0.0,0.0,0.0,0.0,0.0,0.0,0.0,0.0,0.0,0.0,0.0,0.0,0.0,0.0,0.0,0.0,0.0,0.0,0.0,0.0,-0.126,-0.1182,0.023,0.0959,0.0971,0.0971,0.0975,0.0986,0.1077,0.0696,0.0,0.0,0.0,0.0,0.0,0.0,0.0,0.0,0.0,0.0,0.0,0.0,0.0,0.0,0.0,0.0,0.0,0.0,0.0,0.0,0.0,0.0,0.0,0.0,0.0,0.0,0.0,0.0,0.2706,0.2989,0.2097,0.0,0.0,0.0,0.0,0.0,0.0,0.0,0.0,0.0,0.0,0.431,0.4709,0.4849,0.0,0.0,0.4953,0.5299,0.5547,0.5711,0.5601,0.5029,0.4755,0.0,0.0,0.0,0.0,0.0,0.0,0.0,0.0,0.0,0.0,0.0,0.0,0.0,0.0,0.0,0.0,0.0,0.0,0.0,0.0,0.0,0.0,0.0,0.0,0.0,0.0,0.0,0.0,0.0,0.0,0.0,0.0,0.0,0.0,0.0,0.0,0.0,0.0,0.0,0.0,0.0,0.0,0.0,0.0,0.0,0.0,0.0,0.0,0.0,0.0,0.0,0.0,-0.1199,-0.1228,0.0239,0.0992,0.1001,0.101,0.1018,0.1024,0.1204,0.1055,0.0,0.0,0.0,0.0,0.0,0.0,0.0,0.0,0.0,0.0,0.0,0.0,0.0,0.0,0.0,0.0,0.0,0.0,0.0,0.0,0.0,0.0,0.0,0.0,0.0,0.0,0.0,0.0,0.2673,0.2464,0.1733,0.0,0.0,0.0,0.0,0.0,0.0,0.0,0.0,0.0,0.0,0.4663,0.4936,0.5071,0.5009,0.464,0.5009,0.5374,0.5483,0.5561,0.5461,0.5062,0.0,0.0,0.0,0.0,0.0,0.0,0.0,0.0,0.0,0.0,0.0,0.0,0.0,0.0,0.0,0.0,0.0,0.0,0.0,0.0,0.0,0.0,0.0,0.0,0.0,0.0,0.0,-0.3382,0.0,0.0,-0.3017,0.0,0.0,0.0,0.0,0.0,0.0,0.0,0.0,0.0,0.0,0.0,0.0,0.0,0.0,0.0,0.0,0.0,0.0,0.0,0.0,0.0,0.0,-0.1228,-0.1452,0.018,0.1005,0.1034,0.106,0.1088,0.1116,0.25,0.3501,0.4102,0.0,0.0,0.0,0.0,0.0,0.0,0.0,0.0,0.0,0.0,0.0,0.0,0.0,0.0,0.0,0.0,0.0,0.0,0.0,0.0,0.0,0.0,0.0,0.0,0.0,0.0,0.3369,0.3233,0.2811,0.0,0.0,0.0,0.0,0.0,0.0,0.0,0.0,0.0,0.0,0.4616,0.517,0.4705,0.4649,0.4806,0.5104,0.4737,0.4804,0.5823,0.5565,0.5226,0.0,0.0,0.0,0.0,0.0,0.0,0.0,0.0,0.0,0.0,0.0,0.0,0.0,0.0,0.0,0.0,0.0,0.0,0.0,0.0,0.0,0.0,0.0,0.0,0.0,0.0,0.0,-0.3137,-0.3188,0.0,0.0,0.0,0.0,0.0,0.0,0.0,0.0,0.0,0.0,0.0,-0.2101,-0.3567,0.0,0.0,0.0,0.0,0.0,0.0,0.0,0.0,0.0,0.0,0.0,0.0,-0.1239,-0.1107,0.0326,0.1091,0.1121,0.1131,0.1141,0.1223,0.2174,0.3088,0.3983,0.0,0.0,0.0,0.0,0.0,0.0,0.0,0.0,0.0,0.0,0.0,0.0,0.0,0.0,0.0,0.0,0.0,0.0,0.0,0.0,0.0,0.0,0.0,0.0,0.0,0.2139,0.0,0.0,0.0,0.0,0.0,0.0,0.0,0.0,0.0,0.0,0.0,0.3867,0.4512,0.445,0.4515,0.5012,0.4947,0.4828,0.0,0.0,0.0,0.0,0.0,0.0,0.0,0.0,0.0,0.0,0.0,0.0,0.0,0.0,0.4944,0.4446,0.4498,0.4628,0.4634,0.0,0.0,0.0,0.0,0.0,0.0,0.0,0.0,0.0,0.0,0.0,0.0,0.0,0.0,-0.2641,0.0,-0.3159,0.0,0.0,0.0,0.0,0.0,0.0,0.0,0.0,-0.2447,-0.1949,-0.1434,-0.2393,-0.3161,0.0,-0.4005,-0.4461,0.0,0.0,0.0,0.0,0.0,0.0,0.0,0.0,-0.1175,-0.103,0.0412,0.1147,0.1166,0.1176,0.1182,0.1256,0.2976,0.4203,0.4731,0.4605,0.4311,0.0,0.0,0.0,0.0,0.0,0.0,0.0,0.0,0.0,0.0,0.0,0.0,0.0,0.0,0.0,0.0,0.0,0.0,0.0,0.0,0.0,0.0,0.0,0.2096,0.0,0.0,0.0,0.0,0.0,0.0,0.0,0.0,0.0,0.3384,0.3721,0.4222,0.5005,0.4788,0.4683,0.4974,0.0,0.0,0.0,0.0,0.0,0.0,0.0,0.5442,0.5312,0.5217,0.5538,0.635,0.6824,0.6887,0.6222,0.0,0.0,0.5148,0.5115,0.5278,0.5271,0.5152,0.4839,0.4266,0.4359,0.4567,0.0,0.0,0.0,0.0,0.0,0.0,0.0,0.0,-0.2381,-0.1935,0.0,-0.3108,0.0,0.0,0.0,0.0,-0.2773,-0.2314,0.0,0.0,-0.108,-0.0548,-0.1244,-0.0488,-0.0617,-0.1722,-0.2403,-0.3958,-0.6031,-0.5068,0.0,0.0,0.0,0.0,0.0,0.0,-0.1222,-0.11,0.0421,0.1168,0.1244,0.1198,0.1213,0.1366,0.4878,0.6587,0.6332,0.6175,0.6019,0.5793,0.4212,0.0,0.0,0.0,0.0,0.0,0.0,0.0,0.0,0.0,0.0,0.0,0.0,0.0,0.0,0.0,0.0,0.0,0.0,0.0,0.0,0.1577,0.0,0.0,0.0,0.0,0.0,0.0,0.0,0.0,0.0,0.0,0.3454,0.402,0.4624,0.5062,0.0,0.0,0.0,0.0,0.4783,0.3854,0.3821,0.4004,0.3988,0.4593,0.5156,0.543,0.0,0.0,0.6697,0.7302,0.7322,0.6394,0.6232,0.6195,0.5962,0.5724,0.5575,0.5581,0.5471,0.5198,0.4864,0.4871,0.514,-0.4203,0.0,0.0,0.0,0.0,-0.2679,-0.2789,-0.3564,-0.3222,-0.2132,-0.0721,-0.2359,0.0,0.0,0.0,0.0,0.0,0.0,-0.1275,-0.2456,-0.2092,-0.1374,-0.039,-0.0136,-0.0207,-0.0541,-0.1963,-0.3874,-0.6094,-0.5907,-0.4647,-0.264,0.0,0.0,0.0,0.0,-0.1283,-0.0422,0.066,0.1209,0.1308,0.124,0.1708,0.256,0.4761,0.6083,0.6256,0.6821,0.6741,0.6026,0.5537,0.0,0.0,0.0,0.0,0.0,0.0,0.0,0.0,0.0,0.0,0.0,0.0,0.0,0.0,0.0,0.0,0.0,0.0,0.0,0.1516,0.1497,0.157,0.0,0.0,0.0,0.0,0.0,0.0,0.0,0.0,0.0,0.4106,0.3914,0.4118,0.0,0.0,0.4294,0.5082,0.5004,0.4771,0.4777,0.5053,0.0,0.5843,0.602,0.6071,0.5943,0.584,0.608,0.6926,0.7139,0.7204,0.707,0.6933,0.6802,0.6774,0.6711,0.6623,0.6636,0.6589,0.65,0.6195,0.6103,0.6286,-0.4662,-0.4259,-0.4014,-0.3765,-0.3512,-0.2795,-0.2359,-0.2178,-0.218,-0.1359,-0.0122,-0.1609,-0.208,-0.1721,-0.3013,0.0,0.0,0.0,-0.0509,-0.1357,-0.1563,-0.1043,0.0,0.0,0.0,0.0,-0.1141,-0.2357,-0.3721,-0.3754,-0.347,-0.2854,0.0,0.0,-0.39,-0.2491,-0.1266,-0.0219,0.0755,0.1239,0.1335,0.1336,0.1727,0.2663,0.454,0.5634,0.5699,0.6861,0.7231,0.6644,0.6292,0.5597,0.0,0.0,0.0,0.0,0.0,0.0,0.0,0.0,0.0,0.0,0.0,0.229,0.1762,0.0,0.0,0.0,0.2042,0.2012,0.1556,0.1304,0.0,0.0,0.0,0.0,0.0,0.0,0.0,0.2515,0.3551,0.4368,0.4621,0.4394,0.4304,0.4693,0.4693,0.4831,0.5562,0.0,0.5434,0.5435,0.5564,0.5846,0.6192,0.6387,0.657,0.6653,0.6497,0.6757,0.7439,0.7749,0.7952,0.8116,0.7699,0.74,0.7688,0.7396,0.7075,0.7074,0.7139,0.7084,0.7011,0.6962,0.7031,-0.5223,-0.4844,-0.4492,-0.3913,-0.3329,-0.3331,-0.2052,0.0,0.0,0.0,0.0,-0.0938,-0.127,-0.1369,-0.2681,0.0,-0.2393,-0.0773,0.0,0.0,0.0,0.0,0.0,0.0,0.0,0.0,0.0,0.0,0.0,0.0,-0.141,-0.4036,-0.4101,-0.4176,-0.4266,-0.2553,-0.1238,-0.0439,0.0612,0.1254,0.1257,0.1336,0.1492,0.1959,0.4146,0.5243,0.5079,0.6553,0.7484,0.7472,0.6644,0.6183,0.6015,0.0,0.0,0.0,0.0,0.0,0.0,0.0,0.0,0.0,0.0,0.0,0.0,0.0,0.0,0.0,0.1866,0.0,0.1547,0.1033,0.0,0.0,0.0,0.1248,0.1824,0.2024,0.2452,0.329,0.0,0.0,0.504,0.524,0.5199,0.4736,0.5803,0.6482,0.6123,0.6263,0.6301,0.5835,0.5746,0.5689,0.5908,0.6399,0.6939,0.7451,0.7272,0.7408,0.8236,0.8982,0.9411,0.9396,0.8535,0.7862,0.8556,0.7862,0.7254,0.7276,0.717,0.7268,0.7506,0.7478,0.7343,-0.5691,-0.5662,-0.5108,-0.333,-0.0851,-0.085,-0.0498,0.0,0.0,0.0,0.0,-0.0214,-0.0356,-0.0355,-0.0713,-0.079,-0.0578,-0.0217,0.0,0.0,0.0,0.0,0.0,0.0,0.0,0.0,0.0,0.0,0.0,0.0,-0.0892,-0.2527,-0.26,-0.3123,-0.3971,-0.3436,-0.2276,-0.0599,-0.0,0.0539,0.1256,0.1336,0.1649,0.2353,0.2896,0.3908,0.5389,0.6321,0.7026,0.7484,0.7247,0.6761,0.5895,0.509,0.0,0.0,0.0,0.0,0.0,0.0,0.0,0.0,0.0,0.2534,0.1843,0.0,0.2626,0.0,0.1627,0.1771,0.224,0.1681,0.0,0.0,0.1243,0.2089,0.3459,0.3754,0.4234,0.5076,0.5576,0.5925,0.5967,0.6275,0.6551,0.6818,0.6157,0.6077,0.6961,0.674,0.6422,0.6407,0.6706,0.7067,0.7048,0.7617,0.8151,0.8428,0.7725,0.7681,0.9271,1.0201,1.0542,0.9759,0.9186,0.889,0.9059,0.8845,0.8505,0.8089,0.7684,0.7509,0.7584,0.7509,0.738,-0.5904,-0.5639,-0.4525,-0.3299,-0.2103,-0.0623,0.0,0.0,0.0,0.0,0.0,0.0,0.0,0.0,0.0,0.0,0.0,0.0,0.0,0.0,0.0,0.0,0.0,0.0,0.0,0.0,0.0,0.0,0.0,0.0,-0.0693,-0.2078,-0.2772,-0.3402,-0.4005,-0.3489,-0.2561,-0.1262,-0.0451,0.0383,0.1256,0.1336,0.1406,0.1545,0.1693,0.2447,0.3929,0.4755,0.551,0.619,0.619,0.5929,0.5332,0.4637,0.4025,0.0,0.0,0.0,0.0,0.0,0.0,0.0,0.0,0.0,0.0,0.0,0.3139,0.2275,0.2262,0.2511,0.2893,0.2802,0.2685,0.2679,0.3129,0.3616,0.4316,0.4713,0.5241,0.5935,0.664,0.705,0.6891,0.7102,0.7305,0.7557,0.6894,0.6563,0.7161,0.7118,0.6908,0.6976,0.7247,0.7684,0.7923,0.8658,0.923,0.9288,0.8802,0.8881,1.0193,1.1261,1.1684,1.0874,1.0371,1.0062,1.006,1.0319,1.0181,0.9293,0.8695,0.8191,0.7499,0.735,0.7265,-0.5986,-0.5346,-0.3674,-0.3723,-0.477,-0.1444,0.0,0.0,0.0,0.0,0.0,0.0,0.0,0.0,0.0,0.0,0.0,0.0,0.0,0.0,0.0,0.0,0.0,0.0,0.0,0.0,0.0,0.0,0.0,0.0,-0.063,-0.1886,-0.3456,-0.4185,-0.4,-0.309,-0.2324,-0.1964,-0.0598,0.0459,0.1173,0.1247,0.1001,0.0377,0.0375,0.089,0.196,0.2894,0.3761,0.4491,0.4563,0.4651,0.4678,0.4006,0.3681,0.0,0.2995,0.0,0.0,0.0,0.0,0.0,0.0,0.0,0.0,0.4222,0.3893,0.3139,0.3336,0.3515,0.3605,0.3988,0.4487,0.5007,0.5282,0.518,0.4752,0.5223,0.5781,0.6347,0.7334,0.7856,0.7614,0.7709,0.7767,0.7723,0.7539,0.7279,0.7268,0.7316,0.7407,0.7577,0.7485,0.7756,0.8613,0.9486,0.9992,1.018,1.0336,1.058,1.115,1.205,1.2597,1.2204,1.1666,1.1354,1.1211,1.1707,1.1631,1.0357,0.9875,0.9178,0.7652,0.7252,0.7231,-0.6062,-0.5481,-0.3648,-0.3704,-0.4718,-0.1421,0.0,0.0,0.0,0.0,0.0,0.0,0.0,0.0,0.0,0.0,0.0,0.0,0.0,0.0,0.0,0.0,0.0,0.0,0.0,0.0,0.0,0.0,0.0,0.0,-0.016,-0.047,-0.3003,-0.3695,-0.2569,0.0,0.0,0.0,-0.0149,0.0455,0.0609,0.1046,0.0959,0.022,-0.1025,0.0,0.2249,0.2611,0.3188,0.4272,0.4344,0.0,0.0,0.0,0.0,0.0,0.0,0.0,0.0,0.0,0.0,0.0,0.4444,0.4428,0.4416,0.4708,0.4699,0.4173,0.4562,0.4625,0.4112,0.4279,0.446,0.4644,0.4743,0.5125,0.5805,0.6108,0.6547,0.723,0.7627,0.7756,0.7628,0.7624,0.7665,0.7716,0.7634,0.758,0.7614,0.7475,0.7434,0.7563,0.7577,0.7897,0.8806,0.9685,1.05,1.1139,1.1869,1.2234,1.2346,1.2592,1.2684,1.2382,1.2172,1.1957,1.1875,1.2356,1.2308,1.1042,1.0726,1.0031,0.7642,0.7757,0.8017,-0.6377,-0.5885,-0.4778,-0.3597,0.0,-0.0743,0.0,0.0,0.0,0.0,0.0,0.0,0.0,0.0,0.0,0.0,0.0,0.0,0.0,0.0,0.0,0.0,0.0,0.0,0.0,0.0,0.0,0.0,0.0,0.0,0.0,0.0,-0.217,-0.2622,-0.1569,-0.047,-0.0077,-0.0378,0.0077,0.0468,0.0798,0.0553,0.0468,0.0308,-0.0693,0.0,0.0,0.0,0.0,0.0,0.0,0.0,0.0,0.4714,0.0,0.5086,0.4807,0.4826,0.5336,0.5347,0.5479,0.585,0.5859,0.5641,0.5166,0.5182,0.5223,0.5015,0.5299,0.5395,0.5107,0.5558,0.5919,0.5891,0.6045,0.6293,0.6734,0.6951,0.72,0.7527,0.7662,0.7678,0.7607,0.7597,0.7614,0.7662,0.7631,0.7645,0.7733,0.7607,0.7539,0.7682,0.8154,0.8705,0.9563,1.036,1.1153,1.2052,1.257,1.2759,1.2759,1.2759,1.2721,1.2603,1.2479,1.2404,1.2498,1.2603,1.2609,1.201,1.1744,1.1376,1.008,0.9345,0.8864,-0.6584,-0.6374,-0.6088,-0.3854,-0.0491,-0.0097,0.0,0.0,0.0,0.0,0.0,0.0,0.0,0.0,0.0,0.0,0.0,0.0,0.0,0.0,0.0,0.0,0.0,0.0,0.0,0.0,0.0,0.0,0.0,0.0,0.0,0.0,-0.1182,-0.1432,-0.0758,0.059,0.0994,0.0481,0.0317,0.0564,0.1087,0.0167,-0.0165,0.0324,0.0081,0.048,0.1567,0.2034,0.2815,0.3992,0.4226,0.4399,0.4594,0.4676,0.4851,0.5052,0.5058,0.5468,0.6257,0.6189,0.6367,0.7037,0.7139,0.681,0.6037,0.5865,0.5759,0.5756,0.5953,0.6077,0.608,0.6918,0.7373,0.7373,0.7397,0.7421,0.7455,0.7556,0.7648,0.7638,0.7648,0.7624,0.7604,0.7597,0.7614,0.7634,0.7651,0.7689,0.7801,0.7763,0.7729,0.7838,0.8325,0.9205,1.0006,1.0792,1.1683,1.2268,1.2662,1.2759,1.2759,1.2759,1.2759,1.2748,1.2759,1.2743,1.2754,1.2823,1.2759,1.2759,1.2614,1.2527,1.2566,1.1213,1.02,-0.6908,-0.6594,-0.6694,-0.5092,-0.2404,-0.0688,0.0,0.0,0.0,0.0,0.0,0.0,0.0,0.0,0.0,0.0,0.0,0.0,0.0,0.0,0.0,0.0,0.0,0.0,0.0,0.0,0.0,0.0,0.0,0.0,0.0,0.0,-0.017,0.0,-0.0084,0.0842,0.1272,0.1201,0.0744,0.0488,0.0572,-0.008,-0.0317,-0.0237,0.0633,0.0946,0.0628,0.2591,0.3446,0.2974,0.3679,0.454,0.5375,0.5476,0.5823,0.6641,0.6753,0.686,0.6987,0.69,0.7007,0.7044,0.7139,0.7024,0.688,0.6886,0.6903,0.69,0.6851,0.6962,0.6972,0.7192,0.7373,0.7387,0.7489,0.7611,0.7709,0.7743,0.7763,0.7756,0.778,0.7726,0.7631,0.7607,0.7658,0.775,0.7784,0.7834,0.795,0.7994,0.7987,0.8004,0.8024,0.8531,0.9316,1.0113,1.09,1.1585,1.237,1.2759,1.2759,1.2759,1.2759,1.2759,1.2759,1.2759,1.2759,1.2759,1.2759,1.2759,1.2705,1.2716,1.2759,1.2346,1.2177,-0.6976,-0.6711,-0.6866,-0.6187,-0.48,-0.1403,0.0,0.0,0.0,0.0,0.0,0.0,0.0,0.0,0.0,0.0,0.0,0.0,0.0,0.0,0.0,0.0,0.0,0.0,0.0,0.0,0.0,0.0,0.0,0.0,0.0,0.0,0.0,0.0,0.0,0.0434,0.0697,0.1045,0.1024,0.1019,0.0944,0.0765,0.0592,0.0592,0.1185,0.1522,0.1775,0.3291,0.4216,0.4298,0.522,0.5948,0.6408,0.6417,0.6647,0.7041,0.7139,0.7139,0.7139,0.7139,0.7139,0.7139,0.7139,0.7139,0.7139,0.7139,0.7139,0.7143,0.721,0.7265,0.7268,0.7333,0.7404,0.7489,0.7492,0.7539,0.7665,0.7695,0.7699,0.7695,0.7695,0.7699,0.7712,0.7712,0.777,0.7902,0.7936,0.7963,0.8031,0.8038,0.8038,0.8038,0.8038,0.8333,0.9019,0.9916,1.0703,1.1487,1.2268,1.2759,1.2759,1.2759,1.2759,1.2759,1.2759,1.2759,1.2759,1.2759,1.2759,1.2759,1.2759,1.2759,1.2759,1.2759,1.2759,-0.7118,-0.6793,-0.6818,-0.6869,-0.6527,-0.2447,-0.0405,0.0,0.0,0.0,0.0,0.0,0.0,0.0,0.0,0.0,0.0,0.0,0.0,0.0,0.0,0.0,0.0,0.0,0.0,0.0,0.0,0.0,0.0,0.0,0.0,0.0,0.0,0.0,0.0,0.0,0.0267,0.0702,0.114,0.1413,0.1434,0.1436,0.1436,0.1436,0.1435,0.1793,0.2509,0.358,0.4469,0.5361,0.6251,0.6874,0.7051,0.7139,0.7139,0.7139,0.7139,0.7139,0.7139,0.7139,0.7139,0.7139,0.7139,0.7139,0.7139,0.7139,0.7139,0.7153,0.7241,0.7322,0.7356,0.737,0.7434,0.757,0.7495,0.7502,0.7624,0.7648,0.7665,0.7685,0.7702,0.7753,0.7831,0.7862,0.7906,0.8004,0.8038,0.8038,0.8038,0.8038,0.8038,0.8038,0.8038,0.8233,0.892,0.9612,1.0306,1.0993,1.2073,1.2467,1.2565,1.2565,1.2759,1.2759,1.2759,1.2759,1.2759,1.2759,1.2759,1.2759,1.2759,1.2759,1.2759,1.2759,1.2759,-0.722,-0.6801,-0.6777,-0.6838,-0.6538,-0.3925,-0.1842,0.0,0.0,0.0,0.0,0.0,0.0,0.0,0.0,0.0,0.0,0.0,0.0,0.0,0.0,0.0,0.0,0.0,0.0,0.0,0.0,0.0,0.0,0.0,0.0,0.0,0.0,0.0,0.0,0.0,0.0269,0.0715,0.1163,0.1432,0.1435,0.1436,0.1436,0.1436,0.1436,0.1436,0.1614,0.2778,0.3671,0.4378,0.5361,0.6251,0.6962,0.7139,0.7139,0.7139,0.7143,0.7139,0.7139,0.7139,0.7143,0.7139,0.7139,0.7143,0.7146,0.7143,0.7143,0.7163,0.7163,0.7241,0.735,0.738,0.7451,0.7597,0.7594,0.7634,0.776,0.779,0.7845,0.7984,0.7963,0.8004,0.7994,0.7997,0.8011,0.8031,0.8038,0.8038,0.8038,0.8038,0.8038,0.8038,0.8038,0.8038,0.8237,0.8825,0.9414,0.971,1.1385,1.2078,1.198,1.2273,1.2759,1.2759,1.2759,1.2759,1.2759,1.2759,1.2759,1.2759,1.2759,1.2759,1.2759,1.2759,1.2759,-0.71,-0.6796,-0.6586,-0.657,-0.6334,-0.4587,-0.3859,-0.3736,-0.242,-0.1209,0.0,0.0,0.0,0.0,0.0,0.0,0.0,0.0,0.0,0.0,0.0,0.0,0.0,0.0,0.0,0.0,0.0,0.0,0.0,0.0,0.0,0.0,0.0,0.0,0.0,0.0,0.009,0.0269,0.0718,0.1166,0.1346,0.1436,0.1436,0.1436,0.1436,0.1436,0.1525,0.251,0.3403,0.4289,0.5184,0.6163,0.7051,0.7139,0.7139,0.7146,0.7135,0.7145,0.7146,0.7131,0.7145,0.7146,0.7139,0.7173,0.7265,0.7278,0.7309,0.7383,0.7333,0.7339,0.7478,0.7506,0.7563,0.7692,0.7726,0.7784,0.7926,0.7943,0.7977,0.8031,0.8038,0.8038,0.8038,0.8038,0.8038,0.8038,0.8038,0.8038,0.8038,0.8038,0.8038,0.8038,0.8038,0.8038,0.8038,0.8627,0.9118,0.9414,1.0404,1.1194,1.2078,1.237,1.2759,1.2759,1.2759,1.2759,1.2759,1.2759,1.2759,1.2759,1.2759,1.2759,1.2759,1.2759,1.2759,-0.7039,-0.6742,-0.6539,-0.6445,-0.6361,-0.5338,-0.5448,-0.6173,-0.4742,-0.3226,-0.1816,-0.1109,-0.0504,0.0,0.0,0.0,0.0,0.0,0.0,0.0,0.0,0.0,0.0,0.0,0.0,0.0,0.0,0.0,0.0,0.0,0.0,0.0,0.0,0.0,0.0,0.0,0.0,0.0,0.0448,0.0897,0.1346,0.1436,0.1436,0.1436,0.1436,0.1436,0.1436,0.2062,0.3044,0.4287,0.4914,0.5894,0.7051,0.7139,0.716,0.7207,0.7212,0.7158,0.7268,0.7238,0.7154,0.7275,0.7234,0.7268,0.7394,0.7434,0.7502,0.7621,0.7556,0.7546,0.7631,0.7658,0.7723,0.7848,0.7872,0.7923,0.8021,0.8038,0.8035,0.8038,0.8038,0.8038,0.8038,0.8038,0.8038,0.8038,0.8038,0.8038,0.8038,0.8038,0.8038,0.8038,0.8038,0.8038,0.8038,0.8432,0.8825,0.8924,0.9517,1.031,1.1883,1.2273,1.2759,1.2759,1.2759,1.2759,1.2759,1.2759,1.2759,1.2759,1.2759,1.2759,1.2759,1.2759,1.2759,-0.7039,-0.6742,-0.6539,-0.6445,-0.6361,-0.6245,-0.6356,-0.6385,-0.6165,-0.607,-0.5574,-0.3734,-0.1915,0.0,0.0,0.0,0.0,0.0,0.0,0.0,0.0,0.0,0.0,0.0,0.0,0.0,0.0,0.0,0.0,0.0,0.0,0.0,0.0,0.0,0.0,0.0,0.0,0.0,0.0449,0.0897,0.1346,0.1436,0.1436,0.1436,0.1436,0.1436,0.1436,0.1436,0.2329,0.42,0.4378,0.527,0.6871,0.7143,0.721,0.7343,0.7377,0.7441,0.7529,0.7458,0.7434,0.7522,0.7431,0.7424,0.7567,0.7587,0.7655,0.779,0.7787,0.7787,0.7797,0.7804,0.7858,0.7987,0.8018,0.8028,0.8035,0.8038,0.8038,0.8038,0.8038,0.8038,0.8038,0.8038,0.8038,0.8038,0.8038,0.8038,0.8038,0.8038,0.8038,0.8038,0.8038,0.8038,0.8038,0.8137,0.8137,0.8237,0.8531,0.8832,1.031,1.159,1.2273,1.2759,1.2759,1.2759,1.2759,1.2759,1.2759,1.2759,1.2759,1.2759,1.2759,1.2759,1.2759,-0.7144,-0.6745,-0.6539,-0.6439,-0.6445,-0.6437,-0.6442,-0.6453,-0.6448,-0.6358,-0.6067,-0.4135,-0.353,-0.4142,-0.4145,-0.2625,0.0,0.0,0.0,0.0,0.0,0.0,0.0,0.0,0.0,0.0,0.0,0.0,0.0,0.0,0.0,0.0,0.0,0.0,0.0,0.0,0.0,0.0,0.0179,0.0448,0.0987,0.1256,0.1436,0.1436,0.1436,0.1436,0.1436,0.1436,0.2329,0.42,0.4289,0.5179,0.6881,0.7234,0.7356,0.7502,0.76,0.7638,0.7611,0.7634,0.7631,0.7594,0.755,0.758,0.7702,0.774,0.7797,0.7916,0.7957,0.796,0.7957,0.7957,0.7977,0.8024,0.8038,0.8038,0.8038,0.8038,0.8038,0.8038,0.8038,0.8038,0.8038,0.8038,0.8038,0.8038,0.8038,0.8038,0.8038,0.8038,0.8038,0.8038,0.8038,0.8038,0.8038,0.8038,0.8038,0.8038,0.8237,0.8928,1.0109,1.1683,1.2662,1.2759,1.2759,1.2759,1.2759,1.2759,1.2759,1.2759,1.2759,1.2759,1.2759,1.2856,1.2856,-0.7376,-0.6963,-0.6658,-0.6554,-0.6556,-0.6554,-0.6532,-0.6401,-0.6499,-0.6491,-0.6171,-0.4939,-0.5146,-0.6276,-0.6382,-0.4951,-0.2217,0.0,0.0,-0.1915,-0.0707,0.0,0.0,0.0,0.0,0.0,0.0,0.0,0.0,0.0,0.0,0.0,0.0,0.0,0.0,0.0,0.0,0.0,0.0,0.0181,0.0539,0.1076,0.1436,0.1436,0.1436,0.1436,0.1436,0.1436,0.2329,0.4022,0.4289,0.5196,0.6949,0.736,0.7512,0.7658,0.7753,0.7701,0.7753,0.7691,0.7694,0.7746,0.7699,0.7729,0.7862,0.7885,0.794,0.8011,0.8038,0.8038,0.8038,0.8035,0.8038,0.8038,0.8038,0.8038,0.8038,0.8038,0.8038,0.8038,0.8038,0.8038,0.8038,0.8038,0.8038,0.8038,0.8038,0.8038,0.8038,0.8038,0.8038,0.8038,0.8038,0.8038,0.8038,0.8038,0.8038,0.8038,0.8038,0.873,0.9715,1.1482,1.2662,1.2759,1.2759,1.2759,1.2759,1.2759,1.2759,1.2759,1.2759,1.2759,1.2856,1.2953,1.305,-0.7425,-0.72,-0.6904,-0.6774,-0.6768,-0.6766,-0.662,-0.6535,-0.683,-0.6785,-0.651,-0.6467,-0.6168,-0.6483,-0.6372,-0.6261,-0.5854,-0.5665,-0.5464,-0.4849,-0.2018,0.0,0.0,0.0,0.0,0.0,0.0,0.0,0.0,0.0,0.0,0.0,0.0,0.0,0.0,0.0,0.0,0.0,0.0,0.0,0.0,0.0811,0.1354,0.1352,0.1352,0.1353,0.1441,0.1439,0.2335,0.4032,0.4306,0.533,0.7106,0.7522,0.7662,0.7784,0.7821,0.7889,0.7987,0.7896,0.7896,0.7946,0.7889,0.7872,0.798,0.8014,0.8021,0.8035,0.8038,0.8038,0.8038,0.8038,0.8038,0.8038,0.8038,0.8038,0.8038,0.8038,0.8038,0.8038,0.8038,0.8038,0.8038,0.8038,0.8038,0.8038,0.8038,0.8038,0.8038,0.8038,0.8038,0.8038,0.8038,0.8038,0.8038,0.8038,0.8038,0.8038,0.8038,0.8333,0.9221,1.0596,1.2365,1.2759,1.2759,1.2759,1.2759,1.2759,1.2759,1.2759,1.2759,1.2764,1.2861,1.3055,1.334,-0.7644,-0.722,-0.7115,-0.7115,-0.7115,-0.7115,-0.7092,-0.7276,-0.7165,-0.7105,-0.6807,-0.5644,-0.5507,-0.6276,-0.6364,-0.6458,-0.6448,-0.6361,-0.4843,-0.2719,-0.3635,-0.2727,0.0,0.0,0.0,0.0,0.0,0.0,0.0,0.0,0.0,0.0,0.0,0.0,0.0,0.0,0.0,0.0,0.0,0.0,0.0,0.0,0.0749,0.131,0.1123,0.1029,0.1403,0.1478,0.2472,0.4383,0.4535,0.5455,0.7171,0.7719,0.7814,0.7943,0.7967,0.798,0.8021,0.7997,0.798,0.8021,0.7987,0.7991,0.8028,0.8038,0.8038,0.8038,0.8038,0.8038,0.8038,0.8038,0.8038,0.8038,0.8038,0.8038,0.8038,0.8038,0.8038,0.8038,0.8038,0.8038,0.8038,0.8038,0.8038,0.8038,0.8038,0.8038,0.8038,0.8038,0.8038,0.8038,0.8038,0.8038,0.8038,0.8038,0.8038,0.8038,0.8038,0.8038,0.8825,1.04,1.2073,1.2759,1.2759,1.2759,1.2759,1.2759,1.2759,1.2759,1.2759,1.2861,1.2861,1.3152,1.3443,-0.8006,-0.7466,-0.7469,-0.7469,-0.7362,-0.7469,-0.7547,-0.7724,-0.7505,-0.7437,-0.7029,-0.6059,-0.5896,-0.6545,-0.6524,-0.6486,-0.6442,-0.6448,-0.4937,-0.292,-0.4853,-0.4756,-0.2223,-0.0606,0.0,0.0,0.0,0.0,0.0,0.0,0.0,0.0,0.0,0.0,0.0,0.0,0.0,0.0,0.0,0.0,0.0,0.0,0.0286,0.0763,0.0763,0.0858,0.1239,0.1895,0.3012,0.4404,0.532,0.6466,0.7711,0.7862,0.794,0.8011,0.8038,0.8038,0.8038,0.8035,0.8038,0.8038,0.8038,0.8038,0.8038,0.8038,0.8038,0.8038,0.8038,0.8038,0.8038,0.8038,0.8038,0.8038,0.8038,0.8038,0.8038,0.8038,0.8038,0.8038,0.8038,0.8038,0.8038,0.8038,0.8038,0.8038,0.8038,0.8038,0.8038,0.8038,0.8038,0.8038,0.8038,0.8038,0.8038,0.8038,0.8038,0.8038,0.8038,0.8038,0.8333,1.0792,1.2759,1.2759,1.2759,1.2759,1.2759,1.2759,1.2759,1.2759,1.2759,1.2764,1.2861,1.3346,1.3829,-0.8374,-0.8045,-0.8042,-0.7916,-0.7695,-0.7913,-0.8066,-0.7973,-0.7852,-0.7785,-0.7475,-0.7129,-0.7064,-0.7082,-0.6724,-0.6551,-0.6461,-0.6437,-0.6253,-0.5861,-0.6078,-0.5365,-0.425,-0.1313,0.0,0.0,0.0,0.0,0.0,0.0,0.0,0.0,0.0,0.0,0.0,0.0,0.0,0.0,0.0,0.0,0.0,0.0,0.0,0.0,0.048,0.0769,0.1156,0.2819,0.4078,0.4888,0.6597,0.7634,0.7855,0.7963,0.8031,0.8038,0.8038,0.8038,0.8038,0.8038,0.8038,0.8038,0.8038,0.8038,0.8038,0.8038,0.8038,0.8038,0.8038,0.8038,0.8038,0.8038,0.8038,0.8038,0.8038,0.8038,0.8038,0.8038,0.8038,0.8038,0.8038,0.8038,0.8038,0.8038,0.8038,0.8038,0.8038,0.8038,0.8038,0.8038,0.8038,0.8038,0.8038,0.8038,0.8038,0.8038,0.8038,0.8038,0.8137,0.8237,0.873,1.1091,1.2759,1.2759,1.2759,1.2759,1.2759,1.2759,1.2759,1.2759,1.2759,1.2759,1.305,1.3437,1.4208,-0.8491,-0.8042,-0.8266,-0.8374,-0.8263,-0.8377,-0.8472,-0.8546,-0.8426,-0.8019,-0.7714,-0.7472,-0.7192,-0.6981,-0.6771,-0.6495,-0.6455,-0.638,-0.6453,-0.6168,-0.4643,-0.3128,-0.1919,0.0,0.0,0.0,0.0,0.0,0.0,0.0,0.0,0.0,0.0,0.0,0.0,0.0,0.0,0.0,0.0,0.0,0.0,0.0,0.0,0.0,0.0497,0.0994,0.1592,0.399,0.5487,0.5955,0.7159,0.798,0.7974,0.8014,0.8038,0.8038,0.8038,0.8038,0.8038,0.8038,0.8038,0.8038,0.8038,0.8038,0.8038,0.8038,0.8038,0.8038,0.8038,0.7939,0.8038,0.7939,0.7939,0.8038,0.8038,0.8038,0.8038,0.8038,0.8038,0.8038,0.8038,0.8038,0.8038,0.8038,0.8038,0.8038,0.8038,0.8038,0.8038,0.8038,0.8038,0.8038,0.8038,0.8038,0.8038,0.8038,0.8038,0.8038,0.8237,0.8733,0.9719,1.1585,1.2467,1.2759,1.2759,1.2759,1.2759,1.2759,1.2759,1.2759,1.2759,1.2759,1.305,1.3437,1.4394,-0.8602,-0.8266,-0.8488,-0.8488,-0.8377,-0.8488,-0.8595,-0.8602,-0.8377,-0.8339,-0.8163,-0.7819,-0.7533,-0.7523,-0.7229,-0.684,-0.6466,-0.6567,-0.6636,-0.5819,-0.324,-0.1312,0.0,0.0,0.0,0.0,0.0,0.0,0.0,0.0,0.0,0.0,0.0,0.0,0.0,0.0,0.0,0.0,0.0,0.0,0.0,0.0,0.0,0.0,0.0404,0.0909,0.2017,0.3823,0.5127,0.6132,0.7235,0.8038,0.8038,0.8038,0.8038,0.8038,0.8038,0.8038,0.8038,0.8038,0.8038,0.8038,0.8038,0.8038,0.8038,0.8038,0.8038,0.8038,0.8038,0.7839,0.7739,0.7637,0.7739,0.7939,0.8038,0.8038,0.8038,0.8038,0.8038,0.8038,0.8038,0.8038,0.8038,0.8038,0.8038,0.8038,0.8038,0.8038,0.8038,0.8038,0.8038,0.8038,0.8038,0.8038,0.8038,0.8038,0.8038,0.8038,0.8137,0.8634,1.0408,1.1883,1.2375,1.2764,1.2764,1.2759,1.2759,1.2759,1.2759,1.2759,1.2759,1.2856,1.305,1.334,1.4394,-0.8712,-0.8595,-0.8823,-0.8602,-0.8266,-0.8374,-0.8595,-0.8484,-0.8263,-0.8374,-0.8478,-0.8042,-0.7752,-0.8202,-0.7492,-0.7226,-0.6484,-0.6799,-0.6432,-0.4947,0.0,0.0,0.0,0.0,0.0,0.0,0.0,0.0,0.0,0.0,0.0,0.0,0.0,0.0,0.0,0.0,0.0,0.0,0.0,0.0,0.0,0.0,0.0,0.0,0.0,0.0,0.2417,0.3417,0.4321,0.6042,0.7341,0.7939,0.8038,0.8038,0.8038,0.8038,0.8038,0.8038,0.8038,0.8038,0.8038,0.8038,0.8038,0.8038,0.8038,0.8038,0.7939,0.7836,0.7939,0.7637,0.7235,0.7135,0.7238,0.7537,0.7736,0.7939,0.7939,0.7939,0.8038,0.8038,0.8038,0.8038,0.8038,0.8038,0.8038,0.8038,0.8038,0.8038,0.8038,0.8038,0.8038,0.8038,0.8038,0.8038,0.8038,0.8038,0.8038,0.8038,0.8038,0.863,1.0605,1.1888,1.2381,1.2575,1.2478,1.257,1.2759,1.2759,1.2759,1.2759,1.2759,1.2759,1.2856,1.3244,1.4016,-0.8826,-0.8823,-0.8937,-0.883,-0.8716,-0.8826,-0.8823,-0.8712,-0.8488,-0.8377,-0.8045,-0.7379,-0.726,-0.7462,-0.7035,-0.6642,-0.6937,-0.6823,-0.5877,-0.3621,-0.1344,0.0,0.0,0.0,0.0,0.0,0.0,0.0,0.0,0.0,0.0,0.0,0.0,0.0,0.0,0.0,0.0,0.0,0.0,0.0,0.0,0.0,0.0,0.0,0.0,0.0,0.3736,0.4438,0.5242,0.655,0.7447,0.7939,0.7939,0.8038,0.8038,0.8038,0.8038,0.8038,0.7939,0.7939,0.7939,0.7939,0.7839,0.8038,0.8038,0.7939,0.7736,0.7537,0.7338,0.7135,0.6736,0.6537,0.6736,0.6836,0.7135,0.7338,0.7437,0.7736,0.7939,0.8038,0.8038,0.8038,0.8038,0.8038,0.8038,0.8038,0.8038,0.8038,0.8038,0.8038,0.8038,0.8038,0.8038,0.8038,0.8038,0.8038,0.8038,0.8038,0.8038,0.8137,1.0109,1.1492,1.179,1.1991,1.2196,1.2381,1.2764,1.2759,1.2759,1.2759,1.2759,1.2759,1.2856,1.3147,1.334,-0.8937,-0.8937,-0.8937,-0.8823,-0.8709,-0.8709,-0.8709,-0.8709,-0.8595,-0.8488,-0.8269,-0.7823,-0.7604,-0.7721,-0.7323,-0.7408,-0.7382,-0.7175,-0.6199,-0.4313,0.0,0.0,0.0,0.0,0.0,0.0,0.0,0.0,0.0,0.0,0.0,0.0,0.0,0.0,0.0,0.0,0.0,0.0,0.0,0.0,0.0,0.0,0.0,0.0,0.0,0.101,0.2219,0.4138,0.5044,0.6047,0.7042,0.7736,0.7939,0.8038,0.8038,0.8038,0.8038,0.8038,0.7939,0.7739,0.764,0.764,0.7437,0.7238,0.7238,0.7238,0.7138,0.6936,0.6836,0.6634,0.6437,0.6137,0.6137,0.6437,0.6637,0.6836,0.6936,0.7537,0.8038,0.8038,0.8038,0.8038,0.8038,0.8038,0.8038,0.8038,0.8038,0.8038,0.8038,0.8038,0.8038,0.8038,0.8038,0.8038,0.8038,0.8038,0.8038,0.8038,0.8038,0.8137,0.8928,1.0113,1.1007,1.1399,1.1888,1.2381,1.2764,1.2764,1.2759,1.2764,1.2764,1.2764,1.2856,1.2953,1.305,-0.8937,-0.8937,-0.8937,-0.8823,-0.8595,-0.8595,-0.8484,-0.8374,-0.826,-0.8266,-0.8491,-0.8266,-0.7709,-0.7934,-0.7718,-0.7727,-0.7362,-0.6189,-0.5005,-0.5794,-0.179,0.0,0.0,0.0,0.0,0.0,0.0,0.0,0.0,0.0,0.0,0.0,0.0,0.0,0.0,0.0,0.0,0.0,0.0,0.0,0.0,0.0,0.0,0.0,0.0,0.0908,0.1815,0.3327,0.4943,0.5035,0.6237,0.7138,0.7739,0.7939,0.8038,0.8038,0.8038,0.8038,0.7939,0.7537,0.7235,0.7138,0.6736,0.6437,0.6437,0.6537,0.6437,0.6237,0.6134,0.6037,0.6137,0.5737,0.5737,0.6037,0.6137,0.6237,0.6437,0.7138,0.7537,0.7836,0.7736,0.7736,0.7939,0.8038,0.8038,0.8038,0.8038,0.8038,0.8038,0.8038,0.8038,0.8038,0.8038,0.8038,0.8038,0.8038,0.8038,0.8038,0.8038,0.8233,0.8333,0.8928,1.0015,1.1189,1.1775,1.2068,1.2268,1.2268,1.2268,1.2565,1.237,1.2078,1.2273,1.2662,1.2759,-0.8937,-0.8937,-0.8937,-0.8826,-0.8826,-0.8823,-0.8374,-0.7817,-0.7587,-0.7485,-0.7371,-0.6707,-0.6591,-0.649,-0.6267,-0.6272,-0.5483,-0.3671,-0.3534,-0.5233,0.0,0.0,0.0,0.0,0.0,0.0,0.0,0.0,0.0,0.0,0.0,0.0,0.0,0.0,0.0,0.0,0.0,0.0,0.0,0.0,0.0,0.0,0.0,0.0606,0.2425,0.2827,0.2521,0.3731,0.5041,0.5436,0.5734,0.6437,0.7138,0.7637,0.7839,0.7939,0.7839,0.7839,0.7739,0.7437,0.7235,0.7135,0.6637,0.6337,0.6337,0.6337,0.6034,0.5734,0.5334,0.5133,0.5033,0.5035,0.5035,0.5236,0.5436,0.5734,0.5834,0.6234,0.6836,0.7135,0.7238,0.7437,0.7637,0.7839,0.7939,0.7939,0.8038,0.8038,0.8038,0.8038,0.8038,0.8038,0.8038,0.8038,0.8038,0.8038,0.8038,0.8038,0.8038,0.8432,0.8432,0.8333,0.9023,1.0002,1.0685,1.0979,1.1179,1.1477,1.1678,1.178,1.1585,1.1292,1.1688,1.2175,1.2565,-0.8937,-0.8937,-0.8937,-0.8937,-0.8937,-0.8937,-0.8332,-0.7716,-0.7828,-0.7719,-0.7388,-0.7177,-0.6882,-0.6475,-0.5592,-0.4815,-0.3249,-0.1454,-0.1449,-0.2539,0.0,0.0,0.0,0.0,0.0,0.0,0.0,0.0,0.0,0.0,0.0,0.0,0.0,0.0,0.0,0.0,0.0,0.0,0.0,0.0,0.0,0.0,0.0,0.2626,0.3739,0.4246,0.4041,0.4239,0.4845,0.5142,0.5436,0.5834,0.6334,0.6836,0.7338,0.7437,0.7338,0.7238,0.7138,0.6736,0.6334,0.6237,0.5937,0.5634,0.5534,0.5536,0.5536,0.5233,0.5033,0.4832,0.4832,0.4832,0.4832,0.4834,0.5033,0.5135,0.5236,0.5434,0.5934,0.6437,0.6637,0.6936,0.7437,0.754,0.7739,0.7839,0.7939,0.8038,0.8038,0.8038,0.8038,0.8038,0.8038,0.8038,0.8038,0.8038,0.8038,0.8038,0.8038,0.8432,0.8432,0.8233,0.8233,0.8726,0.9213,0.9899,1.0395,1.0895,1.0895,1.0895,1.0801,1.0708,1.1198,1.159,1.1878,-0.8893,-0.8893,-0.8893,-0.8876,-0.8849,-0.8849,-0.8333,-0.7702,-0.7797,-0.769,-0.7257,-0.7265,-0.7103,-0.6406,-0.5111,-0.3681,-0.2129,-0.112,-0.1007,-0.0781,0.0,0.0,0.0,0.0,0.0,0.0,0.0,0.0,0.0,0.0,0.0,0.0,0.0,0.0,0.0,0.0,0.0,0.0,0.0,0.0,0.0,0.0,0.1515,0.4448,0.4754,0.4752,0.4647,0.4744,0.4742,0.4941,0.514,0.5536,0.5636,0.5937,0.6334,0.6736,0.6537,0.6437,0.6337,0.5937,0.5734,0.5734,0.5133,0.4935,0.4834,0.4933,0.4832,0.4832,0.4832,0.4832,0.4832,0.4832,0.4832,0.4834,0.4834,0.4834,0.4834,0.5033,0.5133,0.5534,0.5934,0.6337,0.6839,0.7338,0.7537,0.7839,0.8038,0.8038,0.8038,0.8038,0.8038,0.8038,0.8038,0.8038,0.8038,0.8038,0.8038,0.8038,0.8038,0.8137,0.8137,0.8038,0.8137,0.8233,0.863,0.9414,0.9813,1.0109,0.9899,0.9899,0.9916,0.992,0.9916,1.0207,1.0498,-0.8737,-0.8737,-0.8737,-0.8662,-0.8557,-0.8554,-0.8111,-0.724,-0.6706,-0.6172,-0.6278,-0.5543,-0.5341,-0.4953,-0.4261,-0.3653,-0.324,-0.2918,-0.2355,-0.1566,0.0,0.0,0.0,0.0,0.0,0.0,0.0,0.0,0.0,0.0,0.0,0.0,0.0,0.0,0.0,0.0,0.0,0.0,0.0,0.0,0.0,0.0,0.0,0.3939,0.4748,0.4746,0.4746,0.4841,0.4836,0.4834,0.4834,0.5135,0.5436,0.5135,0.5334,0.5734,0.6134,0.6437,0.6234,0.5834,0.5534,0.5434,0.5033,0.4832,0.4832,0.4832,0.4832,0.4832,0.4832,0.4832,0.4832,0.4832,0.4832,0.4832,0.4832,0.4832,0.4832,0.4834,0.4933,0.4933,0.5334,0.5737,0.6237,0.6839,0.7338,0.7739,0.8038,0.7939,0.8038,0.8038,0.8038,0.8038,0.8038,0.8038,0.8038,0.8038,0.8038,0.8038,0.8038,0.8038,0.8038,0.8038,0.8038,0.8137,0.8531,0.873,0.9122,0.9213,0.8905,0.8909,0.9122,0.873,0.8336,0.8627,0.9316,-0.8509,-0.8581,-0.8577,-0.8543,-0.8486,-0.8482,-0.8011,-0.7327,-0.7214,-0.7004,-0.6583,-0.6274,-0.5575,-0.4684,-0.3905,-0.3623,-0.3544,-0.3575,-0.3369,-0.2919,-0.2111,-0.153,0.0,0.0,0.0,0.0,0.0,0.0,0.0,0.0,0.0,0.0,0.0,0.0,0.0,0.0,0.0,0.0,0.0,0.0,0.0,0.0,0.1513,0.4551,0.4746,0.4742,0.4839,0.4836,0.4832,0.4832,0.4832,0.4935,0.5035,0.4935,0.4933,0.5133,0.5334,0.5434,0.5436,0.5233,0.5233,0.5133,0.4935,0.4834,0.4832,0.4832,0.4832,0.4832,0.4832,0.4832,0.4832,0.4832,0.4832,0.4832,0.4832,0.4832,0.4832,0.4832,0.4832,0.4832,0.4834,0.5236,0.5737,0.6337,0.6936,0.7537,0.7839,0.7839,0.7939,0.8038,0.8038,0.8038,0.8038,0.8038,0.8038,0.8038,0.8038,0.8038,0.8038,0.8038,0.8038,0.8038,0.8038,0.8038,0.8237,0.8333,0.8528,0.8524,0.8421,0.8326,0.8233,0.8137,0.8038,0.8038,0.8531,-0.8275,-0.8374,-0.8411,-0.8411,-0.837,-0.837,-0.7994,-0.7394,-0.7391,-0.7187,-0.6774,-0.6167,-0.5294,-0.4434,-0.3749,-0.3462,-0.3503,-0.3548,-0.3578,-0.3587,-0.3467,-0.2969,-0.215,0.0,0.0,0.0,0.0,0.0,0.0,0.0,0.0,0.0,0.0,0.0,0.0,0.0,0.0,0.0,0.0,0.0,0.0,0.0,0.2017,0.3734,0.4744,0.4839,0.4834,0.4832,0.4832,0.4832,0.4832,0.4834,0.4834,0.4834,0.4834,0.4832,0.4933,0.4933,0.4933,0.4832,0.4834,0.4832,0.4832,0.4832,0.4832,0.4832,0.4832,0.4832,0.4832,0.4832,0.4832,0.4832,0.4832,0.4832,0.4832,0.4832,0.4832,0.4832,0.4832,0.4832,0.4832,0.4832,0.5233,0.5834,0.6534,0.7338,0.7637,0.7736,0.7839,0.7939,0.8038,0.8038,0.8038,0.8038,0.8038,0.8038,0.8038,0.8038,0.8038,0.8038,0.8038,0.8038,0.8038,0.8038,0.8038,0.8038,0.8233,0.8137,0.8038,0.8038,0.8137,0.8038,0.8038,0.8038,0.8038,-0.8058,-0.8082,-0.8228,-0.8211,-0.8085,-0.8069,-0.7969,-0.7572,-0.6458,-0.5856,-0.5562,-0.4349,-0.3888,-0.3424,-0.3455,-0.3403,-0.3489,-0.35,-0.3529,-0.3564,-0.3579,-0.3396,-0.3004,-0.2536,-0.1882,-0.0508,0.0,0.0,0.0,0.0,0.0,0.0,0.0,0.0,0.0,0.0,0.0,0.101,0.2626,0.3841,0.323,0.2217,0.2014,0.4034,0.4839,0.4834,0.4832,0.4832,0.4832,0.4832,0.4832,0.4832,0.4832,0.4832,0.4832,0.4832,0.4832,0.4832,0.4832,0.4832,0.4832,0.4832,0.4832,0.4832,0.4832,0.4832,0.4832,0.4832,0.4832,0.4832,0.4832,0.4832,0.4832,0.4832,0.4832,0.4832,0.4832,0.4832,0.4832,0.4832,0.4832,0.4832,0.4834,0.5434,0.5634,0.6434,0.7135,0.7335,0.7637,0.7836,0.7939,0.8038,0.8038,0.8038,0.8038,0.8038,0.8038,0.8038,0.8038,0.8038,0.8038,0.8038,0.8038,0.8038,0.8038,0.8038,0.8038,0.8038,0.8038,0.8038,0.8038,0.8038,0.8038,0.8038,0.8038,-0.8038,-0.8045,-0.8102,-0.8096,-0.7939,-0.7434,-0.7235,-0.7132,-0.6134,-0.5334,-0.4832,-0.4234,-0.3644,-0.3372,-0.3309,-0.3342,-0.3392,-0.3432,-0.3459,-0.347,-0.3469,-0.3429,-0.3377,-0.3243,-0.269,-0.1724,0.0,0.0,0.0,0.0,0.0,0.0,0.0,0.0,0.0,0.0,0.0,0.2727,0.3942,0.4754,0.4549,0.3935,0.3528,0.4541,0.4839,0.4834,0.4832,0.4832,0.4832,0.4832,0.4832,0.4832,0.4832,0.4832,0.4832,0.4832,0.4832,0.4832,0.4832,0.4832,0.4832,0.4832,0.4832,0.4832,0.4832,0.4832,0.4832,0.4832,0.4832,0.4832,0.4832,0.4832,0.4832,0.4832,0.4832,0.4832,0.4832,0.4832,0.4832,0.4832,0.4832,0.4832,0.4834,0.5035,0.5133,0.5434,0.6234,0.6933,0.7335,0.7736,0.7939,0.8038,0.8038,0.8038,0.8038,0.8038,0.8038,0.8038,0.8038,0.8038,0.8038,0.8038,0.8038,0.8038,0.8038,0.8038,0.8038,0.8038,0.8038,0.8038,0.8038,0.8038,0.8038,0.8038,0.8038,-0.7839,-0.7637,-0.7637,-0.7637,-0.7534,-0.703,-0.6631,-0.6329,-0.5534,-0.4832,-0.4031,-0.4031,-0.3729,-0.3345,-0.327,-0.3309,-0.3334,-0.3368,-0.3395,-0.3413,-0.3417,-0.3375,-0.3339,-0.321,-0.309,-0.2838,-0.1917,0.0,0.0,0.0,0.0,0.0,0.0,0.0,0.0,0.0,0.1615,0.4043,0.4754,0.4754,0.475,0.4744,0.464,0.4843,0.4836,0.4834,0.4832,0.4832,0.4832,0.4832,0.4832,0.4832,0.4832,0.4832,0.4832,0.4832,0.4832,0.4832,0.4832,0.4832,0.4832,0.4832,0.4832,0.4832,0.4832,0.4832,0.4832,0.4832,0.4832,0.4832,0.4832,0.4832,0.4832,0.4832,0.4832,0.4832,0.4832,0.4832,0.4832,0.4832,0.4832,0.4832,0.4834,0.4935,0.5135,0.5434,0.6334,0.6936,0.7335,0.7637,0.7939,0.8038,0.8038,0.8038,0.8038,0.8038,0.8038,0.8038,0.8038,0.8038,0.8038,0.8038,0.8038,0.8038,0.8038,0.8038,0.8038,0.8038,0.8038,0.8038,0.8038,0.8038,0.8038,0.8038,0.8038,-0.7537,-0.6828,-0.683,-0.683,-0.6731,-0.6731,-0.6331,-0.5534,-0.473,-0.4031,-0.343,-0.333,-0.333,-0.3232,-0.3245,-0.3268,-0.3301,-0.3319,-0.3343,-0.3376,-0.3375,-0.336,-0.3332,-0.3301,-0.3277,-0.3243,-0.2624,-0.1615,-0.0202,0.0,0.0,0.0,0.0,0.0,0.0,0.0,0.1716,0.4246,0.4754,0.475,0.4744,0.4839,0.4836,0.4836,0.4836,0.4832,0.4832,0.4832,0.4832,0.4832,0.4832,0.4832,0.4832,0.4832,0.4832,0.4832,0.4832,0.4832,0.4832,0.4832,0.4832,0.4832,0.4832,0.4832,0.4832,0.4832,0.4832,0.4832,0.4832,0.4832,0.4832,0.4832,0.4832,0.4832,0.4832,0.4832,0.4832,0.4832,0.4832,0.4832,0.4832,0.4832,0.4832,0.4834,0.5133,0.5634,0.6434,0.6936,0.7335,0.7637,0.7939,0.8038,0.8038,0.8038,0.8038,0.8038,0.8038,0.8038,0.8038,0.8038,0.8038,0.8038,0.8038,0.8038,0.8038,0.8038,0.8038,0.8038,0.8038,0.8038,0.8038,0.8038,0.8038,0.8038,0.8038,-0.7033,-0.6728,-0.6232,-0.5732,-0.5229,-0.5229,-0.5029,-0.4732,-0.4031,-0.343,-0.323,-0.323,-0.323,-0.323,-0.3232,-0.3244,-0.3259,-0.3262,-0.3285,-0.3292,-0.3301,-0.3282,-0.3266,-0.3266,-0.3252,-0.3237,-0.3029,-0.2522,-0.1109,-0.0404,0.0,0.0,0.1919,0.0,0.0,0.3232,0.4041,0.4645,0.4746,0.4744,0.4839,0.4834,0.4832,0.4832,0.4832,0.4832,0.4832,0.4832,0.4832,0.4832,0.4832,0.4832,0.4832,0.4832,0.4832,0.4832,0.4832,0.4832,0.4832,0.4832,0.4832,0.4832,0.4832,0.4832,0.4832,0.4832,0.4832,0.4832,0.4832,0.4832,0.4832,0.4832,0.4832,0.4832,0.4832,0.4832,0.4832,0.4832,0.4832,0.4832,0.4832,0.4832,0.4832,0.4834,0.5033,0.5434,0.6134,0.6736,0.7138,0.7637,0.8038,0.8038,0.8038,0.8038,0.8038,0.8038,0.8038,0.8038,0.8038,0.8038,0.8038,0.8038,0.8038,0.8038,0.8038,0.8038,0.8038,0.8038,0.8038,0.8038,0.8038,0.8038,0.8038,0.8038,0.8038,-0.6628,-0.6334,-0.5532,-0.4732,-0.413,-0.4228,-0.4228,-0.393,-0.343,-0.323,-0.323,-0.323,-0.323,-0.323,-0.323,-0.323,-0.323,-0.3232,-0.3232,-0.323,-0.3233,-0.3237,-0.3236,-0.323,-0.3236,-0.323,-0.313,-0.2623,-0.1513,-0.0505,0.0,0.0,0.3639,0.4244,0.4549,0.4547,0.4649,0.4748,0.4746,0.4841,0.4836,0.4832,0.4832,0.4832,0.4832,0.4832,0.4832,0.4832,0.4832,0.4832,0.4832,0.4832,0.4832,0.4832,0.4832,0.4832,0.4832,0.4832,0.4832,0.4832,0.4832,0.4832,0.4832,0.4832,0.4832,0.4832,0.4832,0.4832,0.4834,0.4834,0.4834,0.4834,0.4832,0.4832,0.4832,0.4832,0.4832,0.4832,0.4832,0.4832,0.4832,0.4832,0.4834,0.4834,0.4935,0.5334,0.5834,0.6337,0.6839,0.7338,0.7839,0.7839,0.7939,0.8038,0.8038,0.8038,0.8038,0.8038,0.8038,0.8038,0.8038,0.8038,0.8038,0.8038,0.8038,0.8038,0.8038,0.8038,0.8038,0.8038,0.8038,0.8038,0.8038,0.8038,0.8038,-0.6232,-0.5534,-0.4732,-0.393,-0.343,-0.4031,-0.393,-0.323,-0.323,-0.323,-0.323,-0.323,-0.323,-0.323,-0.323,-0.323,-0.323,-0.323,-0.323,-0.323,-0.323,-0.323,-0.323,-0.323,-0.323,-0.323,-0.3029,-0.2624,-0.1513,0.0404,0.2323,0.3739,0.4448,0.475,0.4748,0.4748,0.4748,0.4744,0.4742,0.4839,0.4836,0.4832,0.4832,0.4832,0.4832,0.4832,0.4832,0.4832,0.4832,0.4832,0.4832,0.4832,0.4832,0.4832,0.4832,0.4832,0.4832,0.4832,0.4832,0.4832,0.4832,0.4832,0.4832,0.4832,0.4841,0.4847,0.4857,0.4853,0.4851,0.4843,0.4836,0.4834,0.4832,0.4832,0.4832,0.4832,0.4832,0.4832,0.4832,0.4832,0.4832,0.4832,0.4832,0.4834,0.4834,0.5035,0.5334,0.5634,0.6237,0.7039,0.7338,0.7437,0.7637,0.7939,0.8038,0.7939,0.8038,0.8038,0.8038,0.8038,0.8038,0.8038,0.8038,0.8038,0.8038,0.8038,0.8038,0.8038,0.8038,0.8038,0.8038,0.8038,0.8038,0.8038,0.8038,-0.4929,-0.463,-0.383,-0.343,-0.323,-0.343,-0.343,-0.323,-0.323,-0.323,-0.323,-0.323,-0.323,-0.323,-0.323,-0.323,-0.323,-0.323,-0.323,-0.323,-0.323,-0.323,-0.323,-0.323,-0.323,-0.323,-0.3029,-0.2522,-0.0907,0.1211,0.3233,0.4651,0.475,0.4746,0.4744,0.4742,0.4841,0.4839,0.4839,0.4836,0.4836,0.4834,0.4832,0.4832,0.4832,0.4832,0.4832,0.4832,0.4832,0.4832,0.4832,0.4832,0.4832,0.4832,0.4832,0.4832,0.4832,0.4832,0.4832,0.4832,0.4832,0.4836,0.4839,0.4834,0.4849,0.4871,0.4885,0.4879,0.4873,0.4867,0.4845,0.4834,0.4832,0.4832,0.4832,0.4832,0.4832,0.4832,0.4832,0.4832,0.4832,0.4832,0.4832,0.4834,0.4834,0.4834,0.4935,0.5135,0.5536,0.6437,0.6836,0.6936,0.7338,0.764,0.7942,0.7942,0.7939,0.8038,0.8038,0.8038,0.8038,0.8038,0.8038,0.8038,0.8038,0.8038,0.8038,0.8038,0.8038,0.8038,0.8038,0.8038,0.8038,0.8038,0.8038,-0.4427,-0.4329,-0.3531,-0.323,-0.323,-0.323,-0.323,-0.323,-0.323,-0.323,-0.323,-0.323,-0.323,-0.323,-0.323,-0.323,-0.323,-0.323,-0.323,-0.323,-0.323,-0.323,-0.323,-0.323,-0.323,-0.323,-0.2927,-0.2321,-0.0302,0.1816,0.394,0.475,0.4746,0.4744,0.4841,0.4839,0.4834,0.4834,0.4834,0.4832,0.4832,0.4832,0.4832,0.4832,0.4832,0.4832,0.4832,0.4832,0.4832,0.4832,0.4832,0.4832,0.4832,0.4832,0.4832,0.4832,0.4832,0.4832,0.4832,0.4832,0.4832,0.4845,0.4863,0.4865,0.4855,0.4863,0.4888,0.49,0.49,0.4892,0.4861,0.4832,0.4832,0.4832,0.4832,0.4832,0.4832,0.4832,0.4832,0.4832,0.4832,0.4832,0.4832,0.4832,0.4832,0.4834,0.4834,0.4935,0.5233,0.5734,0.6237,0.6439,0.6839,0.7341,0.754,0.7842,0.7842,0.7939,0.8038,0.8038,0.8038,0.8038,0.8038,0.8038,0.8038,0.8038,0.8038,0.8038,0.8038,0.8038,0.8038,0.8038,0.8038,0.8038,0.8038,-0.4329,-0.4228,-0.3531,-0.323,-0.323,-0.323,-0.323,-0.323,-0.323,-0.323,-0.323,-0.323,-0.323,-0.323,-0.323,-0.323,-0.323,-0.323,-0.323,-0.323,-0.323,-0.323,-0.323,-0.323,-0.323,-0.323,-0.2725,-0.1714,0.0605,0.2623,0.4039,0.4746,0.4744,0.4841,0.4836,0.4834,0.4832,0.4832,0.4832,0.4832,0.4832,0.4832,0.4832,0.4832,0.4832,0.4832,0.4832,0.4832,0.4832,0.4832,0.4832,0.4832,0.4832,0.4832,0.4832,0.4832,0.4832,0.4832,0.4832,0.4832,0.4849,0.4873,0.4914,0.4918,0.4912,0.4924,0.4957,0.491,0.4898,0.4883,0.4855,0.4839,0.4832,0.4832,0.4832,0.4832,0.4832,0.4832,0.4832,0.4832,0.4832,0.4832,0.4832,0.4832,0.4832,0.4832,0.4832,0.4832,0.4933,0.5334,0.5534,0.5837,0.6437,0.6939,0.7238,0.7437,0.764,0.7739,0.7939,0.8038,0.8038,0.8038,0.8038,0.8038,0.8038,0.8038,0.8038,0.8038,0.8038,0.8038,0.8038,0.8038,0.8038,0.8038,0.8038,-0.3531,-0.343,-0.323,-0.323,-0.323,-0.323,-0.323,-0.323,-0.323,-0.323,-0.323,-0.323,-0.323,-0.323,-0.323,-0.323,-0.323,-0.323,-0.323,-0.323,-0.323,-0.323,-0.323,-0.323,-0.313,-0.323,-0.2522,-0.0605,0.2521,0.3937,0.4239,0.4744,0.4841,0.4834,0.4832,0.4832,0.4832,0.4832,0.4832,0.4832,0.4832,0.4832,0.4832,0.4832,0.4832,0.4832,0.4832,0.4832,0.4832,0.4832,0.4832,0.4832,0.4832,0.4832,0.4832,0.4832,0.4832,0.4832,0.4832,0.4839,0.4857,0.4885,0.4922,0.4963,0.4994,0.5024,0.5006,0.4937,0.4885,0.4869,0.4855,0.4843,0.4832,0.4832,0.4832,0.4832,0.4832,0.4832,0.4832,0.4832,0.4832,0.4832,0.4832,0.4832,0.4832,0.4832,0.4832,0.4832,0.4832,0.5033,0.5031,0.5434,0.6034,0.6534,0.6833,0.7135,0.7338,0.7739,0.7939,0.8038,0.8038,0.8038,0.8038,0.8038,0.8038,0.8038,0.8038,0.8038,0.8038,0.8038,0.8038,0.8038,0.8038,0.8038,0.8038,-0.3206,-0.3229,-0.323,-0.323,-0.323,-0.323,-0.323,-0.323,-0.323,-0.323,-0.323,-0.323,-0.323,-0.323,-0.323,-0.323,-0.323,-0.323,-0.323,-0.323,-0.323,-0.323,-0.323,-0.313,-0.2623,-0.2422,-0.0806,0.1612,0.4343,0.4744,0.4738,0.4839,0.4834,0.4832,0.4832,0.4832,0.4832,0.4832,0.4832,0.4832,0.4832,0.4832,0.4832,0.4832,0.4832,0.4832,0.4832,0.4832,0.4832,0.4832,0.4832,0.4832,0.4832,0.4832,0.4832,0.4832,0.4832,0.4832,0.4832,0.4843,0.4863,0.4885,0.493,0.4971,0.4926,0.4951,0.4998,0.4934,0.4875,0.4851,0.4845,0.4834,0.4832,0.4832,0.4832,0.4832,0.4832,0.4832,0.4832,0.4832,0.4832,0.4832,0.4832,0.4832,0.4832,0.4832,0.4832,0.4832,0.4832,0.4832,0.4832,0.4931,0.5532,0.6134,0.6534,0.6833,0.7135,0.7537,0.7939,0.8038,0.8038,0.8038,0.8038,0.8038,0.8038,0.8038,0.8038,0.8038,0.8038,0.8038,0.8038,0.8038,0.8038,0.8038,0.8038,-0.3162,-0.3215,-0.3218,-0.3224,-0.323,-0.323,-0.323,-0.323,-0.323,-0.323,-0.323,-0.323,-0.323,-0.323,-0.323,-0.323,-0.323,-0.323,-0.323,-0.323,-0.323,-0.2928,-0.2826,-0.2725,-0.1815,-0.0302,0.151,0.2922,0.4746,0.4841,0.4834,0.4834,0.4832,0.4832,0.4832,0.4832,0.4832,0.4832,0.4832,0.4832,0.4832,0.4832,0.4832,0.4832,0.4832,0.4832,0.4832,0.4832,0.4832,0.4832,0.4832,0.4832,0.4832,0.4832,0.4832,0.4832,0.4832,0.4832,0.4832,0.4834,0.4849,0.4873,0.493,0.493,0.4885,0.4896,0.4943,0.4926,0.4865,0.4843,0.4836,0.4832,0.4832,0.4832,0.4832,0.4832,0.4832,0.4832,0.4832,0.4832,0.4832,0.4832,0.4832,0.4832,0.4832,0.4832,0.4832,0.4832,0.4832,0.4832,0.4832,0.4832,0.5033,0.5634,0.6032,0.6534,0.6836,0.7437,0.7839,0.7939,0.8038,0.8038,0.8038,0.8038,0.8038,0.8038,0.8038,0.8038,0.8038,0.8038,0.8038,0.8038,0.8038,0.8038,0.8038,-0.3102,-0.3157,-0.3157,-0.3184,-0.3225,-0.3229,-0.323,-0.323,-0.323,-0.323,-0.323,-0.323,-0.323,-0.323,-0.323,-0.323,-0.323,-0.313,-0.313,-0.323,-0.2826,-0.2422,-0.1917,-0.1411,-0.0302,0.1409,0.3021,0.4336,0.4742,0.4836,0.4832,0.4832,0.4832,0.4832,0.4832,0.4832,0.4832,0.4832,0.4832,0.4832,0.4832,0.4832,0.4832,0.4832,0.4832,0.4832,0.4832,0.4832,0.4832,0.4832,0.4832,0.4832,0.4832,0.4832,0.4832,0.4832,0.4832,0.4832,0.4832,0.4832,0.4845,0.4896,0.4928,0.4904,0.4873,0.4865,0.489,0.4875,0.4836,0.4836,0.4832,0.4832,0.4832,0.4832,0.4832,0.4832,0.4832,0.4832,0.4832,0.4832,0.4832,0.4832,0.4832,0.4832,0.4832,0.4832,0.4832,0.4832,0.4832,0.4832,0.4832,0.4832,0.4832,0.483,0.5129,0.6134,0.6736,0.7238,0.764,0.7839,0.8038,0.8038,0.8038,0.8038,0.8038,0.8038,0.8038,0.8038,0.8038,0.8038,0.8038,0.8038,0.8038,0.8038,0.8038]}]]